[[[{"header":{"parameterUnit":"kt","parameterCategory":2,"dx":1,"dy":1,"la1":29.285339999999998,"la2":30.599998999999997,"lo1":-89.70041500000002,"lo2":-87.6738589999976,"nx":112,"ny":82,"refTime":"2022-09-29T06:00:00:Z","depth":0,"parameterNumber":1,"parameterNumberName":"U-component_of_WINDS"},"data":[22.2759,22.3316,22.3548,22.2395,22.2526,22.2956,22.2956,22.2198,22.1606,22.1606,22.0817,21.9865,21.9076,0.0,0.0,0.0,0.0,0.0,0.0,21.7331,21.9668,22.0062,22.0817,22.2,22.3513,22.4499,22.5091,22.5288,22.8773,22.9957,22.7656,22.9796,23.0191,22.8182,22.9365,23.0352,23.0943,23.2259,23.2259,23.0943,22.9957,22.8773,22.7261,22.5713,22.5121,22.5121,22.5121,22.5121,22.5121,22.5121,22.5121,22.5121,22.5121,22.5121,22.5121,22.5121,22.5121,22.5121,22.5121,22.5121,22.5121,22.5121,22.5121,22.5121,22.5121,22.5121,22.5713,22.8803,22.7817,22.6436,22.9,22.7817,22.5713,22.5288,22.5121,22.5121,22.5121,22.5121,22.5121,22.5121,22.5121,22.5121,22.5121,22.5121,22.5121,22.5121,22.5121,22.5121,22.5121,22.5121,22.5121,22.5121,22.5121,22.5121,22.5121,22.5121,22.5121,22.5121,22.5121,22.5121,22.5121,22.5121,22.5319,22.5844,22.5319,22.5319,22.5844,22.5319,22.5121,22.5121,22.5121,22.5121,22.0654,22.0422,22.0028,22.0028,22.0028,22.0028,22.0028,21.9633,21.947,21.947,21.947,21.8878,21.6971,0.0,0.0,0.0,0.0,0.0,0.0,21.5951,21.8121,22.0619,22.1606,22.2592,22.3579,22.5486,22.5844,22.4499,22.8612,22.9957,22.7422,22.9526,23.0352,22.8773,23.0717,23.1864,23.2493,23.345,23.345,23.2493,23.0549,22.9,22.7984,22.6077,22.5121,22.5121,22.5121,22.5121,22.5121,22.5121,22.5121,22.5121,22.5121,22.5121,22.5121,22.5121,22.5121,22.5121,22.5121,22.5121,22.5121,22.5121,22.5121,22.5121,22.5121,22.5121,22.5121,22.5121,22.5121,22.5121,22.5121,22.5121,22.5121,22.5121,22.5121,22.5121,22.5121,22.5121,22.5121,22.5121,22.5121,22.5121,22.5121,22.5121,22.5121,22.5121,22.5121,22.5121,22.5121,22.5121,22.5121,22.5121,22.5121,22.5121,22.5121,22.5121,22.5121,22.5121,22.5121,22.5121,22.5121,22.5121,22.5121,22.5121,22.5121,22.5121,22.5121,22.5121,22.5121,22.5121,22.5121,22.5121,21.6345,21.5424,21.4438,21.4372,21.4438,21.4404,21.4404,21.5556,21.6542,21.6542,21.6542,21.6542,21.6542,21.5556,0.0,0.0,0.0,0.0,0.0,21.4602,21.6148,22.0225,22.0817,22.2,22.4894,22.5121,22.5713,22.7231,22.8576,23.0154,23.1506,23.0352,23.0352,23.1703,23.1667,23.2493,23.3808,23.3808,23.3808,23.3808,23.0943,22.9526,22.9395,22.6436,22.5121,22.5121,22.5121,22.5121,22.5121,22.5121,22.5121,22.5121,22.5121,22.5121,22.5121,22.5121,22.5121,22.5121,22.5121,22.5121,22.5121,22.5121,22.5121,22.5121,22.5121,22.5121,22.5121,22.5121,22.5121,22.5121,22.5121,22.5121,22.5121,22.5121,22.5121,22.5121,22.5121,22.5121,22.5121,22.5121,22.5121,22.5121,22.5121,22.5121,22.5121,22.5121,22.5121,22.5121,22.5121,22.5121,22.5121,22.5121,22.5121,22.5121,22.5121,22.5121,22.5121,22.5121,22.5121,22.5121,22.5121,22.5121,22.5121,22.5121,22.5121,22.5121,22.5121,22.5121,22.5121,22.5121,22.5121,22.5121,21.3649,21.3846,21.4175,21.3057,21.4372,21.5951,21.5951,21.6379,21.6905,21.7892,21.8089,0.0,0.0,0.0,21.9107,21.9107,0.0,21.8681,21.9041,21.9107,21.9107,21.9273,22.026,22.2,22.4894,22.6077,22.6472,22.588,22.7064,22.805,22.8379,23.0154,23.1272,23.1667,23.269,23.3479,23.3808,23.3808,23.3808,23.3808,23.193,23.0549,22.9563,22.759,22.6042,22.5121,22.5121,22.5121,22.5121,22.5121,22.5121,22.5121,22.5121,22.5121,22.5121,22.5121,22.5121,22.5121,22.5121,22.5121,22.5121,22.5121,22.5121,22.5121,22.5121,22.5121,22.5121,22.5121,22.5121,22.5121,22.5121,22.5121,22.5121,22.5121,22.5121,22.5121,22.5121,22.5121,22.5121,22.5121,22.5121,22.5121,22.5121,22.5121,22.5121,22.5121,22.5121,22.5121,22.5121,22.5121,22.5121,22.5121,22.5121,22.5121,22.5121,22.5121,22.5121,22.5121,22.5121,22.5121,22.5121,22.5121,22.5121,22.5121,22.5121,22.5121,22.5121,22.5121,22.5121,22.5121,22.5121,22.5121,21.069,21.1479,21.23,21.1479,21.3057,21.4998,21.559,21.5161,21.5524,21.8089,0.0,0.0,0.0,0.0,0.0,0.0,21.983,21.983,21.983,21.983,22.0028,22.0457,22.2198,22.3973,22.4889,22.6472,22.6831,22.6042,22.7458,22.8182,22.8182,23.0352,23.1667,23.1667,23.3084,23.3808,23.3808,23.3808,23.3808,23.3808,23.2493,23.0943,22.9563,22.7984,22.6472,22.5121,22.5121,22.5121,22.5121,22.5121,22.5121,22.5121,22.5121,22.5121,22.5121,22.5121,22.5121,22.5121,22.5121,22.5121,22.5121,22.5121,22.5121,22.5121,22.5121,22.5121,22.5121,22.5121,22.5121,22.5121,22.5121,22.5121,22.5121,22.5121,22.5121,22.5121,22.5121,22.5121,22.5121,22.5121,22.5121,22.5121,22.5121,22.5121,22.5121,22.5121,22.5121,22.5121,22.5121,22.5121,22.5121,22.5121,22.5121,22.5121,22.5121,22.5121,22.5121,22.5121,22.5121,22.5121,22.5121,22.5121,22.5121,22.5121,22.5121,22.5121,22.5121,22.5121,22.5121,22.5121,22.5121,22.5121,20.7994,20.8586,20.9572,20.9572,21.069,21.2433,21.3846,0.0,21.4045,21.8089,0.0,21.5951,21.8681,0.0,0.0,21.9307,21.947,21.9238,21.9307,21.9041,22.0062,22.2592,22.5324,22.6275,22.4924,22.6042,22.7064,22.7064,22.8445,22.9365,22.9563,23.0943,23.1733,23.1864,23.3253,23.3808,23.3808,23.3808,23.3808,23.3808,23.2456,23.1141,22.976,22.8182,22.6633,22.5319,22.5121,22.5121,22.5121,22.5121,22.5121,22.5121,22.5121,22.5121,22.5121,22.5121,22.5121,22.5121,22.5121,22.5121,22.5121,22.5121,22.5121,22.5121,22.5121,22.5121,22.5121,22.5121,22.5121,22.5121,22.5121,22.5121,22.5121,22.5121,22.5121,22.5121,22.5121,22.5121,22.5121,22.5121,22.5121,22.5121,22.5121,22.5121,22.5121,22.5121,22.5121,22.5121,22.5121,22.5121,22.5121,22.5121,22.5121,22.5121,22.5121,22.5121,22.5121,22.5121,22.5121,22.5121,22.5121,22.5121,22.5121,22.5121,22.5121,22.5121,22.5121,22.5121,22.5121,22.5121,22.5121,22.5121,20.6481,20.6252,20.6449,20.6449,20.8356,21.0722,0.0,0.0,0.0,21.9865,22.0028,22.0059,22.1803,22.1969,22.2198,22.3543,22.3907,22.3513,22.2364,22.2167,22.2364,22.2956,22.3548,22.3745,22.3381,22.4696,22.5516,22.5516,22.6831,22.8247,22.9563,23.0943,23.2295,23.345,23.3676,23.3808,23.3808,23.3808,23.3808,23.3808,23.3647,23.269,23.1309,22.976,22.8211,22.6866,22.5683,22.5121,22.5121,22.5121,22.5121,22.5121,22.5121,22.5121,22.5121,22.5121,22.5121,22.5121,22.5121,22.5121,22.5121,22.5121,22.5121,22.5121,22.5121,22.5121,22.5121,22.5121,22.5121,22.5121,22.5121,22.5121,22.5121,22.5121,22.5121,22.5121,22.5121,22.5121,22.5121,22.5121,22.5121,22.5121,22.5121,22.5121,22.5121,22.5121,22.5121,22.5121,22.5121,22.5121,22.5121,22.5121,22.5121,22.5121,22.5121,22.5121,22.5121,22.5121,22.5121,22.5121,22.5121,22.5121,22.5121,22.5121,22.5121,22.5121,22.5121,22.5121,22.5121,22.5121,22.5121,22.5121,20.5495,20.6218,20.6843,20.6843,20.898,0.0,0.0,21.3846,21.5556,21.9861,21.9633,21.9502,22.2395,22.2956,22.3381,22.4894,22.5121,22.453,22.3118,22.3513,22.371,22.2987,22.3579,22.4105,22.4105,22.5253,22.6275,22.6275,22.8182,22.976,23.0549,23.2098,23.3084,23.3808,23.3808,23.3808,23.3808,23.3808,23.3808,23.3808,23.3808,23.3084,23.1703,23.0943,22.9365,22.7261,22.6436,22.5713,22.5121,22.5121,22.5121,22.5121,22.5121,22.5121,22.5121,22.5121,22.5121,22.5121,22.5121,22.5121,22.5121,22.5121,22.5121,22.5121,22.5121,22.5121,22.5121,22.5121,22.5683,22.6275,22.6275,22.6275,22.6275,22.6275,22.5683,22.5121,22.5121,22.5121,22.5121,22.5121,22.5121,22.5121,22.5121,22.5121,22.5121,22.5121,22.5121,22.5121,22.5121,22.5121,22.5121,22.5121,22.5121,22.5121,22.5121,22.5121,22.5121,22.5121,22.5121,22.5121,22.5121,22.5121,22.5121,22.5121,22.5121,22.5121,22.5121,22.5121,22.5121,22.5121,22.5121,22.545,20.4702,20.6021,20.7007,20.7205,20.9375,0.0,21.4207,21.4209,21.5195,22.0782,22.0225,21.9633,22.3118,22.371,22.4105,22.5319,22.5516,22.5121,22.3907,22.453,22.4696,22.3513,22.4332,22.5288,22.545,22.6669,22.7393,22.762,22.9957,23.1338,23.1667,23.3084,23.3808,23.3808,23.3808,23.3808,23.3808,23.3808,23.3808,23.3808,23.3808,23.3282,23.2098,23.1901,23.0352,22.805,22.7458,22.6669,22.545,22.5288,22.5121,22.5121,22.5121,22.5121,22.5121,22.5121,22.5121,22.5121,22.5121,22.5121,22.5121,22.5121,22.5121,22.5121,22.5121,22.5121,22.5121,22.5121,22.6042,22.7195,22.6831,22.7261,22.759,22.6998,22.6275,22.545,22.5121,22.5121,22.5121,22.5121,22.5121,22.5121,22.5121,22.5121,22.5121,22.5121,22.5121,22.5121,22.5121,22.5121,22.5121,22.5121,22.5121,22.5121,22.5121,22.5121,22.5121,22.5121,22.5121,22.5121,22.5121,22.5121,22.5121,22.5121,22.5121,22.5121,22.5121,22.5121,22.5121,22.5121,22.5121,22.5844,20.3756,20.3883,20.4278,20.5659,20.6975,0.0,21.503,21.7134,21.9668,22.5288,22.6275,22.6275,22.6669,22.6801,22.6866,22.6998,22.7064,22.6831,22.6801,22.588,22.5056,22.4924,22.5091,22.5683,22.6831,22.7231,22.7853,22.9168,22.9526,23.0352,23.1703,23.3084,23.3808,23.3808,23.3808,23.3808,23.3808,23.3808,23.3808,23.3808,23.3808,23.3845,23.3647,23.2295,23.147,23.1111,22.8379,22.7231,22.6831,22.5683,22.5121,22.5121,22.5121,22.5121,22.5121,22.5121,22.5121,22.5121,22.5121,22.5121,22.5121,22.5121,22.5121,22.5121,22.5121,22.5121,22.5121,22.5121,22.6042,22.6831,22.5647,22.7225,22.8606,22.6077,22.6275,22.6669,22.5283,22.5121,22.5121,22.5121,22.5121,22.5121,22.5121,22.5121,22.5121,22.5121,22.5121,22.5121,22.5121,22.5121,22.5121,22.5121,22.5121,22.5121,22.5121,22.5121,22.5121,22.5121,22.5121,22.5121,22.5121,22.5121,22.5121,22.5121,22.5121,22.5121,22.5121,22.5121,22.5121,22.5121,22.5121,22.5844,20.16,20.2897,20.408,20.6284,0.0,0.0,21.5753,21.8252,22.0817,22.414,22.4696,22.5288,22.6831,22.7261,22.759,22.8445,22.8576,22.8211,22.7393,22.6077,22.5121,22.5121,22.5844,22.6669,22.7195,22.8773,23.0519,23.1864,23.2098,23.2653,23.4034,23.4005,23.3808,23.3808,23.3808,23.3808,23.3808,23.3808,23.3808,23.3808,23.3808,23.3808,23.3808,23.3282,23.2493,23.1535,22.9563,22.8014,22.7028,22.5647,22.5121,22.5121,22.5121,22.5121,22.5121,22.5121,22.5121,22.5121,22.5121,22.5121,22.5121,22.5121,22.5121,22.5121,22.5121,22.5121,22.5121,22.5121,22.5516,22.6239,22.7458,22.9198,23.0549,22.9168,22.8773,22.8182,22.6669,22.6239,22.6669,22.7422,22.7064,22.6239,22.6239,22.5647,22.5121,22.5121,22.5121,22.5121,22.5121,22.5121,22.5121,22.5121,22.5121,22.5121,22.5121,22.5844,22.6077,22.5121,22.5844,22.591,22.5121,22.5121,22.5121,22.5121,22.5121,22.5121,22.5121,22.5121,22.5121,22.5121,22.591,22.7656,19.9828,0.0,0.0,0.0,0.0,0.0,21.7134,21.9633,22.2,22.371,22.4105,22.4894,22.7458,22.7817,22.8576,23.0315,23.0315,22.9526,22.8014,22.7064,22.6042,22.5288,22.6633,22.7817,22.7817,23.0154,23.2295,23.3676,23.3808,23.4231,23.5386,23.44,23.3808,23.3808,23.3808,23.3808,23.3808,23.3808,23.3808,23.3808,23.3808,23.3808,23.3808,23.3808,23.3282,23.2295,23.0352,22.8971,22.7787,22.5844,22.5121,22.5121,22.5121,22.5121,22.5121,22.5121,22.5121,22.5121,22.5121,22.5121,22.5121,22.5121,22.5121,22.5121,22.5121,22.5121,22.5121,22.5516,22.5647,22.6472,22.9365,23.1309,23.2098,23.1272,23.0513,22.976,22.8182,22.8182,22.8606,22.9395,22.8606,22.7787,22.7225,22.6472,22.5516,22.5121,22.5121,22.5121,22.5121,22.5121,22.5121,22.5121,22.5121,22.5121,22.5121,22.6472,22.6669,22.5086,22.6472,22.6669,22.5121,22.5121,22.5121,22.5121,22.5121,22.5121,22.5121,22.5121,22.5121,22.5121,22.6669,22.8773,0.0,0.0,0.0,20.7007,21.0131,21.3814,21.9436,22.1803,22.3745,22.6472,22.7028,22.7656,22.9168,22.9563,23.0315,23.3282,23.2456,23.1141,22.976,22.9395,22.8379,22.545,22.762,22.9563,22.9563,23.0914,23.2295,23.3676,23.3808,23.3874,23.3874,23.3874,23.3808,23.3808,23.3808,23.3808,23.3808,23.3808,23.3808,23.3808,23.3808,23.3808,23.3808,23.3808,23.3808,23.3611,23.0746,22.9563,22.9198,22.6239,22.5121,22.5121,22.5121,22.5121,22.5121,22.5121,22.5121,22.5121,22.5121,22.5121,22.5121,22.5121,22.5121,22.5121,22.5121,22.5121,22.5283,22.6866,22.7195,22.7853,23.0914,23.269,23.3084,23.0352,23.0746,23.1309,22.9724,23.0549,23.1141,22.9724,22.9563,22.8971,22.7422,22.7261,22.6633,22.5319,22.5121,22.5121,22.5121,22.5121,22.5121,22.5121,22.5121,22.5121,22.5121,22.6472,22.6669,22.5086,22.6472,22.6669,22.5121,22.5121,22.5121,22.5121,22.5121,22.5121,22.5121,22.5121,22.5121,22.5121,22.6669,22.8773,19.8278,20.1978,20.5626,20.8586,21.286,21.73,22.0225,22.2557,22.4696,22.5683,22.588,22.6669,22.9168,22.9563,23.0549,23.345,23.269,23.1141,22.976,22.9563,22.8803,22.6866,22.9168,23.0943,23.0943,23.2295,23.364,23.5189,23.44,23.4268,23.5218,23.44,23.3808,23.3808,23.3808,23.4231,23.5218,23.5218,23.5218,23.5218,23.5218,23.4794,23.3808,23.3808,23.3808,23.3676,23.0746,22.9563,22.9365,22.6305,22.5121,22.5121,22.5121,22.5121,22.5121,22.5121,22.5121,22.5121,22.5121,22.5121,22.5121,22.5121,22.5121,22.5121,22.5121,22.5121,22.5486,22.6866,22.7261,22.802,23.0943,23.2098,23.2493,23.2493,23.2858,23.2653,23.1272,23.285,23.4429,23.3866,23.2259,23.0746,23.0388,22.9365,22.8211,22.6633,22.6436,22.6275,22.5288,22.5121,22.5121,22.5121,22.5121,22.5121,22.5121,22.7458,22.8182,22.6669,22.7984,22.8014,22.6669,22.5683,22.5121,22.5121,22.5121,22.5121,22.5121,22.6042,22.6077,22.5121,22.762,22.9365,19.7504,20.2339,20.7007,20.9342,21.3978,21.8484,22.0422,22.2557,22.4499,22.4889,22.5121,22.6042,22.9,22.9563,23.0549,23.345,23.3084,23.1864,23.0549,23.0746,23.0549,22.8971,23.0943,23.2493,23.2456,23.3282,23.4202,23.5189,23.44,23.4202,23.5189,23.4437,23.3808,23.3808,23.3808,23.4268,23.5218,23.5218,23.5415,23.6007,23.5415,23.4794,23.3808,23.3808,23.3808,23.3676,23.0746,22.9563,22.9365,22.6831,22.5516,22.5121,22.5647,22.5516,22.5121,22.5121,22.5121,22.5121,22.5121,22.5121,22.5121,22.5121,22.5121,22.5121,22.5121,22.5121,22.5486,22.6866,22.7656,22.8576,23.1111,23.2098,23.269,23.3611,23.3808,23.364,23.3245,23.4231,23.5584,23.6533,23.4071,23.1901,23.2259,23.0914,22.9,22.7458,22.7261,22.6633,22.5253,22.5121,22.5121,22.5121,22.5121,22.5121,22.5121,22.7225,22.8211,22.7225,22.8182,22.8211,22.7261,22.5844,22.5121,22.5121,22.5683,22.5844,22.5844,22.6866,22.6866,22.591,22.8971,23.0154,19.6517,20.2568,20.8191,20.9769,21.3452,21.7331,22.0225,22.1969,22.3316,22.4727,22.5121,22.6077,22.8971,22.9563,23.0549,23.3282,23.3808,23.3282,23.1864,23.2887,23.3282,23.193,23.3084,23.3874,23.4034,23.4071,23.3874,23.3808,23.3808,23.3808,23.3808,23.3808,23.3808,23.3808,23.3808,23.3808,23.3808,23.3874,23.4663,23.6007,23.4626,23.4042,23.3808,23.3808,23.3808,23.3676,23.0943,22.9592,22.9395,22.7817,22.6472,22.5253,22.6669,22.6239,22.5121,22.5121,22.5121,22.5121,22.5121,22.5121,22.5121,22.5121,22.5121,22.5121,22.5121,22.5121,22.5486,22.6866,22.8379,22.9957,23.1338,23.2653,23.3808,23.3808,23.3808,23.4202,23.5612,23.4992,23.4992,23.7754,23.486,23.2259,23.3676,23.1703,22.9198,22.762,22.7458,22.6831,22.5516,22.5253,22.5288,22.5288,22.5288,22.5288,22.5288,22.6436,22.7458,22.7458,22.7458,22.7393,22.7393,22.5844,22.5121,22.5121,22.6669,22.7225,22.7261,22.7225,22.7261,22.7261,23.0154,23.0914,19.984,20.5659,20.9736,21.1282,21.4998,21.8681,22.0422,22.1969,22.3316,22.4727,22.5121,22.5647,22.7422,22.8773,23.0154,23.1864,23.3084,23.3282,23.1864,23.2098,23.2456,23.3245,23.3676,23.4268,23.5415,23.5415,23.502,23.3874,23.3808,23.3808,23.3808,23.3808,23.3808,23.3808,23.3808,23.3808,23.3808,23.4823,23.5612,23.6007,23.6767,23.5978,23.3808,23.3808,23.3808,23.3676,23.1864,23.0549,22.9395,22.7817,22.6472,22.5121,22.545,22.5486,22.5121,22.5121,22.5121,22.5121,22.5121,22.5121,22.5121,22.5121,22.5121,22.5121,22.5121,22.5121,22.5486,22.6866,22.8379,22.9957,23.1338,23.2653,23.3808,23.3808,23.3808,23.4042,23.4231,23.6599,23.89,23.9454,23.7125,23.502,23.5415,23.4005,23.2295,23.0746,22.9526,22.8803,22.8409,22.7458,22.6633,22.6633,22.6633,22.6633,22.6633,22.8014,22.9329,23.0585,22.9563,22.8971,22.8971,22.6436,22.5121,22.5121,22.762,22.8379,22.7261,22.8379,22.7817,22.5647,22.8773,22.9957,19.8819,20.5626,21.1118,21.1117,21.4603,21.8089,21.9436,22.1014,22.2592,22.4727,22.5121,22.5516,22.7064,22.8576,22.9921,23.1506,23.2887,23.3647,23.2653,23.2098,23.2456,23.4626,23.364,23.364,23.581,23.5415,23.4626,23.3874,23.3808,23.3808,23.3808,23.3808,23.3808,23.3808,23.3808,23.3808,23.3808,23.5218,23.5575,23.502,23.581,23.5386,23.3808,23.3808,23.3808,23.3845,23.2295,23.1309,23.0352,22.8803,22.7458,22.6077,22.6077,22.5647,22.5121,22.5121,22.5121,22.5121,22.5121,22.5121,22.5121,22.5121,22.5121,22.5121,22.5121,22.5121,22.5253,22.6042,22.7458,22.8803,23.0352,23.1901,23.3282,23.4429,23.4794,23.4992,23.5584,23.8111,24.0046,23.9492,23.6993,23.5415,23.673,23.4626,23.269,23.1901,23.0943,23.0352,22.9592,22.8773,22.8211,22.8211,22.8211,22.7984,22.7225,22.8606,22.9957,23.0746,22.9957,22.9789,23.0549,22.8211,22.7028,22.7028,22.8773,22.9168,22.8211,22.976,22.9365,22.7028,23.0154,23.1141,19.6157,20.4278,21.1249,21.0493,21.3221,21.6774,21.8286,21.9865,22.1606,22.4302,22.4894,22.5288,22.6669,22.8247,22.976,23.1141,23.269,23.3611,23.3808,23.2493,23.2522,23.5612,23.364,23.3084,23.581,23.502,23.4202,23.3874,23.3808,23.3808,23.3808,23.3808,23.3808,23.3808,23.3808,23.3808,23.3808,23.502,23.5189,23.4071,23.3874,23.3808,23.3808,23.3808,23.3808,23.3845,23.2456,23.1901,23.1703,23.0352,22.8773,22.7261,22.7261,22.6239,22.5121,22.5121,22.5121,22.5121,22.5121,22.5121,22.5121,22.5121,22.5121,22.5121,22.5121,22.5121,22.5121,22.5121,22.6042,22.7656,22.9168,23.0746,23.2653,23.5415,23.6138,23.673,23.8308,23.9689,24.0281,23.89,23.6767,23.5584,23.7717,23.4626,23.193,23.193,23.1901,23.1272,23.0352,22.9957,22.9789,22.9789,22.9789,22.9365,22.7984,22.9,22.9957,23.0154,22.9957,23.0315,23.1703,23.0352,22.976,23.0154,22.9957,22.9789,22.9789,23.1141,23.0943,22.9592,23.2295,23.2887,19.767,20.2733,20.7599,21.1118,21.3254,21.5391,21.8089,21.9865,22.1176,22.2987,22.3316,22.371,22.5288,22.6669,22.8182,22.976,23.1141,23.2493,23.3676,23.1535,23.147,23.5612,23.4429,23.4034,23.581,23.6796,23.6373,23.4005,23.3808,23.3808,23.3808,23.3808,23.3808,23.3808,23.3808,23.3808,23.3808,23.4071,23.4626,23.5612,23.44,23.3808,23.3808,23.3808,23.3808,23.3808,23.3647,23.2887,23.1703,23.1506,22.9796,22.7261,22.7261,22.6239,22.5121,22.5121,22.5121,22.5121,22.5121,22.5121,22.5121,22.5121,22.5121,22.5121,22.5121,22.5121,22.5121,22.5121,22.6042,22.7656,22.9168,23.147,23.3874,23.5612,23.6965,23.8543,24.107,24.1859,24.1991,24.1624,24.1202,24.0281,23.8543,23.5584,23.3479,23.3479,23.2493,23.2098,23.3019,23.2098,23.1338,23.1338,23.1338,23.1309,23.0943,23.1141,23.1901,23.3084,23.193,23.1506,23.1667,23.0352,23.0746,23.3084,23.1864,23.1338,23.1338,23.1535,23.0943,22.9526,23.1309,23.1864,19.7275,20.1221,20.5462,20.898,21.171,21.3846,21.5951,21.7529,21.9076,22.0457,22.1969,22.3118,22.3907,22.5647,22.7458,22.8247,23.0118,23.1703,23.1703,23.0315,23.0352,23.2456,23.2653,23.3084,23.364,23.5781,23.6176,23.4005,23.3808,23.3808,23.3808,23.3808,23.3808,23.3808,23.3808,23.3808,23.3808,23.3808,23.4202,23.4823,23.4202,23.3808,23.3808,23.3808,23.3808,23.3808,23.3808,23.3479,23.2653,23.2098,23.0914,22.9365,22.7853,22.6866,22.6042,22.5283,22.5121,22.5121,22.5121,22.5121,22.5121,22.5121,22.5121,22.5121,22.5121,22.5121,22.5121,22.5121,22.5683,22.6436,22.7984,22.9957,23.2324,23.5181,23.7717,23.9887,24.1991,24.2385,24.2385,24.2385,24.2385,24.1465,23.8675,23.6965,23.5584,23.4071,23.3282,23.3084,23.3845,23.3282,23.2887,23.2887,23.2887,23.2456,23.1733,23.2493,23.2887,23.2653,23.2858,23.2887,23.2887,23.2061,23.2493,23.3808,23.3253,23.2493,23.1667,23.2493,23.2098,23.0746,23.2061,23.2887,19.7078,20.0824,20.4672,20.7237,20.9539,21.1907,21.3978,21.503,21.6182,21.7892,22.0422,22.2592,22.2956,22.5091,22.6831,22.7261,22.9168,23.0585,22.976,22.9365,22.9168,22.9563,23.0914,23.1667,23.1667,23.4231,23.5415,23.4042,23.3808,23.3808,23.3808,23.3808,23.3808,23.3808,23.3808,23.3808,23.3808,23.3808,23.3808,23.3808,23.3808,23.3808,23.3808,23.3808,23.3808,23.3808,23.3808,23.3808,23.3845,23.269,23.193,23.1506,22.9168,22.7853,22.7028,22.6077,22.5319,22.5121,22.5121,22.5121,22.5121,22.5121,22.5121,22.5121,22.5121,22.5121,22.5121,22.5121,22.5319,22.5844,22.7393,22.9168,23.1338,23.4794,23.7519,23.9887,24.1596,24.1991,24.2057,24.2385,24.2385,24.1465,23.8675,23.8149,23.7162,23.4202,23.3808,23.3808,23.3808,23.3808,23.3808,23.3808,23.3808,23.345,23.2295,23.3216,23.345,23.2295,23.3282,23.3808,23.3808,23.3808,23.3808,23.3808,23.3808,23.3282,23.2061,23.3282,23.3282,23.2295,23.3282,23.3808,19.8656,20.2175,20.5824,20.7402,20.7994,20.9342,21.3452,21.3452,21.342,21.6182,21.9041,22.1409,22.2759,22.4302,22.5647,22.7064,22.7458,22.8014,22.9329,22.8379,22.7984,22.9329,23.0914,23.1667,23.1667,23.4231,23.5415,23.4042,23.3808,23.3808,23.3808,23.3808,23.3808,23.3808,23.3808,23.3808,23.3808,23.3808,23.3808,23.3808,23.3808,23.3808,23.3808,23.3808,23.3808,23.3808,23.3808,23.3808,23.3808,23.3676,23.2887,23.1703,23.1338,22.9563,22.7261,22.7028,22.6275,22.5121,22.5121,22.5121,22.5121,22.5121,22.5121,22.5121,22.5121,22.5121,22.5121,22.5121,22.6077,22.7458,22.8971,23.1338,23.3647,23.4042,23.5218,23.7191,23.9849,24.0441,24.0835,24.2188,24.2385,24.1465,23.8675,23.8149,23.7162,23.4202,23.3808,23.3808,23.3808,23.3808,23.3808,23.3808,23.3808,23.3808,23.3676,23.3845,23.3845,23.3676,23.3845,23.3808,23.3808,23.3808,23.3808,23.3808,23.3808,23.3845,23.3676,23.3845,23.3845,23.3676,23.3845,23.3808,19.6126,19.9085,20.2141,20.3522,20.5824,20.7994,20.898,20.9933,21.1479,21.3617,21.6971,21.947,21.9041,22.1606,22.3973,22.4499,22.6077,22.7195,22.6831,22.7028,22.7195,22.6831,22.976,23.1338,23.0549,23.3837,23.5415,23.4042,23.3808,23.3808,23.3808,23.3808,23.3808,23.3808,23.3808,23.3808,23.3808,23.3808,23.3808,23.3808,23.3808,23.3808,23.3808,23.3808,23.3808,23.3808,23.3808,23.3808,23.3808,23.3808,23.3479,23.2887,23.2098,23.0943,22.9796,22.7817,22.6831,22.6239,22.5486,22.5121,22.5253,22.6042,22.6472,22.6472,22.6472,22.6472,22.6275,22.5319,22.6042,22.7393,22.805,23.0352,23.3084,23.4794,23.5612,23.6533,23.8506,23.8863,23.9097,23.9689,24.0478,24.0281,23.7322,23.7519,23.7162,23.4202,23.3808,23.3808,23.3808,23.3808,23.3808,23.3808,23.3808,23.3808,23.3808,23.3808,23.3808,23.3808,23.3808,23.3808,23.3808,23.3808,23.3808,23.3808,23.3808,23.3808,23.3808,23.3808,23.3808,23.3808,23.3808,23.3808,19.3957,19.6749,19.9642,20.1023,20.3917,20.6416,20.6252,20.7599,20.9144,21.1084,21.4964,21.7923,21.7892,22.0619,22.3153,22.3513,22.4894,22.5683,22.453,22.5253,22.5683,22.453,22.8379,23.0746,22.976,23.3048,23.4992,23.3874,23.3808,23.3808,23.3808,23.3808,23.3808,23.3808,23.3808,23.3808,23.3808,23.3808,23.3808,23.3808,23.3808,23.3808,23.3808,23.3808,23.3808,23.3808,23.3808,23.3808,23.3808,23.3808,23.3808,23.3676,23.2653,23.2098,23.1506,22.9365,22.8211,22.7853,22.6866,22.6436,22.6669,22.7656,22.7656,22.7225,22.7853,22.7656,22.7028,22.6669,22.7422,22.8576,22.8576,23.0352,23.2887,23.4823,23.5386,23.5781,23.7125,23.7557,23.7519,23.8149,23.89,23.89,23.6364,23.6796,23.6599,23.4202,23.3808,23.3808,23.3808,23.3808,23.3808,23.3808,23.3808,23.3808,23.3808,23.3808,23.3808,23.3808,23.3808,23.3808,23.3808,23.3808,23.3808,23.3808,23.3808,23.3808,23.3808,23.3808,23.3808,23.3808,23.3808,23.3808,19.3067,19.5894,19.9642,20.1023,20.2568,20.4278,20.7237,20.6613,20.6449,20.9342,21.3418,21.7497,22.0225,22.2,22.3381,22.4894,22.3907,22.2921,22.2921,22.2921,22.2921,22.2921,22.6866,22.9563,22.9563,23.2061,23.3808,23.3808,23.3808,23.3808,23.3808,23.3808,23.3808,23.3808,23.3808,23.3808,23.3808,23.3808,23.3808,23.3808,23.3808,23.3808,23.3808,23.3808,23.3808,23.3808,23.3808,23.3808,23.3808,23.3808,23.3808,23.3808,23.3808,23.285,23.1667,23.1703,23.0746,22.9563,22.9563,22.9563,22.9563,22.9563,22.8409,22.7422,22.9,22.8409,22.759,22.9168,23.0549,23.1703,23.1703,23.2653,23.3808,23.3808,23.3874,23.4268,23.5781,23.6007,23.6401,23.7951,23.8149,23.7754,23.6204,23.6007,23.5584,23.4071,23.3808,23.3808,23.3808,23.3808,23.3808,23.3808,23.3808,23.3808,23.3808,23.3808,23.3808,23.3808,23.3808,23.3808,23.3808,23.3808,23.3808,23.3808,23.3808,23.3808,23.3808,23.3808,23.3808,23.3808,23.3808,23.3808,19.2475,19.5202,19.8064,19.9642,20.1779,20.3686,20.4672,20.6053,20.7599,20.9539,21.0295,21.1512,21.4406,21.7695,22.0422,22.2,22.3346,22.4105,22.3153,22.3741,22.4105,22.3153,22.6866,22.9563,22.9563,23.3048,23.4823,23.3874,23.4794,23.4823,23.3874,23.3808,23.3808,23.3808,23.3808,23.3808,23.3808,23.3808,23.3808,23.3808,23.3808,23.3808,23.3808,23.3808,23.3808,23.3808,23.3808,23.3808,23.3808,23.3808,23.3808,23.3808,23.3808,23.3647,23.3084,23.2098,23.1506,23.0943,22.9957,22.9563,22.976,23.0746,23.0746,23.0352,23.0943,23.0746,23.0154,22.976,23.0549,23.1864,23.2887,23.3479,23.3808,23.3808,23.3808,23.4042,23.44,23.4429,23.4663,23.502,23.5941,23.6204,23.4794,23.5386,23.5378,23.4071,23.3808,23.3808,23.3808,23.3808,23.3808,23.3808,23.3808,23.3808,23.3808,23.3808,23.3808,23.3808,23.3808,23.3808,23.3808,23.3808,23.3808,23.3808,23.3808,23.3808,23.3808,23.3808,23.3808,23.3808,23.3808,23.3808,19.208,19.4382,19.6552,19.8064,19.9805,20.1581,20.3883,20.487,20.6021,20.8553,20.875,20.9375,21.1874,21.6148,22.0062,22.1409,22.3184,22.3973,22.3153,22.371,22.3973,22.3153,22.6239,22.8971,22.9563,23.288,23.502,23.4626,23.5378,23.5612,23.4626,23.4239,23.3808,23.3808,23.3808,23.3808,23.3808,23.3808,23.3808,23.3808,23.3808,23.3808,23.3808,23.3808,23.3808,23.3808,23.3808,23.3808,23.3808,23.3808,23.3808,23.3808,23.3808,23.3808,23.3676,23.2887,23.2456,23.2493,23.1506,23.1141,23.1272,23.2295,23.2061,23.1901,23.2259,23.2061,23.1703,23.1309,23.1901,23.269,23.3611,23.3808,23.3808,23.3808,23.3808,23.3808,23.3808,23.3808,23.3808,23.3808,23.4597,23.4823,23.4005,23.4597,23.4823,23.4042,23.3808,23.3808,23.3808,23.3808,23.3808,23.3808,23.3808,23.3808,23.3808,23.3808,23.3808,23.3808,23.3808,23.3808,23.3808,23.3808,23.3808,23.3808,23.3808,23.3808,23.3808,23.3808,23.3808,23.3808,23.3808,23.3808,19.165,19.3527,19.514,19.6714,19.7078,19.8687,20.4114,20.3325,20.2568,20.6613,20.8553,21.0164,21.171,21.6576,22.0817,22.2329,22.2789,22.2956,22.2956,22.3153,22.3351,22.3351,22.5683,22.805,22.9563,23.2295,23.4466,23.5772,23.597,23.6138,23.6007,23.4794,23.4042,23.3808,23.3808,23.3808,23.3808,23.3808,23.3808,23.3808,23.3808,23.3808,23.3808,23.3808,23.3808,23.3808,23.4042,23.3874,23.3808,23.4042,23.3874,23.3808,23.3808,23.3808,23.3808,23.3808,23.3808,23.3808,23.3808,23.3808,23.3808,23.3808,23.285,23.2098,23.3479,23.2887,23.2061,23.3479,23.3808,23.3808,23.3808,23.3808,23.3808,23.3808,23.3808,23.3808,23.3808,23.3808,23.3808,23.3808,23.3808,23.3808,23.3808,23.3808,23.3808,23.3808,23.3808,23.3808,23.3808,23.3808,23.3808,23.3808,23.3808,23.3808,23.3808,23.3808,23.3808,23.3808,23.3808,23.3808,23.3808,23.3808,23.3808,23.3808,23.3808,23.3808,23.3808,23.3808,23.3808,23.3808,23.3808,23.3808,18.9151,19.2015,19.514,19.6714,19.7867,19.9445,20.1812,20.1781,20.1944,20.408,20.5626,20.7041,20.8618,21.1841,21.5359,21.9076,22.1575,22.2956,22.2956,22.4929,22.6275,22.6275,22.7817,22.9563,23.1111,23.285,23.4429,23.5772,23.6993,23.7125,23.597,23.5575,23.4992,23.3874,23.3808,23.3808,23.3808,23.3808,23.3808,23.3808,23.3808,23.3808,23.3808,23.3808,23.3808,23.3874,23.502,23.4823,23.3874,23.502,23.486,23.3808,23.3808,23.3808,23.3808,23.3808,23.3808,23.3808,23.3808,23.3808,23.3808,23.3808,23.3611,23.3413,23.3676,23.3647,23.3413,23.3845,23.3808,23.3808,23.3808,23.3808,23.3808,23.3808,23.3808,23.3808,23.3808,23.3808,23.3808,23.3808,23.3808,23.3808,23.3808,23.3808,23.3808,23.3808,23.3808,23.3808,23.3808,23.3808,23.3808,23.3808,23.3808,23.3808,23.3808,23.3808,23.3808,23.3808,23.3808,23.3808,23.3808,23.3808,23.3808,23.3808,23.3808,23.3808,23.3808,23.3808,23.3808,23.3808,23.3808,23.3808,18.9809,19.2475,19.4811,19.4974,19.6157,19.7704,19.9808,19.984,20.02,20.2962,20.4672,20.6252,20.8388,21.0723,21.3617,21.7892,22.1014,22.3184,22.3907,22.5288,22.6866,22.8182,22.8445,22.9526,23.2456,23.3442,23.4655,23.6796,23.7754,23.8149,23.7942,23.673,23.5612,23.4823,23.4202,23.3808,23.3808,23.3808,23.4202,23.486,23.4239,23.4202,23.4794,23.4239,23.3808,23.3874,23.5415,23.5189,23.4042,23.5415,23.5189,23.3808,23.3808,23.3808,23.3808,23.3808,23.3808,23.3808,23.3808,23.3808,23.3808,23.3808,23.3808,23.3808,23.3808,23.3808,23.3808,23.3808,23.3808,23.3808,23.3808,23.3808,23.3808,23.3808,23.3808,23.3808,23.3808,23.3808,23.3808,23.3808,23.3808,23.3808,23.3808,23.3808,23.3808,23.3808,23.3808,23.3808,23.3808,23.3808,23.3808,23.3808,23.3808,23.3808,23.3808,23.3808,23.3808,23.3808,23.3808,23.3442,23.2887,23.2295,23.2127,23.2887,23.2887,23.2887,23.2887,23.2887,23.2456,23.1901,23.1901,23.1901,19.0897,19.3395,19.4548,19.3527,19.425,19.5732,19.8296,19.7898,19.7898,20.181,20.3752,20.5463,20.8356,21.0361,21.286,21.7137,21.983,22.2395,22.4499,22.5121,22.6502,22.9563,22.8576,22.9198,23.3442,23.3669,23.4589,23.7519,23.7914,23.8741,23.9849,23.7548,23.6204,23.6007,23.4597,23.4005,23.4466,23.4268,23.4794,23.6007,23.4634,23.4429,23.5612,23.44,23.3808,23.3874,23.5415,23.5189,23.4042,23.5415,23.5189,23.3808,23.3808,23.3808,23.3808,23.3808,23.3808,23.3808,23.3808,23.3808,23.3808,23.3808,23.3808,23.3808,23.3808,23.3808,23.3808,23.3808,23.3808,23.3808,23.3808,23.3808,23.3808,23.3808,23.3808,23.3808,23.3808,23.3808,23.3808,23.3808,23.3808,23.3808,23.3808,23.3808,23.3808,23.3808,23.3808,23.3808,23.3808,23.3808,23.3808,23.3808,23.3808,23.3808,23.3808,23.3808,23.3845,23.3479,23.3479,23.2887,23.1506,23.0118,23.0154,23.1338,23.1338,23.1338,23.1338,23.1338,23.0746,22.9563,22.9563,22.9563,18.8493,19.1817,19.5009,19.6122,19.6486,19.6912,19.7306,19.632,19.5763,19.7701,19.9248,20.1155,20.3917,20.6613,20.9539,21.2696,21.457,21.7529,22.2592,22.5253,22.805,23.0943,23.0154,23.0315,23.3442,23.2653,23.3282,23.6138,23.7388,23.8111,23.8543,23.8149,23.7191,23.6007,23.4597,23.4992,23.7491,23.6204,23.581,23.6007,23.4634,23.4042,23.4239,23.4042,23.3808,23.3874,23.5415,23.5189,23.4042,23.5415,23.5189,23.3808,23.3808,23.3808,23.3808,23.3808,23.3808,23.3808,23.3808,23.3808,23.3808,23.3808,23.3808,23.3808,23.3808,23.3808,23.3808,23.3808,23.3808,23.3808,23.3808,23.3808,23.3808,23.3808,23.3808,23.3808,23.3808,23.3808,23.3808,23.3808,23.3808,23.3808,23.3808,23.3808,23.3808,23.3808,23.3808,23.3808,23.3808,23.3808,23.3808,23.3808,23.3808,23.3808,23.3808,23.3808,23.3282,23.2098,23.2098,23.1338,22.9957,22.976,22.976,22.9957,22.9957,22.9957,22.9957,22.9957,22.976,22.9563,22.9563,22.9563,18.9874,19.3856,19.6915,19.6157,19.6517,19.7109,19.7109,19.596,19.5372,19.7704,19.8853,20.0432,20.3917,20.7007,21.0131,21.4011,21.6311,21.9041,22.2561,22.4696,22.7261,23.0154,22.9957,23.0746,23.3647,23.3282,23.364,23.581,23.6599,23.7754,23.9295,23.8506,23.8111,23.8308,23.6965,23.673,23.8149,23.673,23.6401,23.7125,23.4823,23.4202,23.4992,23.4202,23.3808,23.3874,23.5415,23.5612,23.502,23.5781,23.5612,23.4992,23.4239,23.3808,23.3808,23.3808,23.3808,23.3808,23.3808,23.3808,23.3808,23.3808,23.3808,23.3808,23.3808,23.3808,23.3808,23.3808,23.3808,23.3808,23.3808,23.3808,23.3808,23.3808,23.3808,23.3808,23.3808,23.3808,23.3808,23.3808,23.3808,23.3808,23.3808,23.3808,23.3808,23.3808,23.3808,23.3808,23.3808,23.3808,23.3808,23.3808,23.3808,23.3808,23.3808,23.3084,23.2493,23.1667,23.0943,22.9957,22.8379,22.8379,22.7984,22.7261,22.7817,22.8379,22.8379,22.8379,22.7817,22.7261,22.7261,22.7261,19.2606,0.0,19.8262,19.6324,19.6749,19.7504,0.0,19.6157,19.5929,19.8262,19.9051,20.0432,20.3885,20.7238,21.069,21.4372,21.7497,22.0225,22.2592,22.3907,22.5844,22.9526,22.976,23.0746,23.3647,23.3479,23.3837,23.5415,23.581,23.6993,23.9126,23.8506,23.8741,23.9652,23.9135,23.8703,23.9097,23.7717,23.7322,23.8149,23.5584,23.4794,23.5415,23.4437,23.4005,23.44,23.5189,23.5575,23.6007,23.5612,23.5378,23.5415,23.4268,23.3808,23.3808,23.3808,23.3808,23.3808,23.3808,23.3808,23.3808,23.3808,23.3808,23.3808,23.3808,23.3808,23.3845,23.3479,23.3647,23.3808,23.3808,23.3808,23.3808,23.3808,23.3808,23.3808,23.3808,23.3808,23.3808,23.3808,23.3808,23.3808,23.3808,23.3808,23.3808,23.3808,23.3808,23.3808,23.3808,23.3808,23.3808,23.3808,23.3808,23.3808,23.3808,23.2295,23.1111,23.0717,22.9526,22.8379,22.6866,22.6633,22.6275,22.5121,22.6275,22.6633,22.6633,22.6633,22.6275,22.5121,22.5121,22.5121,0.0,19.714,19.7504,19.8656,19.9051,19.8691,19.7535,19.714,0.0,19.7337,19.8262,19.984,20.1352,20.51,20.8553,21.0131,21.2826,21.674,22.2198,22.2987,22.5258,23.0914,23.0352,23.0746,23.3647,23.269,23.2493,23.3874,23.5218,23.597,23.6336,23.7557,23.8111,23.8346,23.9492,24.0807,24.2057,24.0638,23.9257,23.8149,23.6533,23.5218,23.4005,23.3874,23.4597,23.581,23.4634,23.4794,23.5772,23.4597,23.4005,23.4005,23.3874,23.3808,23.3808,23.3808,23.3808,23.3808,23.3808,23.3808,23.3808,23.3808,23.3808,23.3808,23.3808,23.3808,23.3647,23.2295,23.2887,23.3808,23.3808,23.3808,23.3808,23.3808,23.3808,23.3808,23.3808,23.3808,23.3808,23.3808,23.3808,23.3808,23.3808,23.3808,23.3808,23.3808,23.3808,23.3808,23.3808,23.3808,23.3808,23.3808,23.3808,23.3808,23.3808,23.1272,22.9168,22.7656,22.7458,22.6866,22.5319,22.5253,22.5288,22.5121,22.5288,22.5253,22.5253,22.5253,22.5288,22.5121,22.5121,22.5121,19.7109,19.849,19.9445,19.8293,19.8687,19.9019,19.8493,19.767,19.7666,19.9411,19.9445,20.0037,20.237,20.6218,20.9967,21.23,21.5951,21.983,22.3776,22.5091,22.6472,22.8576,22.9365,22.9957,23.1111,23.2295,23.3282,23.3808,23.4437,23.502,23.5941,23.657,23.6796,23.6796,23.8111,23.906,23.9689,23.9267,23.8703,23.8149,23.7519,23.6533,23.5218,23.5218,23.4992,23.4597,23.4071,23.4626,0.0,23.44,23.44,23.502,23.4202,23.3808,23.3808,23.3808,23.3808,23.3808,23.3808,23.3282,23.269,23.3647,23.3282,23.269,23.3647,23.269,23.1111,23.0549,23.0746,23.1141,23.1141,23.1901,23.2456,23.2456,23.3216,23.3808,23.3808,23.3808,23.3808,23.3808,23.3808,23.3808,23.3808,23.3808,23.3808,23.3808,23.3808,23.3808,23.3808,23.3808,23.3808,23.3808,23.3084,23.2061,23.1309,22.9365,22.7817,22.7261,22.6472,22.5647,22.5121,22.5121,22.5121,22.5121,22.5121,22.5121,22.5121,22.5121,22.5121,22.5121,22.5121,22.5121,19.7898,19.9248,20.02,19.7701,19.8293,19.9019,19.8656,19.8064,19.8459,20.0826,20.0958,20.1384,20.3719,20.7796,21.1248,21.3452,21.7331,22.1246,22.3938,22.5683,22.6831,22.7817,22.8971,22.9365,22.8803,23.1111,23.2887,23.3845,23.3808,23.4268,23.5218,23.581,23.6007,23.6007,23.6927,23.7754,23.8149,23.8149,23.7951,23.7557,23.7557,23.6767,23.5386,23.5386,23.4794,23.3874,23.3874,23.44,23.5218,23.4202,23.44,23.5218,23.4202,23.3647,23.3253,23.3253,23.2887,23.2493,23.2493,23.1901,23.1141,23.2061,23.1901,23.1141,23.2295,23.0746,22.8971,22.9395,22.9563,22.9563,22.9563,23.0352,23.1111,23.1111,23.1733,23.269,23.3084,23.3253,23.3282,23.3845,23.3808,23.3808,23.3808,23.3808,23.3808,23.3808,23.3808,23.3808,23.3808,23.3808,23.3676,23.3216,23.2295,23.0943,22.8971,22.7458,22.6669,22.6669,22.5683,22.5121,22.5121,22.5121,22.5121,22.5121,22.5121,22.5121,22.5121,22.5121,22.5121,22.5121,22.5121,22.5121,19.8428,19.9217,19.8822,19.7504,19.8293,19.8853,19.7504,19.8293,19.9611,20.1187,20.2568,20.3949,20.5429,20.9342,21.2236,21.2236,21.5953,21.9668,22.2561,22.4135,22.6275,22.9168,22.9563,22.8971,22.7458,22.8606,23.0746,23.3647,23.3808,23.3808,23.3808,23.5218,23.6007,23.6007,23.6007,23.6599,23.8149,23.8149,23.7322,23.6007,23.6007,23.5218,23.3874,23.3874,23.3837,23.3866,23.3874,23.3808,23.3808,23.3808,23.3808,23.3808,23.3808,23.2887,23.1703,23.1703,23.0746,22.9563,22.9563,22.9563,22.9563,22.9563,22.9563,22.9563,22.9563,22.8445,22.759,22.9168,22.9563,22.9563,22.9563,22.9563,22.9563,22.9563,22.9563,22.9957,23.1338,23.1703,23.2098,23.3442,23.3808,23.3808,23.3808,23.3808,23.3808,23.3808,23.3808,23.3808,23.3808,23.3808,23.3282,23.1901,23.1703,23.0519,22.7458,22.5844,22.5121,22.5121,22.5121,22.5121,22.5121,22.5121,22.5121,22.5121,22.5121,22.5121,22.5121,22.5121,22.5121,22.5121,22.5121,22.5121,19.9051,20.0037,19.984,19.6324,19.8099,20.0006,19.7701,19.8293,20.0069,20.237,20.2339,20.2733,20.5232,20.8388,21.092,21.2104,21.5953,21.9668,22.2561,22.4135,22.588,22.762,22.7984,22.7787,22.7261,22.762,22.9168,23.2098,23.3282,23.3808,23.3808,23.4202,23.4429,23.4429,23.4429,23.4663,23.502,23.6176,23.6401,23.6007,23.6993,23.673,23.5386,23.5386,23.486,23.3874,23.2887,23.2259,23.2295,23.1309,23.0914,23.0914,23.0914,23.0549,23.0118,23.0118,22.9957,22.9563,22.9563,22.8803,22.8014,22.9168,22.8803,22.7787,22.6633,22.6042,22.5844,22.6239,22.6472,22.6472,22.6472,22.7261,22.7984,22.7984,22.8773,22.976,23.0154,23.0118,23.0513,23.2098,23.2259,23.269,23.3676,23.3808,23.3808,23.3808,23.3808,23.3808,23.3808,23.285,23.2061,23.1667,22.976,22.7853,22.5844,22.5319,22.5121,22.5121,22.5121,22.5121,22.5121,22.5121,22.5121,22.5121,22.4105,22.4105,22.5121,22.4105,22.4105,22.5121,22.5121,22.5121,19.9217,20.0203,20.0432,19.6683,19.8099,20.0003,19.7732,19.767,19.9248,20.2173,20.1944,20.2339,20.589,20.8356,21.069,21.2828,21.6148,21.9273,22.1049,22.2987,22.453,22.5521,22.6077,22.6472,22.6472,22.6831,22.7984,22.976,23.1901,23.3019,23.3019,23.3479,23.3808,23.3808,23.3808,23.3808,23.3808,23.4626,23.5189,23.5189,23.5941,23.5978,23.5189,23.5189,23.44,23.285,23.2098,23.1667,23.1535,23.0154,22.9957,23.0352,22.976,22.9168,22.8606,22.8606,22.8211,22.7853,22.7853,22.7261,22.6436,22.7422,22.7261,22.6275,22.5319,22.5121,22.5121,22.5121,22.5121,22.5121,22.5121,22.5713,22.6472,22.6472,22.7028,22.805,22.8576,22.8606,22.9,23.0549,23.0914,23.1141,23.193,23.2061,23.2061,23.2061,23.2061,23.2061,23.2061,23.1338,23.0549,22.9957,22.7853,22.6077,22.5121,22.5121,22.5121,22.5121,22.453,22.4302,22.4302,22.3776,22.3346,22.3346,22.2592,22.2592,22.3346,22.2592,22.2592,22.3346,22.3346,22.3346,19.9051,20.0234,20.0629,19.7898,19.8262,19.9051,19.7504,19.7306,19.8293,20.0826,20.1352,20.2765,20.681,20.8553,21.0525,21.3615,21.6576,21.8252,21.8715,22.1049,22.2789,22.2956,22.4302,22.5121,22.5121,22.6239,22.7028,22.7261,22.976,23.1309,23.1309,23.2858,23.3611,23.3611,23.3845,23.3808,23.3808,23.3808,23.3808,23.3808,23.3808,23.3808,23.3808,23.3808,23.3084,23.1901,23.1733,23.1703,23.1338,22.9957,22.9921,23.0943,22.9796,22.8211,22.7064,22.7064,22.6275,22.5121,22.5121,22.5121,22.5121,22.5121,22.5121,22.5121,22.5121,22.5121,22.5121,22.5121,22.5121,22.5121,22.5121,22.5121,22.5121,22.5121,22.5121,22.545,22.6866,22.7064,22.7422,22.9,22.9365,22.9329,22.9563,22.9563,22.9563,22.9563,22.9563,22.9563,22.9563,22.9395,22.8773,22.7261,22.5844,22.5121,22.5121,22.4924,22.4924,22.4924,22.3513,22.2759,22.2759,22.1641,22.0817,22.0817,22.0585,22.0585,22.0817,22.0585,22.0585,22.0817,22.0817,22.0817,19.7306,19.9477,20.0629,19.7898,19.9082,20.0234,19.7701,19.8885,20.0563,20.1221,20.1352,20.2339,20.5463,20.6416,20.7994,21.2104,21.4209,21.6182,21.8286,22.026,22.1838,22.2789,22.4302,22.5121,22.5121,22.5283,22.6077,22.7195,22.7853,22.8182,22.8182,23.0746,23.2061,23.2061,23.3282,23.3808,23.3808,23.3808,23.3808,23.3808,23.3808,23.3808,23.3808,23.3808,23.3676,23.3282,23.2295,23.1111,22.9957,22.8379,22.7261,22.6436,22.6275,22.5844,22.5516,22.5516,22.5319,22.5121,22.5121,22.5121,22.5121,22.5121,22.5121,22.5121,22.5121,22.5121,22.5121,22.5121,22.5121,22.5121,22.5121,22.5121,22.5121,22.5121,22.5121,22.5121,22.545,22.5516,22.6077,22.7458,22.7787,22.8182,22.9365,22.9563,22.9563,22.9563,22.9563,22.9563,22.9563,22.8409,22.7261,22.5647,22.5253,22.5121,22.5121,22.4105,22.3381,22.3381,22.1965,22.1176,22.1176,22.1014,22.0817,22.0817,21.9633,21.9633,22.0817,21.9633,21.9633,22.0817,22.0817,22.0817,19.6517,19.8656,20.0037,19.8459,19.9248,20.0069,19.8459,19.8099,19.8656,20.0006,20.0366,20.1583,20.589,20.7172,20.9177,21.3617,21.4998,21.5951,21.7497,21.8844,22.0225,22.1803,22.3184,22.4332,22.5056,22.5121,22.5486,22.6107,22.6866,22.7261,22.7261,22.8809,22.9957,23.0746,23.2098,23.2887,23.2887,23.3479,23.3808,23.3808,23.3808,23.3808,23.3808,23.3808,23.3808,23.3845,23.2295,23.1309,23.0315,22.8182,22.6866,22.6042,22.5283,22.5121,22.5121,22.5121,22.5121,22.5121,22.5121,22.5121,22.4924,22.3579,22.2952,22.2952,22.2952,22.2952,22.2952,22.2952,22.2952,22.2952,22.2952,22.2952,22.2952,22.2952,22.2952,22.3149,22.3907,22.4696,22.5319,22.6042,22.6275,22.6436,22.7225,22.7422,22.7422,22.7422,22.7422,22.7422,22.7422,22.6633,22.5844,22.5121,22.4499,22.4105,22.4105,22.2789,22.1969,22.1969,22.0654,21.9865,21.9865,21.9107,21.8678,21.8678,21.8089,21.8089,21.8678,21.8089,21.8089,21.8678,21.8678,21.8678,19.5171,19.7144,19.8428,19.8428,19.8428,19.8428,19.8428,19.6718,19.5732,19.8064,19.9019,20.0992,20.5856,20.7961,21.0722,21.5359,21.6345,21.6542,21.6905,21.8252,21.9668,22.0457,22.1969,22.3381,22.4696,22.4924,22.5121,22.5121,22.6275,22.6831,22.6831,22.6831,22.7656,22.9168,23.0352,23.1111,23.1338,23.2456,23.3084,23.3084,23.3282,23.3479,23.3479,23.3676,23.3808,23.3845,23.269,23.1864,23.1506,22.8773,22.7458,22.7064,22.5319,22.4727,22.4727,22.4499,22.4332,22.4332,22.4332,22.4332,22.3938,22.1606,22.0817,22.0817,22.0817,22.0817,22.0817,22.0817,22.0817,22.0817,22.0817,22.0817,22.0817,22.0817,22.0817,22.1211,22.2364,22.3513,22.4499,22.4727,22.4924,22.5121,22.5121,22.5121,22.5121,22.5121,22.5121,22.5121,22.5121,22.4924,22.4696,22.4332,22.3316,22.2592,22.2592,22.1211,22.0422,22.0422,21.9041,21.8286,21.8286,21.7134,21.6542,21.6542,21.6542,21.6542,21.6542,21.6542,21.6542,21.6542,21.6542,21.6542,19.0897,19.3299,19.5337,19.5337,19.5337,19.5337,19.5337,19.6157,19.6517,19.5535,19.8459,20.1384,20.2173,20.4509,20.8027,21.3846,21.5753,21.6937,21.8321,22.0619,22.1575,21.9273,22.1378,22.2987,22.3184,22.4332,22.5121,22.5121,22.5253,22.5283,22.5283,22.5283,22.6042,22.7422,22.7823,22.8409,22.9789,22.9921,23.0154,23.0154,23.1338,23.193,23.2098,23.3282,23.3808,23.3808,23.3611,23.2887,23.1535,22.9957,22.8409,22.6998,22.4302,22.3184,22.3153,22.1768,22.1409,22.1409,22.1409,22.1409,22.1409,22.1014,22.0817,22.0817,22.0817,22.0817,22.0817,22.0817,22.0817,22.0817,22.0817,22.0817,22.0817,22.0817,22.0817,22.0782,22.0979,22.1176,22.1803,22.2987,22.4302,22.5121,22.5121,22.5121,22.5121,22.5121,22.5121,22.5121,22.5121,22.3938,22.2789,22.1606,22.1211,22.0979,22.0979,21.9865,21.8844,21.8844,21.7695,21.674,21.674,21.6708,21.6542,21.6542,21.6542,21.6542,21.6542,21.6542,21.6542,21.6542,21.6542,21.6542,18.9617,19.1393,19.2773,19.4351,19.4811,19.4811,19.4811,19.4807,19.4579,19.4746,19.7109,19.9642,20.2173,20.5659,20.9572,21.3615,21.5556,21.6576,21.6379,21.7331,21.7923,21.7497,21.8681,22.0062,22.1606,22.2952,22.3907,22.3907,22.4696,22.545,22.6275,22.5516,22.5283,22.6077,22.6077,22.6866,22.8247,22.9168,22.9563,22.9563,23.0118,23.0549,23.0549,23.1141,23.1506,23.1506,23.1506,23.0549,22.9168,22.8576,22.7458,22.588,22.371,22.2956,22.2724,22.1409,22.0817,22.0817,22.0817,21.983,21.8661,22.0418,21.985,21.8695,22.0451,21.9883,21.8484,21.8484,21.8484,21.8484,21.8484,21.8484,21.8484,21.8484,21.965,22.0618,21.9852,22.1042,22.218,22.1791,22.2921,22.4135,22.4924,22.5121,22.5283,22.6275,22.5683,22.5121,22.5121,22.3907,22.2759,22.2167,22.0654,21.9668,21.9668,21.8286,21.7497,21.7497,21.6971,21.6542,21.6542,21.6542,21.6542,21.6542,21.6542,21.6542,21.6542,21.6542,21.6542,21.6542,21.6542,21.6542,18.7214,18.8595,18.9486,19.1984,19.2839,19.3102,19.3102,19.2606,19.2409,19.3496,19.5565,19.8258,20.1779,20.5857,21.0164,21.3846,21.5556,21.6379,21.5556,21.5556,21.5556,21.5951,21.6345,21.7331,21.9467,22.1606,22.2956,22.2956,22.4696,22.591,22.6669,22.6077,22.545,22.5121,22.5121,22.5683,22.6669,22.7817,22.8409,22.8409,22.8773,22.8971,22.8971,22.9329,22.9563,22.9563,22.9563,22.8971,22.7853,22.7458,22.6669,22.545,22.3745,22.2956,22.2759,22.1049,22.0225,22.0225,22.0225,21.9462,21.8459,22.0429,22.0042,21.9044,22.0612,21.9466,21.7527,21.6749,21.6542,21.6542,21.6542,21.6542,21.6715,21.7494,21.9468,22.0845,22.061,22.1586,22.2541,22.1577,22.1967,22.2956,22.4302,22.4894,22.545,22.6436,22.588,22.4924,22.453,22.3543,22.2759,22.1969,22.0031,21.8484,21.8055,21.7134,21.6542,21.6542,21.6542,21.6345,21.5951,21.5951,21.5753,21.5359,21.6169,21.657,21.657,21.7296,21.7721,21.7688,21.6901,21.6768,18.1522,18.34,18.4781,18.6294,18.7704,18.8691,18.8691,18.9647,19.0604,19.0669,19.4149,19.7472,19.9248,20.2964,20.7796,21.3418,21.5556,21.6937,21.8286,21.8484,21.7497,21.4799,21.5753,21.6542,21.674,22.0422,22.2956,22.2956,22.5486,22.6669,22.5253,22.6472,22.6436,22.5121,22.5121,22.5121,22.5288,22.5253,22.5319,22.5319,22.6633,22.7393,22.7458,22.8971,22.9563,22.9563,22.9563,22.9563,22.9365,22.7853,22.7261,22.6866,22.414,22.2956,22.2592,21.9865,21.8913,21.8913,21.8913,22.0617,22.2784,22.1426,22.2948,22.4695,22.1817,22.0824,22.0266,21.7326,21.6542,21.6542,21.6542,21.6542,21.7291,22.0071,22.0824,22.1791,22.4744,22.3145,22.1592,22.2985,22.2013,22.1409,22.2789,22.4135,22.5121,22.5288,22.5121,22.453,22.3184,22.2921,22.1969,21.9242,21.8681,21.8089,21.674,21.6542,21.6542,21.6542,21.6542,21.5951,21.4635,21.457,21.3846,21.2499,21.52,21.6533,21.6533,21.9481,22.0801,22.0618,21.7873,21.7309,17.8299,17.9455,18.0638,18.3992,18.5241,18.5833,18.6783,18.7346,18.8003,18.8954,19.1847,19.4974,19.7504,20.2141,20.6613,20.9737,21.3057,21.4964,21.4603,21.5393,21.5161,21.3254,21.4241,21.5556,21.6511,21.9668,22.2395,22.4135,22.6042,22.7458,22.805,22.8409,22.8014,22.6436,22.6436,22.6077,22.5121,22.5121,22.5121,22.5121,22.5683,22.5844,22.5844,22.6436,22.6633,22.6633,22.6633,22.6633,22.6633,22.6042,22.5844,22.5683,22.371,22.2956,22.2759,22.0851,22.0028,22.0044,22.025,22.0809,22.238,22.5858,22.6461,22.5852,22.6673,22.5663,22.3332,22.0263,21.9434,21.8882,21.7121,21.7929,21.9657,22.0833,22.4116,22.6868,22.5852,22.6432,22.6248,22.3757,22.272,22.258,22.2946,22.4135,22.5486,22.6239,22.5647,22.4924,22.4332,22.3513,22.2198,22.0225,21.9273,21.8089,21.6708,21.6542,21.6896,21.7907,21.787,21.8092,21.8678,21.8701,21.8528,21.7918,21.7902,21.7911,21.7911,21.7887,21.8463,21.9453,21.847,21.8701,17.209,17.399,17.6423,17.9432,18.0834,18.1932,18.3379,18.3467,18.3824,18.5797,18.8493,19.1686,19.5565,20.0234,20.4509,20.7435,21.0295,21.2301,21.2236,21.3057,21.3254,21.2466,21.3617,21.4964,21.6345,21.8712,22.1176,22.4135,22.5647,22.7064,22.8014,22.8014,22.7853,22.7261,22.6275,22.588,22.588,22.5319,22.5121,22.5121,22.5121,22.5121,22.5121,22.5121,22.5121,22.5121,22.5121,22.5121,22.5121,22.5121,22.5121,22.5091,22.4105,22.371,22.3548,22.1606,22.1248,22.1579,22.1202,22.1939,22.3902,22.7643,22.8042,22.7417,22.8382,22.7214,22.5123,22.2575,22.1776,22.1423,22.0039,22.0981,22.2759,22.3938,22.7232,23.0142,22.9006,22.9581,22.9382,22.6242,22.4878,22.395,22.3905,22.4516,22.5486,22.6472,22.5647,22.5121,22.5121,22.4302,22.3118,22.1571,22.0619,21.9238,21.7497,21.7691,21.8285,21.8716,21.9284,21.9429,21.9453,21.944,21.9056,21.8121,21.7927,21.7886,21.7886,21.7911,21.8283,21.9449,21.8313,21.869,16.3183,16.6993,17.1906,17.2304,17.4427,17.6791,17.8305,17.7971,17.8214,18.1175,18.4079,18.7806,19.3496,19.7113,20.0992,20.6613,20.7599,20.8783,21.171,21.2269,21.2236,21.2269,21.3452,21.4964,21.6379,21.7695,21.9668,22.2561,22.4135,22.5091,22.5121,22.5121,22.588,22.7028,22.4534,22.4302,22.7064,22.5647,22.4924,22.4924,22.4924,22.4889,22.5056,22.5056,22.5056,22.5056,22.5056,22.5091,22.4924,22.4924,22.4924,22.4924,22.4924,22.4924,22.4696,22.1981,22.2014,22.2982,22.1619,22.4084,22.7653,22.6238,22.78,22.9579,22.6675,22.5868,22.5514,22.3935,22.334,22.3753,22.5101,22.5697,22.6492,22.9581,23.0359,23.1156,23.4231,23.2496,23.0551,23.0377,22.8015,22.5856,22.5664,22.5471,22.5263,22.5056,22.5121,22.5121,22.5121,22.5121,22.453,22.3153,22.2956,22.1807,21.905,22.004,22.0447,21.8852,22.0212,21.9608,21.6925,21.6719,21.5204,21.2244,21.501,21.635,21.635,21.9056,22.0664,22.0599,21.7737,21.7118,16.4209,16.3771,16.4192,16.9956,17.2846,17.4347,17.4686,17.5014,17.5732,17.7618,18.0702,18.4218,18.7937,19.3527,19.8459,20.1221,20.51,20.7994,20.8947,21.092,21.1907,21.0756,21.2826,21.4175,21.3452,21.3814,21.5195,21.8055,22.0619,22.2987,22.4889,22.6042,22.6239,22.5647,22.4924,22.3907,22.2557,22.2198,22.1965,22.1965,22.1965,22.2592,22.3513,22.3513,22.3513,22.3513,22.3513,22.2987,22.1965,22.1965,22.1965,22.1965,22.1965,22.1965,22.2363,22.4901,22.4704,22.3569,22.5528,22.6839,22.8038,22.8824,22.9557,22.9973,22.9206,22.8994,22.84,22.5661,22.5088,22.4681,22.277,22.392,22.5857,22.6848,22.861,23.032,23.1328,23.2713,23.3431,23.2093,23.31,23.2874,22.9363,22.8615,22.7845,22.548,22.5121,22.5121,22.5121,22.5121,22.453,22.3153,22.2,22.1192,22.0466,21.9651,22.0019,22.1992,22.1425,22.0995,22.1387,21.9102,21.75,21.6745,21.5212,21.4576,21.4576,21.4234,21.4627,21.579,21.4977,21.5974,15.555,15.5068,15.5531,16.2377,16.368,16.4498,16.9028,16.8578,16.8403,17.2516,17.6554,18.0792,18.5548,19.0564,19.5366,19.9275,20.2335,20.4672,20.5856,20.7994,20.9375,20.9177,20.9506,20.9539,20.8783,20.9145,21.069,21.3649,21.5951,21.8515,22.1409,22.2395,22.3184,22.4135,22.3543,22.2754,22.1838,22.1838,22.1409,22.0817,22.0817,22.1211,22.2,22.2,22.2,22.2,22.2,22.1606,22.0817,22.0817,22.0817,22.1021,22.2202,22.2028,22.1219,22.39,22.4297,22.353,22.5463,22.6103,22.6056,22.7015,22.6828,22.6257,22.6257,22.6257,22.6084,22.5658,22.5673,22.552,22.4898,22.6274,22.7605,22.7605,22.8805,23.0182,23.0182,23.168,23.2878,23.2447,23.3466,23.3299,23.0513,22.9363,22.8413,22.6436,22.5479,22.5121,22.5121,22.5121,22.4727,22.3907,22.2592,22.16,22.0979,22.1382,22.1779,22.2357,22.0832,22.0086,22.0269,21.7931,21.5933,21.4577,21.2885,21.1508,21.0938,20.9918,20.9918,21.0938,21.0938,21.1508,14.0745,14.2934,14.676,15.1601,15.0823,15.1441,0.0,15.9864,15.851,16.5537,17.068,17.6087,18.343,18.7042,19.1238,19.8444,19.9274,19.9987,20.2763,20.4475,20.5856,20.6613,20.4278,20.2568,20.2765,20.3917,20.5857,20.875,21.0361,21.263,21.5985,21.6148,21.8121,22.2167,22.1246,22.1246,22.2198,22.2,22.1409,22.0457,22.0225,22.0225,22.0619,22.0619,22.0585,22.0817,22.0837,22.0778,22.0812,22.0827,22.0831,22.1171,22.3948,22.3132,22.0582,22.1197,22.2343,22.3337,22.3147,22.2944,22.2739,22.2547,22.1405,22.0214,22.0214,22.0428,22.1213,22.3925,22.4902,22.5852,22.8398,22.9183,22.9397,22.9183,22.9183,22.9183,22.9183,22.954,23.0324,23.1703,23.1484,23.0753,23.0304,22.9183,22.7975,22.7453,22.6039,22.5089,22.4732,22.4696,22.4696,22.4696,22.3513,22.2162,22.1213,22.3548,22.3917,22.1416,21.9298,21.7552,21.5961,21.3985,21.1651,20.8746,20.8369,20.7584,20.6228,20.6228,20.6228,20.6228,20.6228,20.528,0.0,0.0,0.0,0.0,0.0,0.0,0.0,15.0209,15.1664,15.4417,15.9006,16.4555,17.1014,17.8503,18.5424,19.0969,19.5738,19.9055,20.0053,20.237,20.3128,20.1155,19.8296,19.6915,19.8293,19.8622,20.0003,20.2701,20.4475,20.7599,21.2828,21.4175,21.5753,21.7726,21.8681,21.8681,21.7726,21.6774,21.6542,21.7331,21.6148,21.6971,21.9076,21.9076,21.9633,22.0824,22.1013,22.098,22.1004,22.1053,22.101,22.1001,22.1616,22.0787,21.9428,22.3387,22.4135,22.3167,22.1784,22.1221,22.0835,21.8337,21.7317,21.7124,21.7124,21.7909,21.9072,21.9622,22.1619,22.3546,22.2783,22.3546,22.4117,22.2926,22.2569,22.2569,22.2569,22.5686,22.8375,22.8589,23.2711,23.499,23.2453,23.1691,23.0363,22.6488,22.5691,22.4512,22.1954,22.1571,22.1571,22.1571,22.1409,22.1169,22.1011,22.1614,22.2189,22.2762,21.8838,21.5983,21.4434,21.0295,20.7206,20.5259,20.3924,20.3139,20.2945,20.2945,20.2945,20.2945,20.2945,20.1375,0.0,0.0,0.0,0.0,0.0,0.0,0.0,0.0,0.0,0.0,0.0,15.8474,16.6301,0.0,17.7623,18.6432,19.0725,19.4055,19.7331,19.8663,19.8064,19.514,19.3562,19.2905,19.3724,19.4382,19.5763,19.7902,19.9445,20.2173,20.6645,20.8224,21.0295,21.3254,21.5359,21.6148,21.559,21.5391,21.5391,21.559,21.6337,21.6139,21.5592,21.7697,21.7896,21.6549,21.8122,21.8868,21.8883,21.9459,21.9481,21.8866,22.0266,22.0406,22.0028,22.2361,22.2782,22.1788,21.9254,21.7909,21.6718,21.3628,21.2058,21.1701,21.2436,21.3221,21.4363,21.6696,21.9051,22.0835,22.0785,22.1976,22.2761,22.1213,22.0785,22.0785,22.0785,22.2547,22.4545,22.5307,22.8777,23.1149,23.0318,22.8791,22.7267,22.5685,22.4927,22.3566,22.1236,22.22,22.3512,22.4311,22.5064,22.5875,22.6651,22.4697,22.335,22.3154,21.6553,21.2272,21.1508,20.7033,20.3924,20.3139,20.0785,19.9235,19.843,19.7717,19.7288,19.7288,19.5719,19.4149,0.0,0.0,0.0,0.0,0.0,0.0,0.0,0.0,0.0,0.0,0.0,0.0,0.0,0.0,0.0,18.1048,18.5067,18.872,19.427,19.3576,19.2003,19.0544,19.0177,19.0213,19.07,19.2313,19.3935,19.5336,19.6922,19.887,20.1204,20.2759,20.4886,20.8191,21.168,21.3627,21.3627,21.5179,21.5541,21.4777,21.6911,0.0,21.3248,21.6704,21.6143,21.2436,21.5587,21.6548,21.6338,21.8274,21.8324,21.7292,21.8458,21.9072,21.9072,21.9287,21.9643,21.9429,21.5555,21.3414,21.1865,20.8746,20.6799,20.6065,20.739,20.8032,0.0,21.2843,21.539,21.7503,21.8716,22.0214,22.0977,21.9879,21.9287,21.9072,21.9429,21.9429,21.9836,22.1383,22.3118,22.4745,22.6683,22.4877,22.3707,22.5305,22.4508,22.3371,22.238,22.395,22.5874,22.7628,22.8443,22.9373,23.1114,22.7258,22.4125,22.2748,21.4791,20.9368,20.7798,20.373,20.1213,20.0571,19.7879,19.5719,19.4577,19.2936,19.2222,19.208,18.6343,18.4557,0.0,0.0,0.0,0.0,0.0,0.0,0.0,0.0,0.0,0.0,0.0,0.0,0.0,0.0,0.0,0.0,17.9048,18.6108,18.9932,18.6945,18.5804,18.9507,18.8973,18.912,19.1319,19.4179,19.6531,19.7865,19.9449,20.0639,20.0999,20.2533,0.0,0.0,0.0,21.0552,21.0552,21.3082,21.4982,21.6156,21.5142,21.5211,21.5979,21.6387,21.4995,21.2242,21.6546,21.6953,21.4985,21.8908,22.0439,21.9866,21.4627,21.2486,21.2629,21.3985,21.5576,21.5747,20.9918,0.0,0.0,20.3873,20.2731,20.2568,20.2731,20.371,20.4903,20.5473,20.8755,21.2272,21.2486,21.3628,21.4791,21.4577,21.3649,21.2843,21.4363,21.4577,21.4984,21.6532,21.8266,22.0247,22.3144,22.3312,22.3721,22.5479,22.5455,22.5862,22.7035,22.5076,22.4731,22.7633,22.5696,0.0,22.6255,22.3376,22.1447,22.1059,21.6147,21.0153,20.3159,20.0999,19.8644,19.5719,19.4078,19.3059,19.2917,19.1295,19.06,19.0191,17.5398,17.2459,0.0,0.0,0.0,0.0,0.0,0.0,0.0,0.0,0.0,0.0,0.0,0.0,0.0,0.0,0.0,0.0,16.9873,17.5372,17.7733,17.9224,18.141,18.5084,18.4249,18.408,18.6062,18.7394,18.9042,19.1519,19.3149,19.5143,19.806,19.9615,20.1359,20.3543,20.6642,20.8757,20.975,21.0908,21.1852,21.2443,21.364,21.3034,21.1082,21.3805,21.2848,20.9362,21.3008,21.3809,21.304,21.557,21.6147,21.5005,0.0,0.0,0.0,0.0,21.2079,21.2629,20.7186,20.4709,20.3302,19.9235,19.7859,19.8093,19.9021,20.0428,20.1978,20.3741,20.6401,20.8776,20.8776,20.9939,21.0887,20.9939,20.9368,20.8939,20.9561,20.9724,20.9939,21.056,21.2629,0.0,21.5005,21.5769,21.7528,22.1015,22.3191,22.4522,22.5265,22.6456,22.8247,23.0529,23.1097,23.0518,22.8422,22.6226,0.0,0.0,0.0,20.8797,20.3547,20.1764,0.0,0.0,0.0,18.63,18.4374,17.8894,0.0,0.0,16.717,16.4587,0.0,0.0,0.0,0.0,0.0,0.0,0.0,0.0,0.0,0.0,0.0,0.0,0.0,0.0,0.0,0.0,16.0411,16.5912,16.7069,17.1724,17.6385,17.9836,18.0019,18.0241,18.116,18.234,18.4235,18.6916,18.8558,19.1197,19.5126,19.6322,19.8857,20.2528,20.4852,20.6826,20.8363,20.9568,21.0158,21.0088,21.2254,21.1715,20.8572,21.1905,21.1117,20.7369,21.0309,21.0903,20.9894,21.1898,21.1651,20.9775,20.5871,20.4301,20.4535,20.6034,20.7584,20.8205,20.3924,20.1549,19.9857,19.5148,19.3364,19.3293,19.4953,19.5952,19.7146,20.0194,20.2568,20.4301,20.4709,20.6014,20.7013,20.6207,20.5871,20.5657,20.6065,20.5871,20.5657,20.6065,20.685,20.742,20.7227,20.9154,21.2672,21.7713,22.081,22.3312,22.5447,22.8398,23.1153,23.3082,23.4605,23.363,22.9183,22.6685,22.2596,21.6532,21.0917,20.685,20.4475,20.1569,19.8664,19.5381,18.746,18.0771,0.0,0.0,0.0,0.0,0.0,0.0,0.0,0.0,0.0,0.0,0.0,0.0,0.0,0.0,0.0,0.0,0.0,0.0,0.0,0.0,0.0,0.0,0.0,0.0,16.081,16.4978,16.9761,17.445,17.7741,17.9365,17.8646,18.2799,18.622,18.7806,18.9393,19.1163,19.3184,19.3332,19.437,19.6542,20.0616,20.3697,20.5263,20.9327,21.1491,21.1491,21.1483,21.1483,21.1327,21.1483,20.9926,20.7437,21.0282,20.9168,20.5285,20.8204,20.8369,20.6442,20.002,19.7684,19.7898,19.9429,20.0999,20.1784,19.8664,19.7522,19.6757,19.1956,18.9458,18.8441,19.0029,18.9511,18.9012,19.2132,19.5148,19.7879,19.9409,20.0999,20.2568,20.4118,20.3119,20.2568,20.4118,20.3119,20.2568,20.4118,20.0785,19.8664,20.1732,20.6014,21.1273,21.7515,21.9891,0.0,23.1353,23.0948,23.1351,23.4631,23.2276,22.9205,22.5901,22.1405,21.8123,21.6339,20.8755,20.4475,20.4332,19.8501,19.3721,19.06,18.5748,17.8436,16.8628,0.0,0.0,0.0,0.0,0.0,0.0,0.0,0.0,0.0,0.0,0.0,0.0,0.0,0.0,0.0,0.0,0.0,0.0,0.0,0.0,0.0,0.0,0.0,0.0,15.8401,16.4973,16.7597,16.7969,16.7129,16.4758,16.7875,17.1157,17.3742,17.9254,18.3704,18.652,18.8609,19.1014,19.3805,19.7265,19.9808,20.1369,20.3913,20.53,20.53,20.53,20.53,20.53,20.6258,20.5632,20.3944,20.5857,20.4685,20.1369,20.2387,19.8858,19.2346,18.8155,18.6443,18.68,18.9387,19.0653,19.1419,19.3507,19.2865,19.0367,18.5658,18.3803,18.3589,18.5177,18.6033,18.7104,19.0225,19.2579,19.4577,19.6147,19.6932,19.7502,19.8073,19.7717,19.7502,19.8073,19.7717,19.7502,19.8073,19.4363,19.2436,19.6504,20.0428,20.4709,20.9939,21.5555,22.0999,22.5686,22.8612,23.0538,23.168,23.0752,22.8041,22.2783,22.1021,21.7146,21.0346,20.5494,20.1784,19.9806,19.4577,19.0886,18.8797,18.6157,17.7792,16.3523,0.0,0.0,0.0,0.0,0.0,0.0,0.0,0.0,0.0,0.0,0.0,0.0,0.0,0.0,0.0,0.0,0.0,0.0,0.0,0.0,0.0,0.0,0.0,0.0,0.0,0.0,16.254,16.1882,0.0,15.5318,15.6729,15.8727,16.0756,16.7178,17.31,17.7952,18.1216,18.514,19.001,19.208,19.4149,19.6289,19.7859,19.8858,19.9429,20.002,20.0214,20.0376,20.1998,20.214,20.1213,20.2192,20.0836,19.7717,19.4344,18.8422,18.1198,17.9219,17.772,17.715,18.0235,18.1805,18.2857,18.7066,18.7138,18.4944,18.1948,17.8666,17.6097,17.7113,17.7756,17.8969,18.3232,18.6372,18.9064,19.1794,19.2865,19.3293,19.3293,19.3293,19.3169,19.2579,19.2027,19.1314,19.0153,18.7513,18.6556,19.0002,19.3316,19.7289,20.252,20.9524,21.6147,22.0835,22.5686,22.8777,22.916,22.8826,22.628,22.0428,21.8858,21.4791,20.6421,20.2925,19.9235,19.4953,19.0814,18.6604,18.2162,17.8933,17.0813,0.0,0.0,0.0,0.0,0.0,0.0,0.0,0.0,0.0,0.0,0.0,0.0,0.0,0.0,0.0,0.0,0.0,0.0,0.0,0.0,0.0,0.0,0.0,0.0,0.0,0.0,0.0,15.8489,15.8703,0.0,0.0,0.0,0.0,14.9438,15.3962,16.0027,16.7661,17.0926,17.6293,18.4339,18.473,18.6443,18.9815,19.1366,19.2917,19.4363,19.5952,19.6523,19.6757,19.8287,19.8838,19.8838,19.8838,19.7126,19.3649,18.4017,17.7292,17.2994,17.2566,17.0569,16.8445,17.1568,17.3565,17.5295,17.879,18.0021,17.9861,17.9807,17.36,16.6124,16.5839,16.4752,0.0,0.0,17.6507,18.1377,18.6229,18.8655,18.9887,18.9958,18.9958,18.953,18.7941,18.6461,18.4392,18.0949,18.0235,18.0605,18.17,0.0,18.9157,19.5384,20.1982,20.9133,21.7124,22.2355,22.5901,22.7234,22.6043,22.3332,21.8694,21.5576,21.0917,20.4454,20.1213,19.6504,19.0315,18.6818,18.0574,17.1132,16.4889,0.0,0.0,0.0,0.0,0.0,0.0,0.0,0.0,0.0,0.0,0.0,0.0,0.0,0.0,0.0,0.0,0.0,0.0,0.0,0.0,0.0,0.0,0.0,0.0,0.0,0.0,13.6354,14.092,14.5273,14.3703,13.9779,0.0,0.0,0.0,0.0,0.0,0.0,15.3121,15.5231,16.0439,16.9604,17.2155,17.6579,18.3303,18.4944,18.589,18.6319,18.6675,18.689,18.6961,18.8512,18.9207,18.9207,18.9207,18.8065,18.5301,17.2298,16.552,16.2683,15.5603,15.3035,15.3748,15.6974,15.7601,15.7871,16.4593,16.6162,16.5037,16.3824,16.1042,15.722,15.2464,0.0,0.0,0.0,0.0,17.2047,17.9094,18.209,18.366,18.482,18.5106,18.4677,18.3089,18.2447,17.9807,17.1958,17.0406,17.0389,17.0424,17.2385,0.0,18.6553,19.4611,20.2945,21.2058,21.8502,22.2212,22.2569,22.2212,22.0642,21.7124,21.3842,20.9347,20.2925,19.7502,19.2132,18.6995,18.036,17.2722,16.3966,0.0,0.0,0.0,0.0,0.0,0.0,0.0,0.0,0.0,0.0,0.0,0.0,0.0,0.0,0.0,0.0,0.0,0.0,0.0,0.0,0.0,0.0,0.0,0.0,0.0,0.0,0.0,12.7137,13.1845,13.4485,13.2643,12.9231,0.0,0.0,0.0,0.0,0.0,0.0,0.0,0.0,0.0,15.596,15.8528,16.2666,16.8605,17.2244,17.4741,17.6114,17.888,18.0521,18.1234,18.2875,18.3571,18.3571,18.3571,17.8808,17.0263,16.1612,15.5476,15.0838,0.0,0.0,0.0,0.0,14.4987,14.4973,15.0823,15.2265,15.1266,14.9682,0.0,0.0,0.0,0.0,0.0,0.0,0.0,16.4937,17.1323,17.6561,18.0074,18.0128,18.0164,17.9522,17.731,17.1388,16.4827,15.921,15.6965,15.6558,15.8055,16.0659,0.0,0.0,0.0,19.7665,20.7206,21.4984,22.0072,22.0807,22.0214,21.8858,21.6318,21.2629,20.742,20.0376,19.481,18.7941,17.9789,17.3154,16.4354,0.0,0.0,0.0,0.0,0.0,0.0,0.0,0.0,0.0,0.0,0.0,0.0,0.0,0.0,0.0,0.0,0.0,0.0,0.0,0.0,0.0,0.0,0.0,0.0,0.0,0.0,0.0,0.0,0.0,12.4568,12.4996,0.0,0.0,0.0,0.0,0.0,0.0,0.0,0.0,0.0,0.0,0.0,0.0,0.0,14.7342,15.1195,15.6816,16.1097,16.4055,16.9675,17.3226,17.4741,17.6222,17.7292,17.7809,17.6293,0.0,15.3366,15.0782,0.0,0.0,0.0,0.0,0.0,0.0,0.0,0.0,0.0,0.0,0.0,0.0,0.0,0.0,0.0,0.0,0.0,0.0,0.0,0.0,0.0,0.0,17.5892,17.4013,17.4077,17.3257,16.8502,15.6814,14.6801,14.5351,14.3105,14.2273,0.0,0.0,0.0,0.0,0.0,0.0,20.214,21.2272,21.8908,22.0072,21.9287,21.7695,21.5961,21.1273,20.53,19.7665,19.1528,18.2751,17.0745,16.5893,0.0,0.0,0.0,0.0,0.0,0.0,0.0,0.0,0.0,0.0,0.0,0.0,0.0,0.0,0.0,0.0,0.0,0.0,0.0,0.0,0.0,0.0,0.0,0.0,0.0,0.0,0.0,0.0,0.0,0.0,0.0,0.0,0.0,0.0,0.0,0.0,0.0,0.0,0.0,0.0,0.0,0.0,0.0,0.0,0.0,0.0,0.0,0.0,0.0,0.0,15.1679,15.3677,15.516,15.5517,15.7799,16.1026,15.1893,14.6914,14.4716,13.6639,0.0,0.0,0.0,0.0,0.0,0.0,0.0,0.0,0.0,0.0,0.0,0.0,0.0,0.0,0.0,0.0,0.0,0.0,0.0,0.0,0.0,0.0,16.1933,16.0406,16.3363,16.2851,14.9464,0.0,0.0,0.0,0.0,0.0,0.0,0.0,0.0,0.0,0.0,0.0,19.7107,21.0132,21.8123,21.7124,21.7909,21.7338,21.4413,20.8562,20.2925,19.7665,18.4302,17.2797,0.0,0.0,0.0,0.0,0.0,0.0,0.0,0.0,0.0,0.0,0.0,0.0,0.0,0.0,0.0,0.0,0.0,0.0,0.0,0.0,0.0,0.0,0.0,0.0,0.0,0.0,0.0,0.0,0.0,0.0,0.0,0.0,0.0,0.0,0.0,0.0,0.0,0.0,0.0,0.0,0.0,0.0,0.0,0.0,0.0,0.0,0.0,0.0,0.0,0.0,0.0,0.0,0.0,0.0,0.0,0.0,0.0,0.0,13.9008,13.143,0.0,0.0,0.0,0.0,0.0,0.0,0.0,0.0,0.0,0.0,0.0,0.0,0.0,0.0,0.0,0.0,0.0,0.0,0.0,0.0,0.0,0.0,0.0,0.0,0.0,0.0,0.0,0.0,0.0,0.0,0.0,0.0,0.0,0.0,0.0,0.0,0.0,0.0,0.0,0.0,19.1198,20.6992,21.6889,21.6175,21.6746,21.6696,21.5198,20.6992,19.9215,19.2884,17.8451,0.0,0.0,0.0,0.0,0.0,0.0,0.0,0.0,0.0,0.0,0.0,0.0,0.0,0.0,0.0,0.0,0.0,0.0,0.0,0.0,0.0,0.0,0.0,0.0,0.0,0.0,0.0,0.0,0.0,0.0,0.0,0.0,0.0,0.0,0.0,0.0,0.0,0.0,0.0,0.0,0.0,0.0,0.0,0.0,0.0,0.0,0.0,0.0,0.0,0.0,0.0,0.0,0.0,0.0,0.0,0.0,0.0,0.0,0.0,12.8232,11.9098,0.0,0.0,0.0,0.0,0.0,0.0,0.0,0.0,0.0,0.0,0.0,0.0,0.0,0.0,0.0,0.0,0.0,0.0,0.0,0.0,0.0,0.0,0.0,0.0,0.0,0.0,0.0,0.0,0.0,0.0,0.0,0.0,0.0,0.0,0.0,0.0,0.0,0.0,0.0,0.0,18.667,20.4126,21.5747,21.6197,21.6553,21.6125,21.477,20.5494,19.5719,18.6514,17.2047,0.0,0.0,0.0,0.0,0.0,0.0,0.0,0.0,0.0,0.0,0.0,0.0,0.0,0.0,0.0,0.0,0.0,0.0,0.0,0.0,0.0,0.0,0.0,0.0,0.0,0.0,0.0,0.0,0.0,0.0,0.0,0.0,0.0,0.0,0.0,0.0,0.0,0.0,0.0,0.0,0.0,0.0,0.0,0.0,0.0,0.0,0.0,0.0,0.0,0.0,0.0,0.0,0.0,0.0,0.0,0.0,0.0,0.0,0.0,0.0,0.0,0.0,0.0,0.0,0.0,0.0,0.0,0.0,0.0,0.0,0.0,0.0,0.0,0.0,0.0,0.0,0.0,0.0,0.0,0.0,0.0,0.0,0.0,0.0,0.0,0.0,0.0,0.0,0.0,0.0,0.0,0.0,0.0,0.0,0.0,0.0,0.0,0.0,0.0,0.0,0.0,18.5976,20.2937,21.4577,21.5961,21.7481,21.5983,21.0316,20.3496,19.3792,18.0164,0.0,0.0,0.0,0.0,0.0,0.0,0.0,0.0,0.0,0.0,0.0,0.0,0.0,0.0,0.0,0.0,0.0,0.0,0.0,0.0,0.0,0.0,0.0,0.0,0.0,0.0,0.0,0.0,0.0,0.0,0.0,0.0,0.0,0.0,0.0,0.0,0.0,0.0,0.0,0.0,0.0,0.0,0.0,0.0,0.0,0.0,0.0,0.0,0.0,0.0,0.0,0.0,0.0,0.0,0.0,0.0,0.0,0.0,0.0,0.0,0.0,0.0,0.0,0.0,0.0,0.0,0.0,0.0,0.0,0.0,0.0,0.0,0.0,0.0,0.0,0.0,0.0,0.0,0.0,0.0,0.0,0.0,0.0,0.0,0.0,0.0,0.0,0.0,0.0,0.0,0.0,0.0,0.0,0.0,0.0,0.0,0.0,0.0,0.0,0.0,0.0,0.0,17.8883,19.9053,21.3078,21.4627,21.5362,21.4199,21.0938,20.1193,19.0134,17.7809,0.0,0.0,0.0,0.0,0.0,0.0,0.0,0.0,0.0,0.0,0.0,0.0,0.0,0.0,0.0,0.0,0.0,0.0,0.0,0.0,0.0,0.0,0.0,0.0,0.0,0.0,0.0,0.0,0.0,0.0,0.0,0.0,0.0,0.0,0.0,0.0,0.0,0.0,0.0,0.0,0.0,0.0,0.0,0.0,0.0,0.0,0.0,0.0,0.0,0.0,0.0,0.0,0.0,0.0,0.0,0.0,0.0,0.0,0.0,0.0,0.0,0.0,0.0,0.0,0.0,0.0,0.0,0.0,0.0,0.0,0.0,0.0,0.0,0.0,0.0,0.0,0.0,0.0,0.0,0.0,0.0,0.0,0.0,0.0,0.0,0.0,0.0,0.0,0.0,0.0,0.0,0.0,0.0,0.0,0.0,0.0,0.0,0.0,0.0,0.0,0.0,0.0,17.5282,19.5351,20.9775,21.2864,21.3057,21.1844,20.899,19.9643,18.8084,17.4242,0.0,0.0,0.0,0.0,0.0,0.0,0.0,0.0,0.0,0.0,0.0,0.0,0.0,0.0,0.0,0.0,0.0,0.0,0.0,0.0,0.0,0.0,0.0,0.0,0.0,0.0,0.0,0.0,0.0,0.0,0.0,0.0,0.0,0.0,0.0,0.0,0.0,0.0,0.0,0.0,0.0,0.0,0.0,0.0,0.0,0.0,0.0,0.0,0.0,0.0,0.0,0.0,0.0,0.0,0.0,0.0,0.0,0.0,0.0,0.0,0.0,0.0,0.0,0.0,0.0,0.0,0.0,0.0,0.0,0.0,0.0,0.0,0.0,0.0,0.0,0.0,0.0,0.0,0.0,0.0,0.0,0.0,0.0,0.0,0.0,0.0,0.0,0.0,0.0,0.0,0.0,0.0,0.0,0.0,0.0,0.0,0.0,0.0,0.0,0.0,0.0,0.0,17.7688,19.2709,20.4495,21.0917,21.1487,20.899,20.2568,19.9021,18.8531,0.0,0.0,0.0,0.0,0.0,0.0,0.0,0.0,0.0,0.0,0.0,0.0,0.0,0.0,0.0,0.0,0.0,0.0,0.0,0.0,0.0,0.0,0.0,0.0,0.0,0.0,0.0,0.0,0.0,0.0,0.0,0.0,0.0,0.0,0.0,0.0,0.0,0.0,0.0,0.0,0.0,0.0,0.0,0.0,0.0,0.0,0.0,0.0,0.0,0.0,0.0,0.0,0.0,0.0,0.0,0.0,0.0,0.0,0.0,0.0,0.0,0.0,0.0,0.0,0.0,0.0,0.0,0.0,0.0,0.0,0.0,0.0,0.0,0.0,0.0,0.0,0.0,0.0,0.0,0.0,0.0,0.0,0.0,0.0,0.0,0.0,0.0,0.0,0.0,0.0,0.0,0.0,0.0,0.0,0.0,0.0,0.0,0.0,0.0,0.0,0.0,0.0,0.0,17.1253,18.8049,20.1193,0.0,20.8369,20.6656,20.2374,19.6166,18.6033,17.0905,0.0,0.0,0.0,0.0,0.0,0.0,0.0,0.0,0.0,0.0,0.0,0.0,0.0,0.0,0.0,0.0,0.0,0.0,0.0,0.0,0.0,0.0,0.0,0.0,0.0,0.0,0.0,0.0,0.0,0.0,0.0,0.0,0.0,0.0,0.0,0.0,0.0,0.0,0.0,0.0,0.0,0.0,0.0,0.0,0.0,0.0,0.0,0.0,0.0,0.0,0.0,0.0,0.0,0.0,0.0,0.0,0.0,0.0,0.0,0.0,0.0,0.0,0.0,0.0,0.0,0.0,0.0,0.0,0.0,0.0,0.0,0.0,0.0,0.0,0.0,0.0,0.0,0.0,0.0,0.0,0.0,0.0,0.0,0.0,0.0,0.0,0.0,0.0,0.0,0.0,0.0,0.0,0.0,0.0,0.0,0.0,0.0,0.0,0.0,0.0,0.0,0.0,0.0,18.4476,19.7879,0.0,20.5086,20.3516,19.9643,19.3811,18.4178,16.9746,0.0,0.0,0.0,0.0,0.0,0.0,0.0,0.0,0.0,0.0,0.0,0.0,0.0,0.0,0.0,0.0,0.0,0.0,0.0,0.0,0.0,0.0,0.0,0.0,0.0,0.0,0.0,0.0,0.0,0.0,0.0,0.0,0.0,0.0,0.0,0.0,0.0,0.0,0.0,0.0,0.0,0.0,0.0,0.0,0.0,0.0,0.0,0.0,0.0,0.0,0.0,0.0,0.0,0.0,0.0,0.0,0.0,0.0,0.0,0.0,0.0,0.0,0.0,0.0,0.0,0.0,0.0,0.0,0.0,0.0,0.0,0.0,0.0,0.0,0.0,0.0,0.0,0.0,0.0,0.0,0.0,0.0,0.0,0.0,0.0,0.0,0.0,0.0,0.0,0.0,0.0,0.0,0.0,0.0,0.0,0.0,0.0,0.0,0.0,0.0,0.0,0.0,0.0,18.1687,19.4273,20.0983,20.1569,19.9806,19.5148,19.1742,18.2537,16.5537,15.2393,0.0,0.0,0.0,0.0,0.0,0.0,0.0,0.0,0.0,0.0,0.0,0.0,0.0,0.0,0.0,0.0,0.0,0.0,0.0,0.0,0.0,0.0,0.0,0.0,0.0,0.0,0.0,0.0,0.0,0.0,0.0,0.0,0.0,0.0,0.0,0.0,0.0,0.0,0.0,0.0,0.0,0.0,0.0,0.0,0.0,0.0,0.0,0.0,0.0,0.0,0.0,0.0,0.0,0.0,0.0,0.0,0.0,0.0,0.0,0.0,0.0,0.0,0.0,0.0,0.0,0.0,0.0,0.0,0.0,0.0,0.0,0.0,0.0,0.0,0.0,0.0,0.0,0.0,0.0,0.0,0.0,0.0,0.0,0.0,0.0,0.0,0.0,0.0,0.0,0.0,0.0,0.0,0.0,0.0,0.0,0.0,0.0,0.0,0.0,0.0,0.0,0.0,17.8932,18.986,19.7483,19.8469,19.6932,19.3488,18.8155,17.9094,16.5323,15.0324,0.0,0.0,0.0,0.0,0.0,0.0,0.0,0.0,0.0,0.0,0.0,0.0,0.0,0.0,0.0,0.0,0.0,0.0,0.0,0.0,0.0,0.0,0.0,0.0,0.0,0.0,0.0,0.0,0.0,0.0,0.0,0.0,0.0,0.0,0.0,0.0,0.0,0.0,0.0,0.0,0.0,0.0,0.0,0.0,0.0,0.0,0.0,0.0,0.0,0.0,0.0,0.0,0.0,0.0,0.0,0.0,0.0,0.0,0.0,0.0,0.0,0.0,0.0,0.0,0.0,0.0,0.0,0.0,0.0,0.0,0.0,0.0,0.0,0.0,0.0,0.0,0.0,0.0,0.0,0.0,0.0,0.0,0.0,0.0,0.0,0.0,0.0,0.0,0.0,0.0,0.0,0.0,0.0,0.0,0.0,0.0,0.0,0.0,0.0,0.0,0.0,0.0,16.2712,17.6798,19.336,19.5719,19.4953,19.1866,18.5177,17.5187,16.1058,14.5344,0.0,0.0,0.0,0.0,0.0,0.0,0.0,0.0,0.0,0.0,0.0,0.0,0.0,0.0,0.0,0.0,0.0,0.0,0.0,0.0,0.0,0.0,0.0,0.0,0.0,0.0,0.0,0.0,0.0,0.0,0.0,0.0,0.0,0.0,0.0,0.0,0.0,0.0,0.0,0.0,0.0,0.0,0.0,0.0,0.0,0.0,0.0,0.0,0.0,0.0,0.0,0.0,0.0,0.0,0.0,0.0,0.0,0.0,0.0,0.0,0.0,0.0,0.0,0.0,0.0,0.0,0.0,0.0,0.0,0.0,0.0,0.0,0.0,0.0,0.0,0.0,0.0,0.0,0.0,0.0,0.0,0.0,0.0,0.0,0.0,0.0,0.0,0.0,0.0,0.0,0.0,0.0,0.0,0.0,0.0,0.0,0.0,0.0,0.0,0.0,0.0,0.0,0.0,16.2213,18.6258,19.1702,19.2294,18.9173,18.1894,17.0851,15.4992,0.0,0.0,0.0,0.0,0.0,0.0,0.0,0.0,0.0,0.0,0.0,0.0,0.0,0.0,0.0,0.0,0.0,0.0,0.0,0.0,0.0,0.0,0.0,0.0,0.0,0.0,0.0,0.0,0.0,0.0,0.0,0.0,0.0,0.0,0.0,0.0,0.0,0.0,0.0,0.0,0.0,0.0,0.0,0.0,0.0,0.0,0.0,0.0,0.0,0.0,0.0,0.0,0.0,0.0,0.0,0.0,0.0,0.0,0.0,0.0,0.0,0.0,0.0,0.0,0.0,0.0,0.0,0.0,0.0,0.0,0.0,0.0,0.0,0.0,0.0,0.0,0.0,0.0,0.0,0.0,0.0,0.0,0.0,0.0,0.0,0.0,0.0,0.0,0.0,0.0,0.0,0.0,0.0,0.0,0.0,0.0,0.0,0.0,0.0,0.0,0.0,0.0,0.0,0.0,0.0,17.0235,18.0883,18.5782,18.2661,17.6382,16.5822,15.0053,0.0,0.0,0.0,0.0,0.0,0.0,0.0,0.0,0.0,0.0,0.0,0.0,0.0,0.0]}],[{"header":{"parameterUnit":"kt","parameterCategory":2,"dx":1,"dy":1,"la1":29.285339999999998,"la2":30.599998999999997,"lo1":-89.70041500000002,"lo2":-87.6738589999976,"nx":112,"ny":82,"refTime":"2022-09-29T06:00:00:Z","depth":0,"parameterNumber":2,"parameterNumberName":"V-component_of_WINDS"},"data":[12.8529,12.8931,12.8984,12.84,12.8476,12.8643,12.8643,12.8286,12.7944,12.7944,12.7489,12.6859,12.6404,0.0,0.0,0.0,0.0,0.0,0.0,12.5476,12.6745,12.6973,12.7489,12.8172,12.9045,12.9615,12.9956,13.007,13.2082,13.2766,13.1437,13.2589,13.2817,13.1741,13.2424,13.2994,13.3335,13.4095,13.4095,13.3335,13.2766,13.2082,13.1209,13.0398,13.0056,13.0056,13.0056,13.0056,13.0056,13.0056,13.0056,13.0056,13.0056,13.0056,13.0056,13.0056,13.0056,13.0056,13.0056,13.0056,13.0056,13.0056,13.0056,13.0056,13.0056,13.0056,13.0398,13.2183,13.1613,13.0815,13.2297,13.1613,13.0398,13.007,13.0056,13.0056,13.0056,13.0056,13.0056,13.0056,13.0056,13.0056,13.0056,13.0056,13.0056,13.0056,13.0056,13.0056,13.0056,13.0056,13.0056,13.0056,13.0056,13.0056,13.0056,13.0056,13.0056,13.0056,13.0056,13.0056,13.0056,13.0056,13.017,13.0474,13.017,13.017,13.0474,13.017,13.0056,13.0056,13.0056,13.0056,12.7315,12.7261,12.7033,12.7033,12.7033,12.7033,12.7033,12.6805,12.6631,12.6631,12.6631,12.629,12.5189,0.0,0.0,0.0,0.0,0.0,0.0,12.4679,12.5932,12.7375,12.7944,12.8514,12.9083,13.0184,13.0474,12.9615,13.1906,13.2766,13.1385,13.2601,13.2994,13.2082,13.312,13.3867,13.4145,13.4613,13.4613,13.4145,13.3107,13.2297,13.1627,13.0526,13.0056,13.0056,13.0056,13.0056,13.0056,13.0056,13.0056,13.0056,13.0056,13.0056,13.0056,13.0056,13.0056,13.0056,13.0056,13.0056,13.0056,13.0056,13.0056,13.0056,13.0056,13.0056,13.0056,13.0056,13.0056,13.0056,13.0056,13.0056,13.0056,13.0056,13.0056,13.0056,13.0056,13.0056,13.0056,13.0056,13.0056,13.0056,13.0056,13.0056,13.0056,13.0056,13.0056,13.0056,13.0056,13.0056,13.0056,13.0056,13.0056,13.0056,13.0056,13.0056,13.0056,13.0056,13.0056,13.0056,13.0056,13.0056,13.0056,13.0056,13.0056,13.0056,13.0056,13.0056,13.0056,13.0056,13.0056,13.0056,12.4907,12.4375,12.3806,12.3768,12.3806,12.3864,12.3864,12.4451,12.5021,12.5021,12.5021,12.5021,12.5021,12.4451,0.0,0.0,0.0,0.0,0.0,12.3978,12.4793,12.7147,12.7489,12.8172,12.9842,13.0056,13.0398,13.1109,13.1969,13.288,13.3576,13.2994,13.2994,13.369,13.3753,13.4145,13.4904,13.4904,13.4904,13.4904,13.3335,13.2601,13.2525,13.0815,13.0056,13.0056,13.0056,13.0056,13.0056,13.0056,13.0056,13.0056,13.0056,13.0056,13.0056,13.0056,13.0056,13.0056,13.0056,13.0056,13.0056,13.0056,13.0056,13.0056,13.0056,13.0056,13.0056,13.0056,13.0056,13.0056,13.0056,13.0056,13.0056,13.0056,13.0056,13.0056,13.0056,13.0056,13.0056,13.0056,13.0056,13.0056,13.0056,13.0056,13.0056,13.0056,13.0056,13.0056,13.0056,13.0056,13.0056,13.0056,13.0056,13.0056,13.0056,13.0056,13.0056,13.0056,13.0056,13.0056,13.0056,13.0056,13.0056,13.0056,13.0056,13.0056,13.0056,13.0056,13.0056,13.0056,13.0056,13.0056,12.335,12.3464,12.3654,12.3009,12.3768,12.4679,12.4679,12.4848,12.5151,12.5721,12.5835,0.0,0.0,0.0,12.6501,12.6501,0.0,12.6176,12.6463,12.6501,12.6501,12.6518,12.7087,12.8172,12.9842,13.0526,13.0754,13.0412,13.1095,13.1665,13.1855,13.288,13.3525,13.3753,13.4259,13.4714,13.4904,13.4904,13.4904,13.4904,13.3905,13.3107,13.2538,13.1399,13.0587,13.0056,13.0056,13.0056,13.0056,13.0056,13.0056,13.0056,13.0056,13.0056,13.0056,13.0056,13.0056,13.0056,13.0056,13.0056,13.0056,13.0056,13.0056,13.0056,13.0056,13.0056,13.0056,13.0056,13.0056,13.0056,13.0056,13.0056,13.0056,13.0056,13.0056,13.0056,13.0056,13.0056,13.0056,13.0056,13.0056,13.0056,13.0056,13.0056,13.0056,13.0056,13.0056,13.0056,13.0056,13.0056,13.0056,13.0056,13.0056,13.0056,13.0056,13.0056,13.0056,13.0056,13.0056,13.0056,13.0056,13.0056,13.0056,13.0056,13.0056,13.0056,13.0056,13.0056,13.0056,13.0056,13.0056,13.0056,12.1642,12.2097,12.2649,12.2097,12.3009,12.4051,12.4393,12.4224,12.4355,12.5835,0.0,0.0,0.0,0.0,0.0,0.0,12.6919,12.6919,12.6919,12.6919,12.7033,12.7201,12.8286,12.9311,13.0003,13.0754,13.1043,13.0587,13.1323,13.1741,13.1741,13.2994,13.3753,13.3753,13.4487,13.4904,13.4904,13.4904,13.4904,13.4904,13.4145,13.3335,13.2538,13.1627,13.0754,13.0056,13.0056,13.0056,13.0056,13.0056,13.0056,13.0056,13.0056,13.0056,13.0056,13.0056,13.0056,13.0056,13.0056,13.0056,13.0056,13.0056,13.0056,13.0056,13.0056,13.0056,13.0056,13.0056,13.0056,13.0056,13.0056,13.0056,13.0056,13.0056,13.0056,13.0056,13.0056,13.0056,13.0056,13.0056,13.0056,13.0056,13.0056,13.0056,13.0056,13.0056,13.0056,13.0056,13.0056,13.0056,13.0056,13.0056,13.0056,13.0056,13.0056,13.0056,13.0056,13.0056,13.0056,13.0056,13.0056,13.0056,13.0056,13.0056,13.0056,13.0056,13.0056,13.0056,13.0056,13.0056,13.0056,13.0056,12.0085,12.0427,12.0996,12.0996,12.1642,12.2571,12.3464,0.0,12.3423,12.5835,0.0,12.4679,12.6176,0.0,0.0,12.6458,12.6631,12.6577,12.6458,12.6463,12.6973,12.8514,13.0009,13.064,12.9942,13.0587,13.1095,13.1095,13.1893,13.2424,13.2538,13.3335,13.3791,13.3867,13.4499,13.4904,13.4904,13.4904,13.4904,13.4904,13.4208,13.3449,13.2652,13.1741,13.0929,13.017,13.0056,13.0056,13.0056,13.0056,13.0056,13.0056,13.0056,13.0056,13.0056,13.0056,13.0056,13.0056,13.0056,13.0056,13.0056,13.0056,13.0056,13.0056,13.0056,13.0056,13.0056,13.0056,13.0056,13.0056,13.0056,13.0056,13.0056,13.0056,13.0056,13.0056,13.0056,13.0056,13.0056,13.0056,13.0056,13.0056,13.0056,13.0056,13.0056,13.0056,13.0056,13.0056,13.0056,13.0056,13.0056,13.0056,13.0056,13.0056,13.0056,13.0056,13.0056,13.0056,13.0056,13.0056,13.0056,13.0056,13.0056,13.0056,13.0056,13.0056,13.0056,13.0056,13.0056,13.0056,13.0056,13.0056,11.9212,11.9154,11.9268,11.9268,12.037,12.1737,0.0,0.0,0.0,12.6859,12.7033,12.7131,12.8058,12.8073,12.8286,12.9144,12.9273,12.9045,12.8301,12.8187,12.8301,12.8643,12.8984,12.9098,12.8969,12.9729,13.0284,13.0284,13.1043,13.1779,13.2538,13.3335,13.4031,13.4613,13.4828,13.4904,13.4904,13.4904,13.4904,13.4904,13.4726,13.4259,13.3462,13.2652,13.1841,13.0981,13.0298,13.0056,13.0056,13.0056,13.0056,13.0056,13.0056,13.0056,13.0056,13.0056,13.0056,13.0056,13.0056,13.0056,13.0056,13.0056,13.0056,13.0056,13.0056,13.0056,13.0056,13.0056,13.0056,13.0056,13.0056,13.0056,13.0056,13.0056,13.0056,13.0056,13.0056,13.0056,13.0056,13.0056,13.0056,13.0056,13.0056,13.0056,13.0056,13.0056,13.0056,13.0056,13.0056,13.0056,13.0056,13.0056,13.0056,13.0056,13.0056,13.0056,13.0056,13.0056,13.0056,13.0056,13.0056,13.0056,13.0056,13.0056,13.0056,13.0056,13.0056,13.0056,13.0056,13.0056,13.0056,13.0056,11.8643,11.906,11.9345,11.9345,12.0655,0.0,0.0,12.3464,12.4451,12.7017,12.6805,12.6729,12.84,12.8643,12.8969,12.9842,13.0056,12.9714,12.8817,12.9045,12.9159,12.8741,12.9083,12.9387,12.9387,13.0132,13.064,13.064,13.1741,13.2652,13.3107,13.3917,13.4487,13.4904,13.4904,13.4904,13.4904,13.4904,13.4904,13.4904,13.4904,13.4487,13.369,13.3335,13.2424,13.1209,13.0815,13.0398,13.0056,13.0056,13.0056,13.0056,13.0056,13.0056,13.0056,13.0056,13.0056,13.0056,13.0056,13.0056,13.0056,13.0056,13.0056,13.0056,13.0056,13.0056,13.0056,13.0056,13.0298,13.064,13.064,13.064,13.064,13.064,13.0298,13.0056,13.0056,13.0056,13.0056,13.0056,13.0056,13.0056,13.0056,13.0056,13.0056,13.0056,13.0056,13.0056,13.0056,13.0056,13.0056,13.0056,13.0056,13.0056,13.0056,13.0056,13.0056,13.0056,13.0056,13.0056,13.0056,13.0056,13.0056,13.0056,13.0056,13.0056,13.0056,13.0056,13.0056,13.0056,13.0056,13.0246,11.7738,11.8946,11.9516,11.963,12.0883,0.0,12.375,12.3596,12.4165,12.7549,12.7147,12.6805,12.8817,12.9159,12.9387,13.017,13.0284,13.0056,12.9273,12.9714,12.9729,12.9045,12.96,13.007,13.0246,13.0868,13.1285,13.1499,13.2766,13.3563,13.3753,13.4487,13.4904,13.4904,13.4904,13.4904,13.4904,13.4904,13.4904,13.4904,13.4904,13.46,13.3917,13.3804,13.2994,13.1665,13.1323,13.0868,13.0246,13.007,13.0056,13.0056,13.0056,13.0056,13.0056,13.0056,13.0056,13.0056,13.0056,13.0056,13.0056,13.0056,13.0056,13.0056,13.0056,13.0056,13.0056,13.0056,13.0587,13.1171,13.1043,13.1209,13.1399,13.1057,13.064,13.0246,13.0056,13.0056,13.0056,13.0056,13.0056,13.0056,13.0056,13.0056,13.0056,13.0056,13.0056,13.0056,13.0056,13.0056,13.0056,13.0056,13.0056,13.0056,13.0056,13.0056,13.0056,13.0056,13.0056,13.0056,13.0056,13.0056,13.0056,13.0056,13.0056,13.0056,13.0056,13.0056,13.0056,13.0056,13.0056,13.0474,11.572,11.7638,11.7866,11.8662,11.9572,0.0,12.4148,12.5362,12.6745,13.007,13.064,13.064,13.0868,13.0943,13.0981,13.1057,13.1095,13.1043,13.0943,13.0412,13.0018,12.9942,12.9956,13.0298,13.1043,13.1109,13.1551,13.231,13.2601,13.2994,13.369,13.4487,13.4904,13.4904,13.4904,13.4904,13.4904,13.4904,13.4904,13.4904,13.4904,13.484,13.4726,13.4031,13.3639,13.3348,13.1855,13.1109,13.1043,13.0298,13.0056,13.0056,13.0056,13.0056,13.0056,13.0056,13.0056,13.0056,13.0056,13.0056,13.0056,13.0056,13.0056,13.0056,13.0056,13.0056,13.0056,13.0056,13.0587,13.1043,13.036,13.1271,13.2069,13.0526,13.064,13.0868,13.0231,13.0056,13.0056,13.0056,13.0056,13.0056,13.0056,13.0056,13.0056,13.0056,13.0056,13.0056,13.0056,13.0056,13.0056,13.0056,13.0056,13.0056,13.0056,13.0056,13.0056,13.0056,13.0056,13.0056,13.0056,13.0056,13.0056,13.0056,13.0056,13.0056,13.0056,13.0056,13.0056,13.0056,13.0056,13.0474,11.5516,11.7069,11.7752,11.9098,0.0,0.0,12.4565,12.6008,12.7489,12.9326,12.9729,13.007,13.1043,13.1209,13.1399,13.1893,13.1969,13.1841,13.1285,13.0526,13.0056,13.0056,13.0474,13.0868,13.1171,13.2082,13.3007,13.3867,13.3917,13.4322,13.512,13.5018,13.4904,13.4904,13.4904,13.4904,13.4904,13.4904,13.4904,13.4904,13.4904,13.4904,13.4904,13.46,13.4145,13.3677,13.2538,13.1727,13.1157,13.036,13.0056,13.0056,13.0056,13.0056,13.0056,13.0056,13.0056,13.0056,13.0056,13.0056,13.0056,13.0056,13.0056,13.0056,13.0056,13.0056,13.0056,13.0056,13.0284,13.0701,13.1323,13.2411,13.3107,13.231,13.2082,13.1741,13.0868,13.0701,13.0868,13.1385,13.1095,13.0701,13.0701,13.036,13.0056,13.0056,13.0056,13.0056,13.0056,13.0056,13.0056,13.0056,13.0056,13.0056,13.0056,13.0474,13.0526,13.0056,13.0474,13.0512,13.0056,13.0056,13.0056,13.0056,13.0056,13.0056,13.0056,13.0056,13.0056,13.0056,13.0512,13.1437,11.479,0.0,0.0,0.0,0.0,0.0,12.5362,12.6805,12.8172,12.9159,12.9387,12.9842,13.1323,13.1613,13.1969,13.3056,13.3056,13.2601,13.1727,13.1095,13.0587,13.007,13.0929,13.1613,13.1613,13.288,13.4031,13.4828,13.4904,13.5234,13.5815,13.5246,13.4904,13.4904,13.4904,13.4904,13.4904,13.4904,13.4904,13.4904,13.4904,13.4904,13.4904,13.4904,13.46,13.4031,13.2994,13.2196,13.1513,13.0474,13.0056,13.0056,13.0056,13.0056,13.0056,13.0056,13.0056,13.0056,13.0056,13.0056,13.0056,13.0056,13.0056,13.0056,13.0056,13.0056,13.0056,13.0284,13.036,13.0754,13.2424,13.3462,13.3917,13.3525,13.317,13.2652,13.1741,13.1741,13.2069,13.2525,13.2069,13.1513,13.1271,13.0754,13.0284,13.0056,13.0056,13.0056,13.0056,13.0056,13.0056,13.0056,13.0056,13.0056,13.0056,13.0754,13.0868,13.0117,13.0754,13.0868,13.0056,13.0056,13.0056,13.0056,13.0056,13.0056,13.0056,13.0056,13.0056,13.0056,13.0868,13.2082,0.0,0.0,0.0,11.9516,12.1243,12.3368,12.6691,12.8058,12.9098,13.0754,13.1157,13.1437,13.231,13.2538,13.3056,13.46,13.4208,13.3449,13.2652,13.2525,13.1855,13.0246,13.1499,13.2538,13.2538,13.3234,13.4031,13.4828,13.4904,13.4942,13.4942,13.4942,13.4904,13.4904,13.4904,13.4904,13.4904,13.4904,13.4904,13.4904,13.4904,13.4904,13.4904,13.4904,13.4904,13.479,13.3221,13.2538,13.2411,13.0701,13.0056,13.0056,13.0056,13.0056,13.0056,13.0056,13.0056,13.0056,13.0056,13.0056,13.0056,13.0056,13.0056,13.0056,13.0056,13.0056,13.0231,13.0981,13.1171,13.1551,13.3234,13.4259,13.4487,13.2994,13.3221,13.3462,13.2715,13.3107,13.3449,13.2715,13.2538,13.2196,13.1385,13.1209,13.0929,13.017,13.0056,13.0056,13.0056,13.0056,13.0056,13.0056,13.0056,13.0056,13.0056,13.0754,13.0868,13.0117,13.0754,13.0868,13.0056,13.0056,13.0056,13.0056,13.0056,13.0056,13.0056,13.0056,13.0056,13.0056,13.0868,13.2082,11.3828,11.6685,11.8719,12.0427,12.2895,12.5379,12.7147,12.8574,12.9729,13.0298,13.0412,13.0868,13.231,13.2538,13.3107,13.4613,13.4259,13.3449,13.2652,13.2538,13.2183,13.0981,13.231,13.3335,13.3335,13.4031,13.4892,13.5701,13.5246,13.517,13.5803,13.5246,13.4904,13.4904,13.4904,13.5234,13.5803,13.5803,13.5803,13.5803,13.5803,13.5473,13.4904,13.4904,13.4904,13.4828,13.3221,13.2538,13.2424,13.0739,13.0056,13.0056,13.0056,13.0056,13.0056,13.0056,13.0056,13.0056,13.0056,13.0056,13.0056,13.0056,13.0056,13.0056,13.0056,13.0056,13.0184,13.0981,13.1209,13.1565,13.3335,13.3917,13.4145,13.4145,13.4271,13.4322,13.3525,13.4436,13.5347,13.5108,13.4095,13.3221,13.2931,13.2424,13.1841,13.0929,13.0815,13.064,13.007,13.0056,13.0056,13.0056,13.0056,13.0056,13.0056,13.1323,13.1741,13.0868,13.1627,13.1727,13.0868,13.0298,13.0056,13.0056,13.0056,13.0056,13.0056,13.0587,13.0526,13.0056,13.1499,13.2424,11.3957,11.682,11.9516,12.094,12.354,12.6062,12.7261,12.8574,12.9615,13.0003,13.0056,13.0587,13.2297,13.2538,13.3107,13.4613,13.4487,13.3867,13.3107,13.3221,13.3107,13.2196,13.3335,13.4145,13.4208,13.46,13.5132,13.5701,13.5246,13.5132,13.5701,13.5182,13.4904,13.4904,13.4904,13.517,13.5803,13.5803,13.5917,13.6259,13.5917,13.5473,13.4904,13.4904,13.4904,13.4828,13.3221,13.2538,13.2424,13.1043,13.0284,13.0056,13.036,13.0284,13.0056,13.0056,13.0056,13.0056,13.0056,13.0056,13.0056,13.0056,13.0056,13.0056,13.0056,13.0056,13.0184,13.0981,13.1437,13.1969,13.3348,13.3917,13.4259,13.479,13.4904,13.4892,13.4664,13.5234,13.5929,13.6562,13.5056,13.3804,13.4095,13.3234,13.2297,13.1323,13.1209,13.0929,13.0132,13.0056,13.0056,13.0056,13.0056,13.0056,13.0056,13.1271,13.1841,13.1271,13.1741,13.1841,13.1209,13.0474,13.0056,13.0056,13.0298,13.0474,13.0474,13.0981,13.0981,13.0512,13.2196,13.288,11.3388,11.6879,12.0199,12.111,12.3236,12.5476,12.7147,12.8073,12.8931,12.9828,13.0056,13.0526,13.2196,13.2538,13.3107,13.46,13.4904,13.46,13.3867,13.4373,13.46,13.3905,13.4487,13.4942,13.512,13.5056,13.4942,13.4904,13.4904,13.4904,13.4904,13.4904,13.4904,13.4904,13.4904,13.4904,13.4904,13.4942,13.5397,13.6259,13.5461,13.4954,13.4904,13.4904,13.4904,13.4828,13.3335,13.2639,13.2525,13.1613,13.0754,13.0132,13.0868,13.0701,13.0056,13.0056,13.0056,13.0056,13.0056,13.0056,13.0056,13.0056,13.0056,13.0056,13.0056,13.0056,13.0184,13.0981,13.1855,13.2766,13.3563,13.4322,13.4904,13.4904,13.4904,13.5132,13.6031,13.5587,13.5587,13.7181,13.5511,13.4095,13.4828,13.369,13.2411,13.1499,13.1323,13.1043,13.0284,13.0132,13.007,13.007,13.007,13.007,13.007,13.0815,13.1323,13.1323,13.1323,13.1285,13.1285,13.0474,13.0056,13.0056,13.0868,13.1271,13.1209,13.1271,13.1209,13.1209,13.288,13.3234,11.5378,11.8662,12.1168,12.1984,12.4051,12.6176,12.7261,12.8073,12.8931,12.9828,13.0056,13.036,13.1385,13.2082,13.288,13.3867,13.4487,13.46,13.3867,13.3917,13.4208,13.4664,13.4828,13.517,13.5917,13.5917,13.5689,13.4942,13.4904,13.4904,13.4904,13.4904,13.4904,13.4904,13.4904,13.4904,13.4904,13.5575,13.6031,13.6259,13.6612,13.6156,13.4904,13.4904,13.4904,13.4828,13.3867,13.3107,13.2525,13.1613,13.0754,13.0056,13.0246,13.0184,13.0056,13.0056,13.0056,13.0056,13.0056,13.0056,13.0056,13.0056,13.0056,13.0056,13.0056,13.0056,13.0184,13.0981,13.1855,13.2766,13.3563,13.4322,13.4904,13.4904,13.4904,13.4954,13.5234,13.66,13.7929,13.8336,13.6904,13.5689,13.5917,13.5018,13.4031,13.3221,13.2601,13.2183,13.1955,13.1323,13.0929,13.0929,13.0929,13.0929,13.0929,13.1727,13.2487,13.3045,13.2538,13.2196,13.2196,13.0815,13.0056,13.0056,13.1499,13.1855,13.1209,13.1855,13.1613,13.036,13.2082,13.2766,11.4716,11.8719,12.1812,12.1965,12.3823,12.5835,12.6691,12.7602,12.8514,12.9828,13.0056,13.0284,13.1095,13.1969,13.2828,13.3576,13.4373,13.4726,13.4322,13.3917,13.4208,13.5461,13.4892,13.4892,13.6145,13.5917,13.5461,13.4942,13.4904,13.4904,13.4904,13.4904,13.4904,13.4904,13.4904,13.4904,13.4904,13.5803,13.6095,13.5689,13.6145,13.5815,13.4904,13.4904,13.4904,13.484,13.4031,13.3462,13.2994,13.2183,13.1323,13.0526,13.0526,13.036,13.0056,13.0056,13.0056,13.0056,13.0056,13.0056,13.0056,13.0056,13.0056,13.0056,13.0056,13.0056,13.0132,13.0587,13.1323,13.2183,13.2994,13.3804,13.46,13.5347,13.5473,13.5587,13.5929,13.7474,13.8678,13.8271,13.6828,13.5917,13.6676,13.5461,13.4259,13.3804,13.3335,13.2994,13.2639,13.2082,13.1841,13.1841,13.1841,13.1627,13.1271,13.2069,13.2766,13.3221,13.2766,13.2753,13.3107,13.1841,13.1157,13.1157,13.2082,13.231,13.1841,13.2652,13.2424,13.1157,13.288,13.3449,11.3251,11.7866,12.1888,12.1528,12.3181,12.5076,12.5948,12.6859,12.7944,12.9501,12.9842,13.007,13.0868,13.1779,13.2652,13.3449,13.4259,13.479,13.4904,13.4145,13.4246,13.6031,13.4892,13.4487,13.6145,13.5689,13.5132,13.4942,13.4904,13.4904,13.4904,13.4904,13.4904,13.4904,13.4904,13.4904,13.4904,13.5689,13.5701,13.5056,13.4942,13.4904,13.4904,13.4904,13.4904,13.484,13.4208,13.3804,13.369,13.2994,13.2082,13.1209,13.1209,13.0701,13.0056,13.0056,13.0056,13.0056,13.0056,13.0056,13.0056,13.0056,13.0056,13.0056,13.0056,13.0056,13.0056,13.0056,13.0587,13.1437,13.231,13.3221,13.4322,13.5917,13.6335,13.6676,13.7587,13.8385,13.8726,13.7929,13.6612,13.5929,13.7246,13.5461,13.3905,13.3905,13.3804,13.3525,13.2994,13.2766,13.2753,13.2753,13.2753,13.2424,13.1627,13.2297,13.2766,13.288,13.2766,13.3056,13.369,13.2994,13.2652,13.288,13.2766,13.2753,13.2753,13.3449,13.3335,13.2639,13.4031,13.4373,11.4125,11.7048,11.9857,12.1812,12.3123,12.4434,12.5835,12.6859,12.7777,12.8741,12.8931,12.9159,13.007,13.0868,13.1741,13.2652,13.3449,13.4145,13.4828,13.3677,13.3639,13.6031,13.5347,13.512,13.6145,13.6714,13.6384,13.5018,13.4904,13.4904,13.4904,13.4904,13.4904,13.4904,13.4904,13.4904,13.4904,13.5056,13.5461,13.6031,13.5246,13.4904,13.4904,13.4904,13.4904,13.4904,13.4726,13.4373,13.369,13.3576,13.2589,13.1209,13.1209,13.0701,13.0056,13.0056,13.0056,13.0056,13.0056,13.0056,13.0056,13.0056,13.0056,13.0056,13.0056,13.0056,13.0056,13.0056,13.0587,13.1437,13.231,13.3639,13.4942,13.6031,13.6726,13.7636,13.9182,13.9638,13.9713,13.959,13.9258,13.8726,13.7636,13.5929,13.4714,13.4714,13.4145,13.3917,13.4449,13.3917,13.3563,13.3563,13.3563,13.3462,13.3335,13.3449,13.3804,13.4487,13.3905,13.3576,13.3753,13.2994,13.3221,13.4487,13.3867,13.3563,13.3563,13.3677,13.3335,13.2601,13.3462,13.3867,11.3897,11.6175,11.8549,12.0655,12.2154,12.3464,12.4679,12.559,12.6404,12.7201,12.8073,12.8817,12.9273,13.036,13.1323,13.1779,13.2942,13.369,13.369,13.3056,13.2994,13.4208,13.4322,13.4487,13.4892,13.6042,13.627,13.5018,13.4904,13.4904,13.4904,13.4904,13.4904,13.4904,13.4904,13.4904,13.4904,13.4904,13.5132,13.5575,13.5132,13.4904,13.4904,13.4904,13.4904,13.4904,13.4904,13.4714,13.4322,13.3917,13.3234,13.2424,13.1551,13.0981,13.0587,13.0231,13.0056,13.0056,13.0056,13.0056,13.0056,13.0056,13.0056,13.0056,13.0056,13.0056,13.0056,13.0056,13.0298,13.0815,13.1627,13.2766,13.4133,13.5867,13.7246,13.8499,13.9713,13.9941,13.9941,13.9941,13.9941,13.941,13.7712,13.6726,13.5929,13.5056,13.46,13.4487,13.484,13.46,13.4373,13.4373,13.4373,13.4208,13.3791,13.4145,13.4373,13.4322,13.4271,13.4373,13.4373,13.3981,13.4145,13.4904,13.4499,13.4145,13.3753,13.4145,13.3917,13.3221,13.3981,13.4373,11.3783,11.58,11.8093,11.9573,12.0901,12.2267,12.354,12.4148,12.4734,12.5721,12.7261,12.8514,12.8643,12.9956,13.1043,13.1209,13.231,13.3045,13.2652,13.2424,13.231,13.2538,13.3234,13.3753,13.3753,13.5234,13.5917,13.4954,13.4904,13.4904,13.4904,13.4904,13.4904,13.4904,13.4904,13.4904,13.4904,13.4904,13.4904,13.4904,13.4904,13.4904,13.4904,13.4904,13.4904,13.4904,13.4904,13.4904,13.484,13.4259,13.3905,13.3576,13.231,13.1551,13.1157,13.0526,13.017,13.0056,13.0056,13.0056,13.0056,13.0056,13.0056,13.0056,13.0056,13.0056,13.0056,13.0056,13.017,13.0474,13.1285,13.231,13.3563,13.5473,13.7132,13.8499,13.9486,13.9713,13.9751,13.9941,13.9941,13.941,13.7712,13.7409,13.6839,13.5132,13.4904,13.4904,13.4904,13.4904,13.4904,13.4904,13.4904,13.4613,13.4031,13.4563,13.4613,13.4031,13.46,13.4904,13.4904,13.4904,13.4904,13.4904,13.4904,13.46,13.3981,13.46,13.46,13.4031,13.46,13.4904,11.4694,11.6799,11.8832,11.9744,12.0085,12.0787,12.3236,12.3236,12.314,12.4734,12.6463,12.783,12.8529,12.9501,13.036,13.1095,13.1323,13.1727,13.2487,13.1855,13.1627,13.2487,13.3234,13.3753,13.3753,13.5234,13.5917,13.4954,13.4904,13.4904,13.4904,13.4904,13.4904,13.4904,13.4904,13.4904,13.4904,13.4904,13.4904,13.4904,13.4904,13.4904,13.4904,13.4904,13.4904,13.4904,13.4904,13.4904,13.4904,13.4828,13.4373,13.369,13.3563,13.2538,13.1209,13.1157,13.064,13.0056,13.0056,13.0056,13.0056,13.0056,13.0056,13.0056,13.0056,13.0056,13.0056,13.0056,13.0526,13.1323,13.2196,13.3563,13.4726,13.4954,13.5803,13.6942,13.8564,13.8906,13.9134,13.9827,13.9941,13.941,13.7712,13.7409,13.6839,13.5132,13.4904,13.4904,13.4904,13.4904,13.4904,13.4904,13.4904,13.4904,13.4828,13.484,13.484,13.4828,13.484,13.4904,13.4904,13.4904,13.4904,13.4904,13.4904,13.484,13.4828,13.484,13.484,13.4828,13.484,13.4904,11.3305,11.5014,11.6706,11.7504,11.8832,12.0085,12.0655,12.1281,12.2097,12.3254,12.5189,12.6631,12.6463,12.7944,12.9311,12.9615,13.0526,13.1171,13.1043,13.1157,13.1171,13.1043,13.2652,13.3563,13.3107,13.5006,13.5917,13.4954,13.4904,13.4904,13.4904,13.4904,13.4904,13.4904,13.4904,13.4904,13.4904,13.4904,13.4904,13.4904,13.4904,13.4904,13.4904,13.4904,13.4904,13.4904,13.4904,13.4904,13.4904,13.4904,13.4714,13.4373,13.3917,13.3335,13.2589,13.1613,13.1043,13.0701,13.0184,13.0056,13.0132,13.0587,13.0754,13.0754,13.0754,13.0754,13.064,13.017,13.0587,13.1285,13.1665,13.2994,13.4487,13.5473,13.6031,13.6562,13.7701,13.7994,13.8043,13.8385,13.884,13.8726,13.7018,13.7132,13.6839,13.5132,13.4904,13.4904,13.4904,13.4904,13.4904,13.4904,13.4904,13.4904,13.4904,13.4904,13.4904,13.4904,13.4904,13.4904,13.4904,13.4904,13.4904,13.4904,13.4904,13.4904,13.4904,13.4904,13.4904,13.4904,13.4904,13.4904,11.2051,11.3593,11.5264,11.6061,11.7731,11.9174,11.9154,11.9857,12.0826,12.187,12.411,12.5818,12.5721,12.7375,12.8757,12.9045,12.9842,13.0298,12.9714,13.0132,13.0298,12.9714,13.1855,13.3221,13.2652,13.455,13.5587,13.4942,13.4904,13.4904,13.4904,13.4904,13.4904,13.4904,13.4904,13.4904,13.4904,13.4904,13.4904,13.4904,13.4904,13.4904,13.4904,13.4904,13.4904,13.4904,13.4904,13.4904,13.4904,13.4904,13.4904,13.4828,13.4322,13.3917,13.3576,13.2424,13.1841,13.1551,13.0981,13.0815,13.0868,13.1437,13.1437,13.1271,13.1551,13.1437,13.1157,13.0868,13.1385,13.1969,13.1969,13.2994,13.4373,13.5575,13.5815,13.6042,13.6904,13.7067,13.7132,13.7409,13.7929,13.7929,13.6551,13.6714,13.66,13.5132,13.4904,13.4904,13.4904,13.4904,13.4904,13.4904,13.4904,13.4904,13.4904,13.4904,13.4904,13.4904,13.4904,13.4904,13.4904,13.4904,13.4904,13.4904,13.4904,13.4904,13.4904,13.4904,13.4904,13.4904,13.4904,13.4904,11.1467,11.31,11.5264,11.6061,11.6879,11.7866,11.9573,11.9288,11.9268,12.094,12.3295,12.5493,12.7147,12.8172,12.8969,12.9842,12.9273,12.8703,12.8703,12.8703,12.8703,12.8703,13.0981,13.2538,13.2538,13.3981,13.4904,13.4904,13.4904,13.4904,13.4904,13.4904,13.4904,13.4904,13.4904,13.4904,13.4904,13.4904,13.4904,13.4904,13.4904,13.4904,13.4904,13.4904,13.4904,13.4904,13.4904,13.4904,13.4904,13.4904,13.4904,13.4904,13.4904,13.4436,13.3753,13.369,13.3221,13.2538,13.2538,13.2538,13.2538,13.2538,13.1955,13.1385,13.2297,13.1955,13.1399,13.231,13.3107,13.369,13.369,13.4322,13.4904,13.4904,13.4942,13.517,13.6042,13.6259,13.6486,13.7295,13.7409,13.7181,13.6373,13.6259,13.5929,13.5056,13.4904,13.4904,13.4904,13.4904,13.4904,13.4904,13.4904,13.4904,13.4904,13.4904,13.4904,13.4904,13.4904,13.4904,13.4904,13.4904,13.4904,13.4904,13.4904,13.4904,13.4904,13.4904,13.4904,13.4904,13.4904,13.4904,11.1125,11.2629,11.4352,11.5264,11.6424,11.7524,11.8093,11.889,11.9857,12.1054,12.1414,12.204,12.3709,12.5607,12.7261,12.8172,12.903,12.9387,12.8757,12.9258,12.9387,12.8757,13.0981,13.2538,13.2538,13.455,13.5575,13.4942,13.5473,13.5575,13.4942,13.4904,13.4904,13.4904,13.4904,13.4904,13.4904,13.4904,13.4904,13.4904,13.4904,13.4904,13.4904,13.4904,13.4904,13.4904,13.4904,13.4904,13.4904,13.4904,13.4904,13.4904,13.4904,13.4726,13.4487,13.3917,13.3576,13.3335,13.2766,13.2538,13.2652,13.3221,13.3221,13.2994,13.3335,13.3221,13.288,13.2652,13.3107,13.3867,13.4373,13.4714,13.4904,13.4904,13.4904,13.4954,13.5246,13.5347,13.5397,13.5689,13.6221,13.6373,13.5473,13.5815,13.5981,13.5056,13.4904,13.4904,13.4904,13.4904,13.4904,13.4904,13.4904,13.4904,13.4904,13.4904,13.4904,13.4904,13.4904,13.4904,13.4904,13.4904,13.4904,13.4904,13.4904,13.4904,13.4904,13.4904,13.4904,13.4904,13.4904,13.4904,11.0898,11.2226,11.3479,11.4352,11.5285,11.631,11.7638,11.8207,11.8946,12.0484,12.0598,12.0883,12.2172,12.4793,12.6973,12.783,12.8855,12.9311,12.8757,12.9159,12.9311,12.8757,13.0701,13.2196,13.2538,13.4538,13.5689,13.5461,13.5981,13.6031,13.5461,13.5068,13.4904,13.4904,13.4904,13.4904,13.4904,13.4904,13.4904,13.4904,13.4904,13.4904,13.4904,13.4904,13.4904,13.4904,13.4904,13.4904,13.4904,13.4904,13.4904,13.4904,13.4904,13.4904,13.4828,13.4373,13.4208,13.4145,13.3576,13.3449,13.3525,13.4031,13.3981,13.3804,13.4095,13.3981,13.369,13.3462,13.3804,13.4259,13.479,13.4904,13.4904,13.4904,13.4904,13.4904,13.4904,13.4904,13.4904,13.4904,13.5359,13.5575,13.5018,13.5359,13.5575,13.4954,13.4904,13.4904,13.4904,13.4904,13.4904,13.4904,13.4904,13.4904,13.4904,13.4904,13.4904,13.4904,13.4904,13.4904,13.4904,13.4904,13.4904,13.4904,13.4904,13.4904,13.4904,13.4904,13.4904,13.4904,13.4904,13.4904,11.058,11.1733,11.2735,11.3502,11.3783,11.464,11.7845,11.739,11.6879,11.9288,12.0484,12.1338,12.2154,12.4962,12.7489,12.8362,12.8628,12.8643,12.8643,12.8757,12.887,12.887,13.0298,13.1665,13.2538,13.4031,13.5284,13.6209,13.6323,13.6335,13.6259,13.5473,13.4954,13.4904,13.4904,13.4904,13.4904,13.4904,13.4904,13.4904,13.4904,13.4904,13.4904,13.4904,13.4904,13.4904,13.4954,13.4942,13.4904,13.4954,13.4942,13.4904,13.4904,13.4904,13.4904,13.4904,13.4904,13.4904,13.4904,13.4904,13.4904,13.4904,13.4436,13.3917,13.4714,13.4373,13.3981,13.4714,13.4904,13.4904,13.4904,13.4904,13.4904,13.4904,13.4904,13.4904,13.4904,13.4904,13.4904,13.4904,13.4904,13.4904,13.4904,13.4904,13.4904,13.4904,13.4904,13.4904,13.4904,13.4904,13.4904,13.4904,13.4904,13.4904,13.4904,13.4904,13.4904,13.4904,13.4904,13.4904,13.4904,13.4904,13.4904,13.4904,13.4904,13.4904,13.4904,13.4904,13.4904,13.4904,13.4904,13.4904,10.9138,11.086,11.2735,11.3502,11.4239,11.515,11.6517,11.6572,11.6592,11.7752,11.8719,11.961,12.037,12.223,12.4337,12.6404,12.7846,12.8643,12.8643,12.9781,13.064,13.064,13.1613,13.2538,13.3348,13.4436,13.5347,13.6209,13.6828,13.6904,13.6323,13.6095,13.5587,13.4942,13.4904,13.4904,13.4904,13.4904,13.4904,13.4904,13.4904,13.4904,13.4904,13.4904,13.4904,13.4942,13.5689,13.5575,13.4942,13.5689,13.5511,13.4904,13.4904,13.4904,13.4904,13.4904,13.4904,13.4904,13.4904,13.4904,13.4904,13.4904,13.479,13.4676,13.4828,13.4726,13.4676,13.484,13.4904,13.4904,13.4904,13.4904,13.4904,13.4904,13.4904,13.4904,13.4904,13.4904,13.4904,13.4904,13.4904,13.4904,13.4904,13.4904,13.4904,13.4904,13.4904,13.4904,13.4904,13.4904,13.4904,13.4904,13.4904,13.4904,13.4904,13.4904,13.4904,13.4904,13.4904,13.4904,13.4904,13.4904,13.4904,13.4904,13.4904,13.4904,13.4904,13.4904,13.4904,13.4904,13.4904,13.4904,10.9517,11.1125,11.2545,11.2568,11.3251,11.4217,11.5432,11.5378,11.5513,11.7107,11.8093,11.9154,12.0313,12.1584,12.3254,12.5721,12.7602,12.8855,12.9273,13.007,13.0981,13.1741,13.1893,13.2601,13.4208,13.4778,13.5563,13.6714,13.7181,13.7409,13.7462,13.6676,13.6031,13.5575,13.5132,13.4904,13.4904,13.4904,13.5132,13.5511,13.5068,13.5132,13.5473,13.5068,13.4904,13.4942,13.5917,13.5701,13.4954,13.5917,13.5701,13.4904,13.4904,13.4904,13.4904,13.4904,13.4904,13.4904,13.4904,13.4904,13.4904,13.4904,13.4904,13.4904,13.4904,13.4904,13.4904,13.4904,13.4904,13.4904,13.4904,13.4904,13.4904,13.4904,13.4904,13.4904,13.4904,13.4904,13.4904,13.4904,13.4904,13.4904,13.4904,13.4904,13.4904,13.4904,13.4904,13.4904,13.4904,13.4904,13.4904,13.4904,13.4904,13.4904,13.4904,13.4904,13.4904,13.4904,13.4904,13.4778,13.4373,13.4031,13.4019,13.4373,13.4373,13.4373,13.4373,13.4373,13.4208,13.3804,13.3804,13.3804,11.0214,11.1657,11.2393,11.1733,11.215,11.3077,11.4558,11.4185,11.4185,11.6368,11.7562,11.8699,12.037,12.1452,12.2895,12.5206,12.6919,12.84,12.9615,13.0056,13.0853,13.2538,13.1969,13.2411,13.4778,13.4994,13.5525,13.7132,13.736,13.775,13.8564,13.7235,13.6373,13.6259,13.5359,13.5018,13.5284,13.517,13.5473,13.6259,13.5295,13.5347,13.6031,13.5246,13.4904,13.4942,13.5917,13.5701,13.4954,13.5917,13.5701,13.4904,13.4904,13.4904,13.4904,13.4904,13.4904,13.4904,13.4904,13.4904,13.4904,13.4904,13.4904,13.4904,13.4904,13.4904,13.4904,13.4904,13.4904,13.4904,13.4904,13.4904,13.4904,13.4904,13.4904,13.4904,13.4904,13.4904,13.4904,13.4904,13.4904,13.4904,13.4904,13.4904,13.4904,13.4904,13.4904,13.4904,13.4904,13.4904,13.4904,13.4904,13.4904,13.4904,13.4904,13.4904,13.484,13.4714,13.4714,13.4373,13.3576,13.2942,13.288,13.3563,13.3563,13.3563,13.3563,13.3563,13.3221,13.2538,13.2538,13.2538,10.8758,11.0746,11.2659,11.316,11.3441,11.3615,11.3843,11.3274,11.3024,11.4071,11.5036,11.6137,11.7731,11.9288,12.0901,12.2723,12.3882,12.559,12.8514,13.0132,13.1665,13.3335,13.288,13.3056,13.4778,13.4322,13.46,13.6335,13.7056,13.7474,13.7636,13.7409,13.6942,13.6259,13.5359,13.5587,13.7029,13.6373,13.6145,13.6259,13.5295,13.4954,13.5068,13.4954,13.4904,13.4942,13.5917,13.5701,13.4954,13.5917,13.5701,13.4904,13.4904,13.4904,13.4904,13.4904,13.4904,13.4904,13.4904,13.4904,13.4904,13.4904,13.4904,13.4904,13.4904,13.4904,13.4904,13.4904,13.4904,13.4904,13.4904,13.4904,13.4904,13.4904,13.4904,13.4904,13.4904,13.4904,13.4904,13.4904,13.4904,13.4904,13.4904,13.4904,13.4904,13.4904,13.4904,13.4904,13.4904,13.4904,13.4904,13.4904,13.4904,13.4904,13.4904,13.4904,13.46,13.3917,13.3917,13.3563,13.2766,13.2652,13.2652,13.2766,13.2766,13.2766,13.2766,13.2766,13.2652,13.2538,13.2538,13.2538,10.9555,11.1923,11.3761,11.3251,11.3388,11.3729,11.3729,11.3138,11.294,11.4217,11.4808,11.5719,11.7731,11.9516,12.1395,12.3482,12.4966,12.6463,12.8415,12.9729,13.1209,13.288,13.2766,13.3221,13.4726,13.46,13.4892,13.6145,13.66,13.7181,13.8157,13.7701,13.7474,13.7587,13.6726,13.6676,13.7409,13.6676,13.6486,13.6904,13.5575,13.5132,13.5587,13.5132,13.4904,13.4942,13.5917,13.6031,13.5689,13.6042,13.6031,13.5587,13.5068,13.4904,13.4904,13.4904,13.4904,13.4904,13.4904,13.4904,13.4904,13.4904,13.4904,13.4904,13.4904,13.4904,13.4904,13.4904,13.4904,13.4904,13.4904,13.4904,13.4904,13.4904,13.4904,13.4904,13.4904,13.4904,13.4904,13.4904,13.4904,13.4904,13.4904,13.4904,13.4904,13.4904,13.4904,13.4904,13.4904,13.4904,13.4904,13.4904,13.4904,13.4904,13.4904,13.4487,13.4145,13.3753,13.3335,13.2766,13.1855,13.1855,13.1627,13.1209,13.1613,13.1855,13.1855,13.1855,13.1613,13.1209,13.1209,13.1209,11.1201,0.0,11.4466,11.3419,11.3593,11.3957,0.0,11.3251,11.3191,11.4466,11.4922,11.5719,11.7787,11.9724,12.1642,12.3768,12.5493,12.7147,12.8514,12.9273,13.0474,13.2601,13.2652,13.3221,13.4726,13.4714,13.5006,13.5917,13.6145,13.6828,13.8146,13.7701,13.775,13.845,13.7978,13.7815,13.8043,13.7246,13.7018,13.7409,13.5929,13.5473,13.5917,13.5182,13.5018,13.5246,13.5701,13.6095,13.6259,13.6031,13.5981,13.5917,13.517,13.4904,13.4904,13.4904,13.4904,13.4904,13.4904,13.4904,13.4904,13.4904,13.4904,13.4904,13.4904,13.4904,13.484,13.4714,13.4726,13.4904,13.4904,13.4904,13.4904,13.4904,13.4904,13.4904,13.4904,13.4904,13.4904,13.4904,13.4904,13.4904,13.4904,13.4904,13.4904,13.4904,13.4904,13.4904,13.4904,13.4904,13.4904,13.4904,13.4904,13.4904,13.4904,13.4031,13.3348,13.312,13.2601,13.1855,13.0981,13.0929,13.064,13.0056,13.064,13.0929,13.0929,13.0929,13.064,13.0056,13.0056,13.0056,0.0,11.3675,11.3957,11.4694,11.4922,11.4786,11.3903,11.3675,0.0,11.3789,11.4466,11.5378,11.6251,11.8415,12.0332,12.1395,12.2953,12.5135,12.8286,12.8741,12.9971,13.3234,13.2994,13.3221,13.4726,13.4259,13.4145,13.4942,13.5803,13.6323,13.6448,13.7067,13.7474,13.7522,13.8271,13.903,13.9751,13.902,13.8222,13.7409,13.6562,13.5803,13.5018,13.4942,13.5359,13.6145,13.5295,13.5473,13.6209,13.5359,13.5018,13.5018,13.4942,13.4904,13.4904,13.4904,13.4904,13.4904,13.4904,13.4904,13.4904,13.4904,13.4904,13.4904,13.4904,13.4904,13.4726,13.4031,13.4373,13.4904,13.4904,13.4904,13.4904,13.4904,13.4904,13.4904,13.4904,13.4904,13.4904,13.4904,13.4904,13.4904,13.4904,13.4904,13.4904,13.4904,13.4904,13.4904,13.4904,13.4904,13.4904,13.4904,13.4904,13.4904,13.4904,13.3525,13.231,13.1437,13.1323,13.0981,13.017,13.0132,13.007,13.0056,13.007,13.0132,13.0132,13.0132,13.007,13.0056,13.0056,13.0056,11.3729,11.4526,11.515,11.4412,11.464,11.4976,11.4672,11.4125,11.3979,11.5057,11.515,11.5491,11.6765,11.906,12.1224,12.2649,12.4679,12.6919,12.9197,12.9956,13.0754,13.1969,13.2424,13.2766,13.3348,13.4031,13.46,13.4904,13.5182,13.5689,13.6221,13.6498,13.6714,13.6714,13.7474,13.8108,13.8385,13.8054,13.7815,13.7409,13.7132,13.6562,13.5803,13.5803,13.5587,13.5359,13.5056,13.5461,0.0,13.5246,13.5246,13.5689,13.5132,13.4904,13.4904,13.4904,13.4904,13.4904,13.4904,13.46,13.4259,13.4726,13.46,13.4259,13.4726,13.4259,13.3348,13.3107,13.3221,13.3449,13.3449,13.3804,13.4208,13.4208,13.4563,13.4904,13.4904,13.4904,13.4904,13.4904,13.4904,13.4904,13.4904,13.4904,13.4904,13.4904,13.4904,13.4904,13.4904,13.4904,13.4904,13.4904,13.4487,13.3981,13.3462,13.2424,13.1613,13.1209,13.0754,13.036,13.0056,13.0056,13.0056,13.0056,13.0056,13.0056,13.0056,13.0056,13.0056,13.0056,13.0056,13.0056,11.4185,11.5036,11.5513,11.4071,11.4412,11.4976,11.4694,11.4352,11.458,11.5947,11.6023,11.6196,11.7618,11.9971,12.2041,12.3236,12.5476,12.7656,12.9372,13.0298,13.1043,13.1613,13.2196,13.2424,13.2183,13.3348,13.4373,13.484,13.4904,13.517,13.5803,13.6145,13.6259,13.6259,13.679,13.7181,13.7409,13.7409,13.7295,13.7067,13.7067,13.6612,13.5815,13.5815,13.5473,13.4942,13.4942,13.5246,13.5803,13.5132,13.5246,13.5803,13.5132,13.4726,13.4499,13.4499,13.4373,13.4145,13.4145,13.3804,13.3449,13.3981,13.3804,13.3449,13.4031,13.3221,13.2196,13.2525,13.2538,13.2538,13.2538,13.2994,13.3348,13.3348,13.3791,13.4259,13.4487,13.4499,13.46,13.484,13.4904,13.4904,13.4904,13.4904,13.4904,13.4904,13.4904,13.4904,13.4904,13.4904,13.4828,13.4563,13.4031,13.3335,13.2196,13.1323,13.0868,13.0868,13.0298,13.0056,13.0056,13.0056,13.0056,13.0056,13.0056,13.0056,13.0056,13.0056,13.0056,13.0056,13.0056,13.0056,11.4634,11.509,11.4862,11.3957,11.4412,11.4808,11.3957,11.4412,11.5318,11.6082,11.6879,11.7676,11.8605,12.0787,12.2457,12.2457,12.4523,12.6745,12.8415,12.9486,13.064,13.231,13.2538,13.2196,13.1323,13.2069,13.3221,13.4726,13.4904,13.4904,13.4904,13.5803,13.6259,13.6259,13.6259,13.66,13.7409,13.7409,13.7018,13.6259,13.6259,13.5803,13.4942,13.4942,13.5006,13.5108,13.4942,13.4904,13.4904,13.4904,13.4904,13.4904,13.4904,13.4373,13.369,13.369,13.3221,13.2538,13.2538,13.2538,13.2538,13.2538,13.2538,13.2538,13.2538,13.1893,13.1399,13.231,13.2538,13.2538,13.2538,13.2538,13.2538,13.2538,13.2538,13.2766,13.3563,13.369,13.3917,13.4778,13.4904,13.4904,13.4904,13.4904,13.4904,13.4904,13.4904,13.4904,13.4904,13.4904,13.46,13.3804,13.369,13.3007,13.1323,13.0474,13.0056,13.0056,13.0056,13.0056,13.0056,13.0056,13.0056,13.0056,13.0056,13.0056,13.0056,13.0056,13.0056,13.0056,13.0056,13.0056,11.4922,11.5491,11.5378,11.3419,11.4444,11.5546,11.4071,11.4412,11.5437,11.6765,11.682,11.7048,11.8491,12.0313,12.1851,12.2381,12.4523,12.6745,12.8415,12.9486,13.0412,13.1499,13.1627,13.1513,13.1209,13.1499,13.231,13.3917,13.46,13.4904,13.4904,13.5132,13.5347,13.5347,13.5347,13.5397,13.5689,13.627,13.6486,13.6259,13.6828,13.6676,13.5815,13.5815,13.5511,13.4942,13.4373,13.4095,13.4031,13.3462,13.3234,13.3234,13.3234,13.3107,13.2942,13.2942,13.2766,13.2538,13.2538,13.2183,13.1727,13.231,13.2183,13.1513,13.0929,13.0587,13.0474,13.0701,13.0754,13.0754,13.0754,13.1209,13.1627,13.1627,13.2082,13.2652,13.288,13.2942,13.317,13.3917,13.4095,13.4259,13.4828,13.4904,13.4904,13.4904,13.4904,13.4904,13.4904,13.4436,13.3981,13.3753,13.2652,13.1551,13.0474,13.017,13.0056,13.0056,13.0056,13.0056,13.0056,13.0056,13.0056,13.0056,12.9387,12.9387,13.0056,12.9387,12.9387,13.0056,13.0056,13.0056,11.509,11.566,11.5719,11.3555,11.4444,11.5399,11.4017,11.4125,11.5036,11.6651,11.6592,11.682,11.887,12.037,12.1642,12.2799,12.4793,12.6518,12.7542,12.8741,12.9714,13.0123,13.0526,13.0754,13.0754,13.1043,13.1627,13.2652,13.3804,13.4449,13.4449,13.4714,13.4904,13.4904,13.4904,13.4904,13.4904,13.5461,13.5701,13.5701,13.6221,13.6156,13.5701,13.5701,13.5246,13.4436,13.3917,13.3753,13.3677,13.288,13.2766,13.2994,13.2652,13.231,13.2069,13.2069,13.1841,13.1551,13.1551,13.1209,13.0815,13.1385,13.1209,13.064,13.017,13.0056,13.0056,13.0056,13.0056,13.0056,13.0056,13.0398,13.0754,13.0754,13.1157,13.1665,13.1969,13.2069,13.2297,13.3107,13.3234,13.3449,13.3905,13.3981,13.3981,13.3981,13.3981,13.3981,13.3981,13.3563,13.3107,13.2766,13.1551,13.0526,13.0056,13.0056,13.0056,13.0056,12.9714,12.9501,12.9501,12.9197,12.903,12.903,12.8514,12.8514,12.903,12.8514,12.8514,12.903,12.903,12.903,11.4922,11.5605,11.5833,11.4185,11.4466,11.4922,11.3957,11.3843,11.4412,11.5947,11.6251,11.6993,11.9402,12.0484,12.1623,12.3409,12.4962,12.6008,12.6116,12.7542,12.8628,12.8643,12.9501,13.0056,13.0056,13.0701,13.1157,13.1209,13.2652,13.3462,13.3462,13.4271,13.479,13.479,13.484,13.4904,13.4904,13.4904,13.4904,13.4904,13.4904,13.4904,13.4904,13.4904,13.4487,13.3804,13.3791,13.369,13.3563,13.2766,13.2828,13.3335,13.2589,13.1841,13.1095,13.1095,13.064,13.0056,13.0056,13.0056,13.0056,13.0056,13.0056,13.0056,13.0056,13.0056,13.0056,13.0056,13.0056,13.0056,13.0056,13.0056,13.0056,13.0056,13.0056,13.0246,13.0981,13.1095,13.1385,13.2297,13.2424,13.2487,13.2538,13.2538,13.2538,13.2538,13.2538,13.2538,13.2538,13.2525,13.2082,13.1209,13.0474,13.0056,13.0056,12.9942,12.9942,12.9942,12.9045,12.8529,12.8529,12.7884,12.7489,12.7489,12.7435,12.7435,12.7489,12.7435,12.7435,12.7489,12.7489,12.7489,11.3843,11.5095,11.5833,11.4185,11.4868,11.5605,11.4071,11.4754,11.5795,11.6175,11.6251,11.682,11.8699,11.9174,12.0085,12.2381,12.3596,12.4734,12.5948,12.7087,12.7998,12.8628,12.9501,13.0056,13.0056,13.0231,13.0526,13.1171,13.1551,13.1741,13.1741,13.3221,13.3981,13.3981,13.46,13.4904,13.4904,13.4904,13.4904,13.4904,13.4904,13.4904,13.4904,13.4904,13.4828,13.46,13.4031,13.3348,13.2766,13.1855,13.1209,13.0815,13.064,13.0474,13.0284,13.0284,13.017,13.0056,13.0056,13.0056,13.0056,13.0056,13.0056,13.0056,13.0056,13.0056,13.0056,13.0056,13.0056,13.0056,13.0056,13.0056,13.0056,13.0056,13.0056,13.0056,13.0246,13.0284,13.0526,13.1323,13.1513,13.1741,13.2424,13.2538,13.2538,13.2538,13.2538,13.2538,13.2538,13.1955,13.1209,13.036,13.0132,13.0056,13.0056,12.9387,12.8969,12.8969,12.8232,12.7777,12.7777,12.7602,12.7489,12.7489,12.6805,12.6805,12.7489,12.6805,12.6805,12.7489,12.7489,12.7489,11.3388,11.4694,11.5491,11.458,11.5036,11.5437,11.458,11.4444,11.4694,11.5546,11.5681,11.6458,11.887,11.9686,12.0769,12.3254,12.4051,12.4679,12.5493,12.635,12.7147,12.8058,12.8855,12.96,13.0018,13.0056,13.0184,13.0625,13.0981,13.1209,13.1209,13.202,13.2766,13.3221,13.3917,13.4373,13.4373,13.4714,13.4904,13.4904,13.4904,13.4904,13.4904,13.4904,13.4904,13.484,13.4031,13.3462,13.3056,13.1741,13.0981,13.0587,13.0231,13.0056,13.0056,13.0056,13.0056,13.0056,13.0056,13.0056,12.9942,12.9083,12.8802,12.8802,12.8802,12.8802,12.8802,12.8802,12.8802,12.8802,12.8802,12.8802,12.8802,12.8802,12.8802,12.8916,12.9273,12.9729,13.017,13.0587,13.064,13.0815,13.1271,13.1385,13.1385,13.1385,13.1385,13.1385,13.1385,13.0929,13.0474,13.0056,12.9615,12.9387,12.9387,12.8628,12.8073,12.8073,12.7315,12.6859,12.6859,12.6501,12.6333,12.6333,12.5835,12.5835,12.6333,12.5835,12.5835,12.6333,12.6333,12.6333,11.2682,11.3821,11.4634,11.4634,11.4634,11.4634,11.4634,11.3647,11.3077,11.4352,11.4976,11.6116,11.8776,12.0142,12.1737,12.4337,12.4907,12.5021,12.5151,12.6008,12.6745,12.7201,12.8073,12.8969,12.9729,12.9942,13.0056,13.0056,13.064,13.1043,13.1043,13.1043,13.1437,13.231,13.2994,13.3348,13.3563,13.4208,13.4487,13.4487,13.46,13.4714,13.4714,13.4828,13.4904,13.484,13.4259,13.3867,13.3576,13.2082,13.1323,13.1095,13.017,12.9828,12.9828,12.9615,12.96,12.96,12.96,12.96,12.9372,12.7944,12.7489,12.7489,12.7489,12.7489,12.7489,12.7489,12.7489,12.7489,12.7489,12.7489,12.7489,12.7489,12.7489,12.7716,12.8301,12.9045,12.9615,12.9828,12.9942,13.0056,13.0056,13.0056,13.0056,13.0056,13.0056,13.0056,13.0056,12.9942,12.9729,12.96,12.8931,12.8514,12.8514,12.7716,12.7261,12.7261,12.6463,12.5948,12.5948,12.5362,12.5021,12.5021,12.5021,12.5021,12.5021,12.5021,12.5021,12.5021,12.5021,12.5021,11.0214,11.1672,11.2849,11.2849,11.2849,11.2849,11.2849,11.3251,11.3388,11.2963,11.458,11.6196,11.6651,11.8073,12.018,12.3464,12.4565,12.5249,12.5889,12.7375,12.7846,12.6518,12.7732,12.8741,12.8855,12.96,13.0056,13.0056,13.0132,13.0231,13.0231,13.0231,13.0587,13.1385,13.1451,13.1955,13.2753,13.2828,13.288,13.288,13.3563,13.3905,13.3917,13.46,13.4904,13.4904,13.479,13.4373,13.3677,13.2766,13.1955,13.1057,12.9501,12.8855,12.8757,12.8119,12.783,12.783,12.783,12.783,12.783,12.7602,12.7489,12.7489,12.7489,12.7489,12.7489,12.7489,12.7489,12.7489,12.7489,12.7489,12.7489,12.7489,12.7489,12.7549,12.7663,12.7777,12.8058,12.8741,12.9501,13.0056,13.0056,13.0056,13.0056,13.0056,13.0056,13.0056,13.0056,12.9372,12.8628,12.7944,12.7716,12.7663,12.7663,12.6859,12.635,12.635,12.5607,12.5135,12.5135,12.5038,12.5021,12.5021,12.5021,12.5021,12.5021,12.5021,12.5021,12.5021,12.5021,12.5021,10.9545,11.057,11.1368,11.2279,11.2545,11.2545,11.2545,11.2401,11.234,11.2507,11.3729,11.5264,11.6651,11.8662,12.0996,12.3409,12.4451,12.4962,12.4848,12.5476,12.5818,12.5493,12.6176,12.6973,12.7944,12.8802,12.9273,12.9273,12.9729,13.0246,13.064,13.0284,13.0231,13.0526,13.0526,13.0981,13.1779,13.231,13.2538,13.2538,13.2942,13.3107,13.3107,13.3449,13.3576,13.3576,13.3576,13.3107,13.231,13.1969,13.1323,13.0412,12.9159,12.8643,12.859,12.783,12.7489,12.7489,12.7489,12.6919,12.545,12.1709,12.3043,12.539,12.1649,12.314,12.6062,12.6062,12.6062,12.6062,12.6062,12.6062,12.6062,12.6062,12.3246,12.1662,12.5815,12.3868,12.2602,12.7166,12.8703,12.9486,12.9942,13.0056,13.0231,13.064,13.0298,13.0056,13.0056,12.9273,12.8529,12.8187,12.7315,12.6745,12.6745,12.5948,12.5493,12.5493,12.5189,12.5021,12.5021,12.5021,12.5021,12.5021,12.5021,12.5021,12.5021,12.5021,12.5021,12.5021,12.5021,12.5021,10.8088,10.8885,10.9469,11.0912,11.1406,11.1558,11.1558,11.1201,11.1087,11.1786,11.291,11.432,11.6424,11.8927,12.1338,12.3464,12.4451,12.4848,12.4451,12.4451,12.4451,12.4679,12.4907,12.5476,12.6789,12.7944,12.8643,12.8643,12.9729,13.0512,13.0868,13.0526,13.0246,13.0056,13.0056,13.0298,13.0868,13.1613,13.1955,13.1955,13.2082,13.2196,13.2196,13.2487,13.2538,13.2538,13.2538,13.2196,13.1551,13.1323,13.0868,13.0246,12.9098,12.8643,12.8529,12.7542,12.7147,12.7147,12.7147,12.5274,12.1952,11.6742,11.7307,11.9318,11.6069,11.8541,12.2836,12.451,12.5021,12.5021,12.5021,12.5021,12.4569,12.2896,11.8697,11.6115,11.9937,11.8285,11.7783,12.3534,12.6704,12.8643,12.9501,12.9842,13.0246,13.0815,13.0412,12.9942,12.9714,12.9144,12.8529,12.8073,12.6875,12.6062,12.5894,12.5362,12.5021,12.5021,12.5021,12.4907,12.4679,12.4679,12.4565,12.4337,12.277,12.1906,12.1906,12.0294,11.9523,11.9582,12.116,12.2018,10.4736,10.5886,10.6683,10.7557,10.8303,10.8872,10.8872,10.9493,11.0114,11.0152,11.2022,11.4011,11.5036,11.7255,11.9971,12.3295,12.4451,12.5249,12.5948,12.6062,12.5493,12.4092,12.4565,12.5021,12.5135,12.7261,12.8643,12.8643,13.0184,13.0868,13.0132,13.0754,13.0815,13.0056,13.0056,13.0056,13.007,13.0132,13.017,13.017,13.0929,13.1285,13.1323,13.2196,13.2538,13.2538,13.2538,13.2538,13.2424,13.1551,13.1209,13.0981,12.9326,12.8643,12.8514,12.6859,12.623,12.623,12.623,12.2133,11.667,11.5497,11.1006,10.7249,11.325,11.5337,11.6886,12.3192,12.5021,12.5021,12.5021,12.5021,12.3407,11.7091,11.5337,11.3466,10.7499,11.0952,11.5507,11.6775,12.2747,12.783,12.8628,12.9486,13.0056,13.007,13.0056,12.9714,12.8855,12.8703,12.8073,12.642,12.6176,12.5835,12.5135,12.5021,12.5021,12.5021,12.5021,12.4679,12.392,12.3882,12.3464,12.2609,11.6692,11.3547,11.3547,10.7567,10.4652,10.4861,11.0787,11.4029,10.2876,10.3608,10.4292,10.6228,10.6949,10.7291,10.7771,10.8164,10.8544,10.9024,11.0693,11.2568,11.3957,11.6706,11.9288,12.1015,12.3009,12.411,12.3823,12.4279,12.4224,12.3123,12.3692,12.4451,12.4924,12.6745,12.84,12.9486,13.0587,13.1323,13.1665,13.1955,13.1727,13.0815,13.0815,13.0526,13.0056,13.0056,13.0056,13.0056,13.0298,13.0474,13.0474,13.0815,13.0929,13.0929,13.0929,13.0929,13.0929,13.0587,13.0474,13.0298,12.9159,12.8643,12.8529,12.7428,12.7033,12.6244,12.0912,11.7483,11.415,10.5319,10.3652,10.4792,10.3003,10.5378,11.006,11.6731,11.8601,11.9617,12.386,12.1812,11.8026,11.5648,10.8629,10.2942,10.4792,10.3714,10.5201,11.4625,11.8578,12.2191,12.7747,12.9486,13.0184,13.0701,13.036,12.9942,12.96,12.9045,12.8286,12.7147,12.6518,12.5835,12.5038,12.5021,12.3027,11.8391,11.814,11.5962,11.1047,11.0833,11.0671,11.0362,10.7679,10.6282,10.6282,10.3708,10.267,10.3062,10.5304,10.6742,9.9356,9.8941,9.8802,10.0422,10.1337,10.2017,10.2697,10.4396,10.6064,10.7202,10.8758,11.067,11.291,11.5605,11.8073,11.9687,12.1414,12.2495,12.2457,12.3009,12.3123,12.2513,12.3254,12.411,12.4907,12.6274,12.7777,12.9486,13.036,13.1095,13.1727,13.1727,13.1551,13.1209,13.064,13.0412,13.0412,13.017,13.0056,13.0056,13.0056,13.0056,13.0056,13.0056,13.0056,13.0056,13.0056,13.0056,13.0056,13.0056,13.0056,12.9956,12.9387,12.9159,12.8984,12.7944,12.5974,12.306,11.7229,11.217,10.6796,9.7803,9.6285,9.7559,9.5476,9.7839,10.2743,10.9535,11.1481,11.2517,11.7151,11.5036,11.1215,10.8995,10.1765,9.599,9.8093,9.6935,9.818,10.7533,11.3425,11.8529,12.4033,12.7753,13.0184,13.0754,13.036,13.0056,13.0056,12.9501,12.8817,12.8005,12.7375,12.6577,12.5493,12.3164,11.96,11.4616,11.2032,10.8359,10.3062,10.291,10.2657,10.2146,9.9674,9.8294,9.8294,9.5812,9.4771,9.5135,9.7342,9.8728,9.3977,9.1853,9.0085,8.9815,9.1164,9.2707,9.3253,9.7891,10.2568,10.4272,10.6077,10.843,11.1786,11.3875,11.6116,11.9288,11.9857,12.0541,12.2154,12.2399,12.2457,12.2399,12.3236,12.411,12.4848,12.5607,12.6745,12.8415,12.9486,12.9956,13.0056,13.0056,13.0412,13.1157,12.9553,12.9501,13.1095,13.036,12.9942,12.9942,12.9942,13.0003,13.0018,13.0018,13.0018,13.0018,13.0018,12.9956,12.9942,12.9942,12.9942,12.9942,12.9942,12.9942,12.9729,12.7597,12.259,11.6619,11.5291,10.6059,9.4661,9.3711,8.9016,8.4981,9.1439,9.3413,9.4855,10.2053,10.4071,10.4263,10.4966,10.4945,10.3218,9.6935,9.5271,9.332,8.6848,9.0559,9.5203,9.5425,10.7159,11.7182,11.7551,12.4339,12.981,13.0018,13.0056,13.0056,13.0056,13.0056,12.9714,12.8757,12.8643,12.7899,12.5991,11.9394,11.491,11.37,10.7107,10.2551,10.0938,10.0842,10.0137,9.876,9.2584,8.9408,8.9408,8.3198,8.0179,8.0359,8.6593,8.9933,8.9506,8.6792,8.4678,8.3871,8.4361,8.5093,8.5436,9.0198,9.4857,9.6,10.1263,10.6291,10.8506,11.1733,11.458,11.6175,11.8415,12.0085,12.056,12.1698,12.2267,12.168,12.2953,12.3654,12.3236,12.3368,12.4165,12.5894,12.7375,12.8741,13.0003,13.0587,13.0701,13.036,12.9942,12.9273,12.8574,12.8286,12.8232,12.8232,12.8232,12.8514,12.9045,12.9045,12.9045,12.9045,12.9045,12.8741,12.8232,12.8232,12.8232,12.8232,12.8232,12.8232,12.693,11.622,11.4107,11.4991,10.4044,9.7751,9.3729,8.8267,8.5258,8.413,8.5982,8.6544,8.7889,9.47,9.6633,9.7767,10.2772,10.0428,9.638,9.4617,9.0484,8.6471,8.4625,8.6357,8.9825,9.5247,10.0298,10.6972,11.7339,12.1077,12.4274,12.9281,13.0056,13.0056,13.0056,13.0056,12.9714,12.8757,12.8172,12.5304,11.8926,11.61,11.0072,9.9345,9.6494,9.2671,8.7067,8.6031,8.5333,8.4969,8.241,8.1095,8.1095,7.8969,7.8118,7.8474,8.0243,8.169,8.5558,8.0992,7.6383,7.4535,7.4055,7.4641,7.6419,8.0803,8.5112,8.7073,9.1847,9.6509,9.9047,10.4141,10.8642,11.0673,11.484,11.8093,11.8776,12.0085,12.0883,12.0769,12.0958,12.0901,12.0389,12.0674,12.1642,12.335,12.4679,12.616,12.783,12.84,12.8855,12.9486,12.9144,12.8688,12.7998,12.7998,12.783,12.7489,12.7489,12.7716,12.8172,12.8172,12.8172,12.8172,12.8172,12.7944,12.7489,12.7489,12.7489,12.7286,12.4439,12.5058,12.5718,11.0795,10.5785,10.5275,9.6721,9.1638,8.8263,8.4032,8.2559,8.2351,8.2351,8.2351,8.3267,8.7612,8.8824,8.9831,9.4163,9.2427,8.9513,8.9513,8.6615,8.3779,8.3779,8.4325,8.613,9.0686,9.4697,10.0988,11.2662,11.7339,12.0811,12.479,12.8057,13.0056,13.0056,13.0056,12.9828,12.9273,12.8514,12.4579,11.6186,10.9549,10.2021,9.2957,8.8872,8.4759,8.0376,7.9253,7.8526,7.8033,7.7352,7.6917,7.671,7.6404,7.6404,7.671,7.671,7.6917,7.9985,7.3714,6.6689,6.3377,6.228,6.2971,0.0,7.0498,7.4389,7.7466,8.027,8.3224,8.6878,9.3511,9.9817,10.4061,10.9892,11.4664,11.6844,11.7979,11.8776,11.9288,11.7866,11.6879,11.6993,11.7731,11.8927,12.0598,12.1452,12.2685,12.462,12.4793,12.5932,12.8187,12.7656,12.7656,12.8286,12.8172,12.783,12.7201,12.7147,12.7147,12.7375,12.7375,12.7435,12.7489,12.6539,12.6185,12.6125,12.5177,12.4861,12.4258,11.8371,11.958,12.2822,10.699,9.7616,9.258,9.1647,8.6838,8.1139,8.1,8.0585,8.0083,8.0083,8.0161,8.0447,8.1433,8.1858,8.2134,8.313,8.3416,8.3494,8.3416,8.3416,8.3416,8.3416,8.3546,8.3831,8.4261,9.0019,9.7281,10.5107,11.2788,11.8045,11.872,12.441,12.8893,12.9667,12.9729,12.9729,12.9729,12.9045,12.4974,11.6232,10.2171,9.2964,9.0866,8.3632,7.9183,7.867,7.7884,7.6969,7.5848,7.5776,7.549,7.4997,7.4997,7.4997,7.4997,7.4997,7.4716,0.0,0.0,0.0,0.0,0.0,0.0,0.0,6.0975,6.5749,6.6842,7.2778,7.8654,8.134,8.592,9.1819,9.9677,10.4144,10.8712,11.4702,11.6765,11.7276,11.6137,11.4558,11.3761,11.4412,11.4602,11.5399,11.7103,11.7979,11.9706,12.2799,12.3654,12.4565,12.5704,12.6176,12.6176,12.5704,12.5076,12.5021,12.5476,12.4793,12.5189,12.6404,12.6404,12.6805,12.7172,12.0625,11.7807,11.7278,11.0891,10.8242,10.8088,10.6821,10.6792,10.5766,9.1461,8.8996,9.1798,8.4996,8.175,8.0377,7.9468,7.9164,7.9027,7.9027,7.9312,7.9668,7.9936,8.0663,8.1364,8.1018,8.1364,8.1572,8.107,8.094,8.094,8.094,8.2143,8.3192,8.327,8.5924,9.0425,9.755,10.5359,11.2278,11.7118,11.9135,12.1979,12.7339,12.8005,12.8005,12.8005,12.783,12.4416,11.6126,10.1287,8.977,8.3703,8.053,7.8611,7.7981,7.6476,7.5417,7.4772,7.4222,7.3937,7.3803,7.3803,7.3803,7.3803,7.3803,7.3232,0.0,0.0,0.0,0.0,0.0,0.0,0.0,0.0,0.0,0.0,0.0,6.7013,6.9949,0.0,8.1181,8.7989,9.6329,10.3589,10.854,11.2541,11.4352,11.2735,11.1824,11.1444,11.1847,11.2226,11.3024,11.4331,11.515,11.6651,11.9232,12.0142,12.1414,12.3123,12.4337,12.4793,12.4393,12.4434,12.4434,12.4393,12.0613,12.0812,12.4237,12.1293,12.1871,12.4553,11.7354,11.4163,11.364,10.6224,10.3002,10.1986,9.4776,9.1718,9.0647,8.3691,8.3433,8.5831,8.1159,7.9312,7.8812,7.7754,7.7183,7.7053,7.7255,7.754,7.7955,7.8871,7.9728,8.0377,8.0291,8.0793,8.1078,8.0447,8.0291,8.0291,8.0291,8.1,8.1728,8.2075,8.3197,8.6639,9.4372,9.8592,10.3347,11.0608,11.4838,11.9734,12.6607,12.4597,12.2702,12.2982,11.9669,11.4314,10.6669,9.792,8.9531,8.1773,7.8819,7.7261,7.6917,7.5226,7.4222,7.3937,7.308,7.2454,7.2223,7.1963,7.1807,7.1807,7.1236,7.0664,0.0,0.0,0.0,0.0,0.0,0.0,0.0,0.0,0.0,0.0,0.0,0.0,0.0,0.0,0.0,7.621,8.8211,9.8241,10.221,10.6543,10.9045,10.8079,10.7802,10.7275,10.6251,10.6944,10.7777,10.8695,10.9437,11.1088,11.3908,11.4862,11.6805,12.0199,12.0832,12.1095,12.1095,12.0506,12.0015,11.9513,11.3971,0.0,11.8357,11.3712,11.4774,11.9808,11.2078,10.9371,10.9784,10.1638,9.8061,9.6461,8.4337,7.9668,7.9668,7.9746,7.9876,7.9798,7.8455,7.7676,7.7047,7.5848,7.5205,7.5001,7.5356,7.5589,0.0,7.7469,7.8462,7.9097,7.9538,8.0083,8.0429,7.9894,7.9746,7.9668,7.9798,7.9798,8.0014,8.0645,8.1208,8.3819,9.1011,9.1427,9.3665,10.2159,10.8516,11.5044,12.2397,11.8529,11.5322,11.6061,11.0495,10.3852,9.6618,9.4424,8.9842,8.1556,7.8111,7.6139,7.5568,7.4089,7.3235,7.3002,7.1961,7.1236,7.082,7.0223,6.9963,6.9911,6.7019,6.6376,0.0,0.0,0.0,0.0,0.0,0.0,0.0,0.0,0.0,0.0,0.0,0.0,0.0,0.0,0.0,0.0,8.1715,9.1463,9.9202,9.9008,9.8729,10.0498,9.9884,9.7469,9.2732,9.3269,9.4333,9.5239,9.5801,9.908,10.5891,10.7052,0.0,0.0,0.0,11.1217,11.1217,10.5949,10.3623,10.4334,10.2762,10.2794,10.4176,10.3501,10.6535,11.1592,9.9042,9.6664,10.0606,8.7959,8.2761,8.2341,7.8781,7.7339,7.7391,7.7884,7.8397,7.8592,7.6404,0.0,0.0,7.4141,7.3726,7.3729,7.3726,7.4144,7.4642,7.485,7.6045,7.7261,7.7339,7.7754,7.8111,7.8033,7.7696,7.7469,7.7955,7.8033,7.8248,7.8878,7.9442,8.0436,8.246,8.2661,8.5459,9.3757,9.5773,9.9235,10.7455,10.6979,10.629,10.7435,10.5844,0.0,9.4659,9.2882,8.8769,8.0869,7.8604,7.6424,7.3881,7.3158,7.2301,7.1236,7.0638,7.0328,7.0276,6.9626,6.9314,6.9106,5.9913,5.912,0.0,0.0,0.0,0.0,0.0,0.0,0.0,0.0,0.0,0.0,0.0,0.0,0.0,0.0,0.0,0.0,7.1834,7.9345,8.3114,8.687,8.9831,9.165,9.1112,8.9906,8.8063,8.8443,8.9221,9.0199,9.0837,9.3013,9.727,9.8236,10.0531,10.4621,10.338,10.2877,10.3437,10.088,9.9775,10.0124,9.5888,9.5755,9.9272,9.5892,9.7632,10.2679,9.3379,9.0757,9.2356,8.275,7.8604,7.8189,0.0,0.0,0.0,0.0,7.7125,7.7391,7.5473,7.4508,7.3933,7.2454,7.2015,7.2039,7.2376,7.295,7.3576,7.4282,7.5188,7.5988,7.5988,7.6347,7.6626,7.6347,7.6139,7.5983,7.6274,7.6269,7.6347,7.6638,7.7391,0.0,7.8189,7.8533,8.1872,9.0842,9.2734,9.6027,10.4072,10.164,9.9467,10.0312,9.6463,9.2259,8.8255,8.7194,0.0,0.0,0.0,7.5931,7.4148,7.3498,0.0,0.0,0.0,6.7808,6.7107,6.2582,0.0,0.0,5.1059,5.0418,0.0,0.0,0.0,0.0,0.0,0.0,0.0,0.0,0.0,0.0,0.0,0.0,0.0,0.0,0.0,0.0,6.4099,7.0479,7.0863,7.6344,8.0965,8.2549,8.2514,8.1844,8.0539,8.1064,8.1846,8.2732,8.3336,8.5252,8.8732,8.9404,9.1346,9.4979,9.4303,9.4188,9.5025,9.3648,9.2882,9.2852,8.7986,8.7898,9.1774,8.7638,8.8935,9.4094,8.7718,8.588,8.674,8.0017,7.6969,7.6352,7.4867,7.4296,7.4319,7.4863,7.549,7.5781,7.4222,7.342,7.2742,7.1028,7.0379,7.0353,7.0897,7.126,7.1755,7.2926,7.3729,7.4296,7.4508,7.4919,7.5283,7.5053,7.4867,7.479,7.5001,7.4867,7.479,7.5001,7.5287,7.5495,7.536,7.6061,7.9251,8.6859,8.8723,9.1644,9.81,9.5044,9.2513,9.3211,8.8665,8.4962,8.3416,8.2507,8.1087,7.8878,7.6767,7.5287,7.4486,7.3365,7.2246,7.1053,6.8172,6.5237,0.0,0.0,0.0,0.0,0.0,0.0,0.0,0.0,0.0,0.0,0.0,0.0,0.0,0.0,0.0,0.0,0.0,0.0,0.0,0.0,0.0,0.0,0.0,0.0,6.8312,6.9764,7.1514,7.3489,7.4476,7.2525,6.6183,6.7212,6.8469,6.8995,6.9519,7.3022,8.0452,8.0885,8.4262,9.1649,8.7035,8.4635,8.522,8.0157,7.763,7.763,7.7431,7.7431,7.7635,7.7431,8.0714,8.6122,7.9997,8.0358,8.477,7.8622,7.5776,7.5075,7.2739,7.1829,7.1907,7.2586,7.3158,7.3443,7.2246,7.1831,7.1492,6.9807,6.8899,6.8587,6.9106,6.8976,6.8795,6.999,7.1028,7.1961,7.2641,7.3158,7.3729,7.4356,7.3992,7.3729,7.4356,7.3992,7.3729,7.4356,7.308,7.2246,7.3362,7.4919,7.6897,7.9505,8.0305,0.0,8.4778,8.4558,8.4562,8.5761,8.4685,8.3353,8.2221,8.0585,7.939,7.8741,7.6045,7.4486,7.4434,7.2249,7.0509,6.9314,6.7549,6.2969,5.5503,0.0,0.0,0.0,0.0,0.0,0.0,0.0,0.0,0.0,0.0,0.0,0.0,0.0,0.0,0.0,0.0,0.0,0.0,0.0,0.0,0.0,0.0,0.0,0.0,6.0904,6.3276,6.4282,6.4372,6.3163,6.0171,6.1153,6.2349,6.3237,6.5188,6.7829,7.1132,7.2046,7.4042,7.732,7.6403,7.6137,7.6732,7.5354,7.466,7.466,7.466,7.466,7.466,7.5136,7.618,7.7649,7.6009,7.5893,7.6732,7.4665,7.2378,7.0068,6.8483,6.786,6.799,6.8873,6.9392,6.973,7.0431,7.0197,6.9288,6.7574,6.6899,6.6821,6.7342,6.7653,6.8042,6.9236,7.0093,7.082,7.1392,7.1677,7.1885,7.2093,7.1963,7.1885,7.2093,7.1963,7.1885,7.2093,7.0742,7.0041,7.1521,7.295,7.4508,7.6347,7.8455,8.0369,8.2143,8.3208,8.3909,8.4325,8.3987,8.3,8.1018,8.0309,7.8968,7.656,7.4794,7.3443,7.2662,7.082,6.9418,6.8717,6.7756,6.2741,5.3526,0.0,0.0,0.0,0.0,0.0,0.0,0.0,0.0,0.0,0.0,0.0,0.0,0.0,0.0,0.0,0.0,0.0,0.0,0.0,0.0,0.0,0.0,0.0,0.0,0.0,0.0,5.916,5.897,0.0,5.6579,5.7142,5.787,5.851,6.0848,6.3003,6.4769,6.6013,6.7443,6.9158,6.9911,7.0664,7.1444,7.2015,7.2378,7.2586,7.2739,7.2872,7.2869,7.3521,7.3573,7.3235,7.3654,7.316,7.1963,7.0795,6.8638,6.6063,6.5286,6.474,6.4532,6.56,6.6172,6.6611,6.8144,6.817,6.7314,6.6224,6.5029,6.4094,6.4409,6.4643,6.5084,6.6691,6.7834,6.8872,6.9807,7.0197,7.0353,7.0353,7.0353,7.0248,7.0093,6.9833,6.9573,6.921,6.8249,6.7325,6.6701,6.917,7.1138,7.1157,7.5033,7.8604,8.0377,8.2143,8.3197,8.3478,8.3286,8.2289,8.0161,7.959,7.8111,7.5131,7.3859,7.2454,7.0897,6.9392,6.7861,6.6301,6.5182,6.0383,0.0,0.0,0.0,0.0,0.0,0.0,0.0,0.0,0.0,0.0,0.0,0.0,0.0,0.0,0.0,0.0,0.0,0.0,0.0,0.0,0.0,0.0,0.0,0.0,0.0,0.0,0.0,5.7636,5.7714,0.0,0.0,0.0,0.0,5.4529,5.6085,5.8294,6.1075,6.2317,6.422,6.698,6.7236,6.786,6.9028,6.9652,7.0276,7.0742,7.126,7.1468,7.1492,7.2171,7.2433,7.2433,7.2433,7.1809,7.0483,6.6977,6.4584,6.3072,6.2916,6.2187,6.1361,6.2551,6.328,6.3856,6.513,6.5522,6.5519,6.5444,6.3185,6.0413,6.0309,5.9965,0.0,0.0,6.4298,6.6016,6.7782,6.8665,6.9054,6.908,6.908,6.8925,6.8405,6.7809,6.7056,6.586,6.56,6.4122,5.9257,0.0,6.7042,6.4074,7.0165,7.6118,7.9027,8.0862,8.2221,8.2776,8.2273,8.1286,7.9598,7.8397,7.6767,7.4542,7.3235,7.1521,6.921,6.7939,6.5556,6.197,5.9811,0.0,0.0,0.0,0.0,0.0,0.0,0.0,0.0,0.0,0.0,0.0,0.0,0.0,0.0,0.0,0.0,0.0,0.0,0.0,0.0,0.0,0.0,0.0,0.0,0.0,0.0,4.9629,5.1291,5.2875,5.2304,5.0875,0.0,0.0,0.0,0.0,0.0,0.0,5.5732,5.6595,5.8494,6.1731,6.2713,6.4324,6.6717,6.7314,6.7601,6.7757,6.7887,6.7965,6.799,6.8613,6.8924,6.8924,6.8924,6.8508,6.7444,6.2765,6.0296,5.9212,5.6683,5.5747,5.6007,5.7134,5.7411,5.7558,5.9958,6.0529,6.0069,5.9627,5.8614,5.7126,5.554,0.0,0.0,0.0,0.0,6.2567,6.5185,6.6275,6.6847,6.7212,6.7316,6.716,6.6639,6.6405,6.5444,6.2588,6.197,6.0443,5.5631,5.9567,0.0,6.1516,6.7783,7.3803,7.7183,7.9461,8.081,8.094,8.081,8.0239,7.9027,7.7832,7.6196,7.3859,7.1885,6.999,6.8118,6.5701,6.1588,5.5559,0.0,0.0,0.0,0.0,0.0,0.0,0.0,0.0,0.0,0.0,0.0,0.0,0.0,0.0,0.0,0.0,0.0,0.0,0.0,0.0,0.0,0.0,0.0,0.0,0.0,0.0,0.0,4.6313,4.8029,4.899,4.8278,4.6996,0.0,0.0,0.0,0.0,0.0,0.0,0.0,0.0,0.0,5.6813,5.7749,5.9256,6.1367,6.2692,6.3601,6.4046,6.5107,6.5704,6.5964,6.6561,6.6871,6.6871,6.6871,6.5081,6.1918,5.8822,5.6589,5.4901,0.0,0.0,0.0,0.0,5.2771,5.2811,5.4942,5.542,5.5056,5.4526,0.0,0.0,0.0,0.0,0.0,0.0,0.0,5.6943,5.9619,6.2578,6.4931,6.545,6.5574,6.5341,6.4535,6.238,5.9534,5.5842,5.4671,5.2336,4.6022,5.1524,0.0,0.0,0.0,7.1883,7.5417,7.8248,8.0032,8.0231,8.0083,7.959,7.88,7.7391,7.5495,7.2869,7.0845,6.8405,6.5493,6.3076,5.815,0.0,0.0,0.0,0.0,0.0,0.0,0.0,0.0,0.0,0.0,0.0,0.0,0.0,0.0,0.0,0.0,0.0,0.0,0.0,0.0,0.0,0.0,0.0,0.0,0.0,0.0,0.0,0.0,0.0,4.5378,4.5534,0.0,0.0,0.0,0.0,0.0,0.0,0.0,0.0,0.0,0.0,0.0,0.0,0.0,5.3628,5.503,5.7125,5.8684,5.966,6.1757,6.3102,6.3601,6.4194,6.4584,6.4717,6.422,0.0,5.5726,5.4834,0.0,0.0,0.0,0.0,0.0,0.0,0.0,0.0,0.0,0.0,0.0,0.0,0.0,0.0,0.0,0.0,0.0,0.0,0.0,0.0,0.0,0.0,6.1963,6.2263,6.2983,6.2793,6.0084,5.6012,5.176,4.8018,4.6584,4.3413,0.0,0.0,0.0,0.0,0.0,0.0,7.3573,7.7261,7.9676,8.0032,7.9746,7.9235,7.867,7.6897,7.466,7.1883,6.9651,6.6459,6.2146,6.038,0.0,0.0,0.0,0.0,0.0,0.0,0.0,0.0,0.0,0.0,0.0,0.0,0.0,0.0,0.0,0.0,0.0,0.0,0.0,0.0,0.0,0.0,0.0,0.0,0.0,0.0,0.0,0.0,0.0,0.0,0.0,0.0,0.0,0.0,0.0,0.0,0.0,0.0,0.0,0.0,0.0,0.0,0.0,0.0,0.0,0.0,0.0,0.0,0.0,0.0,5.5254,5.5981,5.6569,5.6699,5.7532,5.8658,5.5332,5.3472,5.2628,4.9733,0.0,0.0,0.0,0.0,0.0,0.0,0.0,0.0,0.0,0.0,0.0,0.0,0.0,0.0,0.0,0.0,0.0,0.0,0.0,0.0,0.0,0.0,5.374,5.3039,5.6849,5.7619,4.6633,0.0,0.0,0.0,0.0,0.0,0.0,0.0,0.0,0.0,0.0,0.0,7.1194,7.6482,7.939,7.9027,7.9312,7.9105,7.804,7.591,7.3859,7.1883,6.7081,6.2947,0.0,0.0,0.0,0.0,0.0,0.0,0.0,0.0,0.0,0.0,0.0,0.0,0.0,0.0,0.0,0.0,0.0,0.0,0.0,0.0,0.0,0.0,0.0,0.0,0.0,0.0,0.0,0.0,0.0,0.0,0.0,0.0,0.0,0.0,0.0,0.0,0.0,0.0,0.0,0.0,0.0,0.0,0.0,0.0,0.0,0.0,0.0,0.0,0.0,0.0,0.0,0.0,0.0,0.0,0.0,0.0,0.0,0.0,5.0552,4.7837,0.0,0.0,0.0,0.0,0.0,0.0,0.0,0.0,0.0,0.0,0.0,0.0,0.0,0.0,0.0,0.0,0.0,0.0,0.0,0.0,0.0,0.0,0.0,0.0,0.0,0.0,0.0,0.0,0.0,0.0,0.0,0.0,0.0,0.0,0.0,0.0,0.0,0.0,0.0,0.0,6.9001,7.5339,7.9008,7.8748,7.8956,7.8871,7.8326,7.5339,7.2508,7.0144,6.4951,0.0,0.0,0.0,0.0,0.0,0.0,0.0,0.0,0.0,0.0,0.0,0.0,0.0,0.0,0.0,0.0,0.0,0.0,0.0,0.0,0.0,0.0,0.0,0.0,0.0,0.0,0.0,0.0,0.0,0.0,0.0,0.0,0.0,0.0,0.0,0.0,0.0,0.0,0.0,0.0,0.0,0.0,0.0,0.0,0.0,0.0,0.0,0.0,0.0,0.0,0.0,0.0,0.0,0.0,0.0,0.0,0.0,0.0,0.0,4.6633,4.3311,0.0,0.0,0.0,0.0,0.0,0.0,0.0,0.0,0.0,0.0,0.0,0.0,0.0,0.0,0.0,0.0,0.0,0.0,0.0,0.0,0.0,0.0,0.0,0.0,0.0,0.0,0.0,0.0,0.0,0.0,0.0,0.0,0.0,0.0,0.0,0.0,0.0,0.0,0.0,0.0,6.5874,7.3666,7.8592,7.8689,7.8819,7.8663,7.817,7.4794,7.1236,6.7886,6.2567,0.0,0.0,0.0,0.0,0.0,0.0,0.0,0.0,0.0,0.0,0.0,0.0,0.0,0.0,0.0,0.0,0.0,0.0,0.0,0.0,0.0,0.0,0.0,0.0,0.0,0.0,0.0,0.0,0.0,0.0,0.0,0.0,0.0,0.0,0.0,0.0,0.0,0.0,0.0,0.0,0.0,0.0,0.0,0.0,0.0,0.0,0.0,0.0,0.0,0.0,0.0,0.0,0.0,0.0,0.0,0.0,0.0,0.0,0.0,0.0,0.0,0.0,0.0,0.0,0.0,0.0,0.0,0.0,0.0,0.0,0.0,0.0,0.0,0.0,0.0,0.0,0.0,0.0,0.0,0.0,0.0,0.0,0.0,0.0,0.0,0.0,0.0,0.0,0.0,0.0,0.0,0.0,0.0,0.0,0.0,0.0,0.0,0.0,0.0,0.0,0.0,6.0596,7.1117,7.8033,7.867,7.9157,7.8611,7.6419,7.4066,7.0535,6.5574,0.0,0.0,0.0,0.0,0.0,0.0,0.0,0.0,0.0,0.0,0.0,0.0,0.0,0.0,0.0,0.0,0.0,0.0,0.0,0.0,0.0,0.0,0.0,0.0,0.0,0.0,0.0,0.0,0.0,0.0,0.0,0.0,0.0,0.0,0.0,0.0,0.0,0.0,0.0,0.0,0.0,0.0,0.0,0.0,0.0,0.0,0.0,0.0,0.0,0.0,0.0,0.0,0.0,0.0,0.0,0.0,0.0,0.0,0.0,0.0,0.0,0.0,0.0,0.0,0.0,0.0,0.0,0.0,0.0,0.0,0.0,0.0,0.0,0.0,0.0,0.0,0.0,0.0,0.0,0.0,0.0,0.0,0.0,0.0,0.0,0.0,0.0,0.0,0.0,0.0,0.0,0.0,0.0,0.0,0.0,0.0,0.0,0.0,0.0,0.0,0.0,0.0,5.7853,6.9573,7.7488,7.8118,7.8319,7.7962,7.671,7.329,6.9262,6.4717,0.0,0.0,0.0,0.0,0.0,0.0,0.0,0.0,0.0,0.0,0.0,0.0,0.0,0.0,0.0,0.0,0.0,0.0,0.0,0.0,0.0,0.0,0.0,0.0,0.0,0.0,0.0,0.0,0.0,0.0,0.0,0.0,0.0,0.0,0.0,0.0,0.0,0.0,0.0,0.0,0.0,0.0,0.0,0.0,0.0,0.0,0.0,0.0,0.0,0.0,0.0,0.0,0.0,0.0,0.0,0.0,0.0,0.0,0.0,0.0,0.0,0.0,0.0,0.0,0.0,0.0,0.0,0.0,0.0,0.0,0.0,0.0,0.0,0.0,0.0,0.0,0.0,0.0,0.0,0.0,0.0,0.0,0.0,0.0,0.0,0.0,0.0,0.0,0.0,0.0,0.0,0.0,0.0,0.0,0.0,0.0,0.0,0.0,0.0,0.0,0.0,0.0,5.4898,6.7503,7.6352,7.7411,7.7546,7.7105,7.6066,7.2664,6.8457,6.3419,0.0,0.0,0.0,0.0,0.0,0.0,0.0,0.0,0.0,0.0,0.0,0.0,0.0,0.0,0.0,0.0,0.0,0.0,0.0,0.0,0.0,0.0,0.0,0.0,0.0,0.0,0.0,0.0,0.0,0.0,0.0,0.0,0.0,0.0,0.0,0.0,0.0,0.0,0.0,0.0,0.0,0.0,0.0,0.0,0.0,0.0,0.0,0.0,0.0,0.0,0.0,0.0,0.0,0.0,0.0,0.0,0.0,0.0,0.0,0.0,0.0,0.0,0.0,0.0,0.0,0.0,0.0,0.0,0.0,0.0,0.0,0.0,0.0,0.0,0.0,0.0,0.0,0.0,0.0,0.0,0.0,0.0,0.0,0.0,0.0,0.0,0.0,0.0,0.0,0.0,0.0,0.0,0.0,0.0,0.0,0.0,0.0,0.0,0.0,0.0,0.0,0.0,5.1109,6.4421,7.443,7.6767,7.6975,7.6066,7.3729,7.2376,6.8561,0.0,0.0,0.0,0.0,0.0,0.0,0.0,0.0,0.0,0.0,0.0,0.0,0.0,0.0,0.0,0.0,0.0,0.0,0.0,0.0,0.0,0.0,0.0,0.0,0.0,0.0,0.0,0.0,0.0,0.0,0.0,0.0,0.0,0.0,0.0,0.0,0.0,0.0,0.0,0.0,0.0,0.0,0.0,0.0,0.0,0.0,0.0,0.0,0.0,0.0,0.0,0.0,0.0,0.0,0.0,0.0,0.0,0.0,0.0,0.0,0.0,0.0,0.0,0.0,0.0,0.0,0.0,0.0,0.0,0.0,0.0,0.0,0.0,0.0,0.0,0.0,0.0,0.0,0.0,0.0,0.0,0.0,0.0,0.0,0.0,0.0,0.0,0.0,0.0,0.0,0.0,0.0,0.0,0.0,0.0,0.0,0.0,0.0,0.0,0.0,0.0,0.0,0.0,4.9308,6.3034,7.329,0.0,7.5776,7.5153,7.3596,7.1338,6.7653,6.2152,0.0,0.0,0.0,0.0,0.0,0.0,0.0,0.0,0.0,0.0,0.0,0.0,0.0,0.0,0.0,0.0,0.0,0.0,0.0,0.0,0.0,0.0,0.0,0.0,0.0,0.0,0.0,0.0,0.0,0.0,0.0,0.0,0.0,0.0,0.0,0.0,0.0,0.0,0.0,0.0,0.0,0.0,0.0,0.0,0.0,0.0,0.0,0.0,0.0,0.0,0.0,0.0,0.0,0.0,0.0,0.0,0.0,0.0,0.0,0.0,0.0,0.0,0.0,0.0,0.0,0.0,0.0,0.0,0.0,0.0,0.0,0.0,0.0,0.0,0.0,0.0,0.0,0.0,0.0,0.0,0.0,0.0,0.0,0.0,0.0,0.0,0.0,0.0,0.0,0.0,0.0,0.0,0.0,0.0,0.0,0.0,0.0,0.0,0.0,0.0,0.0,0.0,0.0,6.0051,6.9708,0.0,7.4582,7.4011,7.2664,7.0482,6.6978,6.1783,0.0,0.0,0.0,0.0,0.0,0.0,0.0,0.0,0.0,0.0,0.0,0.0,0.0,0.0,0.0,0.0,0.0,0.0,0.0,0.0,0.0,0.0,0.0,0.0,0.0,0.0,0.0,0.0,0.0,0.0,0.0,0.0,0.0,0.0,0.0,0.0,0.0,0.0,0.0,0.0,0.0,0.0,0.0,0.0,0.0,0.0,0.0,0.0,0.0,0.0,0.0,0.0,0.0,0.0,0.0,0.0,0.0,0.0,0.0,0.0,0.0,0.0,0.0,0.0,0.0,0.0,0.0,0.0,0.0,0.0,0.0,0.0,0.0,0.0,0.0,0.0,0.0,0.0,0.0,0.0,0.0,0.0,0.0,0.0,0.0,0.0,0.0,0.0,0.0,0.0,0.0,0.0,0.0,0.0,0.0,0.0,0.0,0.0,0.0,0.0,0.0,0.0,0.0,5.6035,6.4532,7.2532,7.3365,7.2662,7.1028,6.9729,6.6382,6.025,5.5514,0.0,0.0,0.0,0.0,0.0,0.0,0.0,0.0,0.0,0.0,0.0,0.0,0.0,0.0,0.0,0.0,0.0,0.0,0.0,0.0,0.0,0.0,0.0,0.0,0.0,0.0,0.0,0.0,0.0,0.0,0.0,0.0,0.0,0.0,0.0,0.0,0.0,0.0,0.0,0.0,0.0,0.0,0.0,0.0,0.0,0.0,0.0,0.0,0.0,0.0,0.0,0.0,0.0,0.0,0.0,0.0,0.0,0.0,0.0,0.0,0.0,0.0,0.0,0.0,0.0,0.0,0.0,0.0,0.0,0.0,0.0,0.0,0.0,0.0,0.0,0.0,0.0,0.0,0.0,0.0,0.0,0.0,0.0,0.0,0.0,0.0,0.0,0.0,0.0,0.0,0.0,0.0,0.0,0.0,0.0,0.0,0.0,0.0,0.0,0.0,0.0,0.0,5.4919,6.3124,7.1269,7.2114,7.1677,7.0483,6.8483,6.5185,6.0173,5.476,0.0,0.0,0.0,0.0,0.0,0.0,0.0,0.0,0.0,0.0,0.0,0.0,0.0,0.0,0.0,0.0,0.0,0.0,0.0,0.0,0.0,0.0,0.0,0.0,0.0,0.0,0.0,0.0,0.0,0.0,0.0,0.0,0.0,0.0,0.0,0.0,0.0,0.0,0.0,0.0,0.0,0.0,0.0,0.0,0.0,0.0,0.0,0.0,0.0,0.0,0.0,0.0,0.0,0.0,0.0,0.0,0.0,0.0,0.0,0.0,0.0,0.0,0.0,0.0,0.0,0.0,0.0,0.0,0.0,0.0,0.0,0.0,0.0,0.0,0.0,0.0,0.0,0.0,0.0,0.0,0.0,0.0,0.0,0.0,0.0,0.0,0.0,0.0,0.0,0.0,0.0,0.0,0.0,0.0,0.0,0.0,0.0,0.0,0.0,0.0,0.0,0.0,4.6033,5.7392,6.9721,7.1236,7.0897,6.9833,6.7342,6.3709,5.857,5.2901,0.0,0.0,0.0,0.0,0.0,0.0,0.0,0.0,0.0,0.0,0.0,0.0,0.0,0.0,0.0,0.0,0.0,0.0,0.0,0.0,0.0,0.0,0.0,0.0,0.0,0.0,0.0,0.0,0.0,0.0,0.0,0.0,0.0,0.0,0.0,0.0,0.0,0.0,0.0,0.0,0.0,0.0,0.0,0.0,0.0,0.0,0.0,0.0,0.0,0.0,0.0,0.0,0.0,0.0,0.0,0.0,0.0,0.0,0.0,0.0,0.0,0.0,0.0,0.0,0.0,0.0,0.0,0.0,0.0,0.0,0.0,0.0,0.0,0.0,0.0,0.0,0.0,0.0,0.0,0.0,0.0,0.0,0.0,0.0,0.0,0.0,0.0,0.0,0.0,0.0,0.0,0.0,0.0,0.0,0.0,0.0,0.0,0.0,0.0,0.0,0.0,0.0,0.0,4.9352,6.4987,6.8946,6.9989,6.8795,6.6148,6.2079,5.6365,0.0,0.0,0.0,0.0,0.0,0.0,0.0,0.0,0.0,0.0,0.0,0.0,0.0,0.0,0.0,0.0,0.0,0.0,0.0,0.0,0.0,0.0,0.0,0.0,0.0,0.0,0.0,0.0,0.0,0.0,0.0,0.0,0.0,0.0,0.0,0.0,0.0,0.0,0.0,0.0,0.0,0.0,0.0,0.0,0.0,0.0,0.0,0.0,0.0,0.0,0.0,0.0,0.0,0.0,0.0,0.0,0.0,0.0,0.0,0.0,0.0,0.0,0.0,0.0,0.0,0.0,0.0,0.0,0.0,0.0,0.0,0.0,0.0,0.0,0.0,0.0,0.0,0.0,0.0,0.0,0.0,0.0,0.0,0.0,0.0,0.0,0.0,0.0,0.0,0.0,0.0,0.0,0.0,0.0,0.0,0.0,0.0,0.0,0.0,0.0,0.0,0.0,0.0,0.0,0.0,4.9821,6.1236,6.7677,6.6483,6.4198,6.0354,5.4615,0.0,0.0,0.0,0.0,0.0,0.0,0.0,0.0,0.0,0.0,0.0,0.0,0.0,0.0]}]]]